     2              OBSERVATION DATA    GPS                 RINEX VERSION / TYPE
teqc 2000Feb29 20030210 22:42:56UTC                         PGM / RUN BY / DATE
                                                            COMMENT
L2: 1 -> 1; 150 -> 5; 250 -> 9                              COMMENT
L2: 1 -> 1; 150 -> 5; 250 -> 9                              COMMENT
L2: 1 -> 1; 150 -> 5; 250 -> 9                              COMMENT
L2: 1 -> 1; 150 -> 5; 250 -> 9                              COMMENT
L2: 1 -> 1; 150 -> 5; 250 -> 9                              COMMENT
Original Marker Name: CAOC                                  COMMENT
Campaign Name: Northern Baja California                     COMMENT
4-Character Station Name: CAOC                              COMMENT
6-Character Antenna Code: DMRCHT                            COMMENT
Vertical Measurement Point: BCR                             COMMENT
Vertical Offset to Rinex Ref. Point: 0.0348                 COMMENT
Radial Measurement Point: ECF                               COMMENT
Radial Offset to Rinex Ref. Point: 0.1897                   COMMENT
Antenna Height from Field Measurement: 1.4780 m             COMMENT
Additional Antenna Identification Info.:                    COMMENT
Turborogue and Ashtech Choke Ring                           COMMENT
Original XYZ: -2431167.4565 -4846204.5667 3348031.8708      COMMENT
New XYZ position is based on association with SCEC monument COMMENT
E1C2W4P7+0011. Position of that monument is believed to be  COMMENT
valid to within 1 m horizontally; vertical accuracy         COMMENT
should be no worse than 3-times this value.                 COMMENT
                                                            COMMENT
Revised Rinex header created by UCSD GPS archive for        COMMENT
GSAC on 11-Jul-2003 (2003:192) 15:51:23 GMT                 COMMENT
For assistance contact dagnew@ucsd.edu                      COMMENT
or anderson@python.ucsd.edu                                 COMMENT
                                                            COMMENT
CASA ARMIDA ORTEGA CESENA                                   MARKER NAME
JGG CICESE (ENSENADA)                                       OBSERVER / AGENCY
734 ASHTECH Z-XII3 CC00                                     REC # / TYPE / VERS
003 DORNE-MARGOL. TYPE T                                    ANT # / TYPE
 -2431153.7404 -4846192.5940  3348020.9193                  APPROX POSITION XYZ
        1.4310        0.0000        0.0000                  ANTENNA: DELTA H/E/N
     1     1     0                                          WAVELENGTH FACT L1/2
     7    C1    L1    L2    P1    P2    S1    S2            # / TYPES OF OBSERV
     0                                                      INTERVAL
  2002     6    21    19    54    0.000000                  TIME OF FIRST OBS
  2002     6    21    23    59   30.000000                  TIME OF LAST OBS
                                                            END OF HEADER
 02  6 21 19 54  0.0000000  0  7G15G 3G21G18G14G 9G17
  20844414.978      -38758.05249    -27384.06747  20844414.372    20844424.802
       243.000         206.000
  21892558.828     -195580.43849   -141048.66547  21892558.957    21892570.368
       234.000         191.000
                   -145493.77949   -103394.90043
       243.000          74.000
                     -8544.91249     -5353.71243
       240.000          74.000
  21682956.481     -352250.28949   -251163.17447  21682955.882    21682966.526
       236.000         193.000
  23426983.028     -214832.72849   -157331.80745  23426982.797    23426996.457
       219.000         159.000
  21412796.034       -4713.18749     -3303.06947  21412795.300    21412806.831
       233.000         190.000
 02  6 21 19 54 30.0000000  0  8G15G 3G21G18G31G14G 9G17
  20841834.038      -52320.88249    -37952.54147  20841833.399    20841844.178
       242.000         207.000
  21879891.726     -262148.51949   -192919.90547  21879891.167    21879902.073
       234.000         191.000
                   -199295.99049    -17155.25146                  21333764.176
       242.000         179.000
                    -11476.55349      -923.55646                  21312728.997
       242.000         176.000
                    -58801.42249    -27009.06843
       209.000          74.000
  21658315.608     -481735.53149   -352060.64447  21658315.310    21658325.960
       237.000         194.000
  23412805.303     -289338.26349   -215387.96345  23412805.432    23412818.583
       219.000         161.000
  21412585.665       -5819.02249     -4164.82647  21412584.996    21412595.946
       233.000         190.000
 02  6 21 19 55  0.0000000  0  8G15G 3G21G18G31G14G 9G17
  20824720.505     -142253.35249   -108029.83947  20824720.346    20824730.726
       243.000         207.000
  21852727.851     -404896.00549   -304151.72147  21852727.422    21852738.253
       235.000         191.000
  21308940.897     -329695.00549   -118764.87447  21308940.088    21308950.283
       242.000         202.000
  21297588.324      -91000.92449    -62890.63147  21297587.607    21297596.406
       241.000         199.000
                   -261043.71549   -184600.13143
       211.000          74.000
  21619147.242     -687567.46149   -512449.05147  21619146.976    21619157.804
       237.000         195.000
  23384117.823     -440091.90249   -332858.23146  23384117.932    23384131.508
       221.000         163.000
  21397840.267      -83306.11749    -64544.44547  21397839.434    21397851.074
       232.000         190.000
 02  6 21 19 55 30.0000000  0  8G15G 3G21G18G31G14G 9G17
  20831182.940     -108294.01249    -81568.04847  20831182.552    20831192.620
       243.000         206.000
  21849175.991     -423560.99149   -318695.87947  21849175.541    21849186.570
       235.000         192.000
  21307658.951     -336430.78149   -124013.54147  21307658.385    21307668.243
       242.000         205.000
  21305988.180      -46858.01649    -28493.60547  21305987.462    21305996.239
       240.000         201.000
                   -339384.59249   -245644.96044                  24169304.984
       214.000         120.000
  21603559.338     -769482.40349   -576278.75247  21603558.907    21603569.727
       237.000         196.000
  23379029.611     -466830.20549   -353693.17346  23379029.015    23379042.823
       218.000         164.000
  21406668.552      -36913.07449    -28394.09947  21406668.022    21406679.434
       233.000         189.000
 02  6 21 19 56  0.0000000  0  8G15G 3G21G18G31G14G 9G17
  20837714.529      -73970.30649    -54822.34747  20837713.651    20837724.361
       242.000         206.000
  21845729.800     -441671.22649   -332807.77247  21845729.426    21845740.022
       236.000         192.000
  21306402.691     -343032.18849   -129157.49847  21306402.135    21306411.944
       242.000         206.000
  21314414.561       -2576.81349      6011.18847  21314414.088    21314422.699
       241.000         201.000
  24154455.287     -417350.00849   -306397.18745  24154454.799    24154468.981
       205.000         137.000
  21588045.708     -851006.70649   -639804.06647  21588045.067    21588055.940
       237.000         196.000
  23374034.580     -493079.09249   -374146.74746  23374034.173    23374047.810
       218.000         164.000
  21415564.009        9832.52049      8030.96447  21415563.464    21415575.521
       233.000         190.000
 02  6 21 19 56 30.0000000  0  8G15G 3G21G18G31G14G 9G17
  20844314.879      -39284.80949    -27794.73547  20844313.852    20844324.679
       242.000         206.000
  21842388.515     -459229.75649   -346489.76047  21842388.179    21842399.008
       235.000         192.000
  21305171.298     -349503.31349   -134199.93947  21305170.587    21305180.914
       242.000         206.000
  21322866.531       41838.60349     40620.56947  21322866.017    21322874.677
       241.000         201.000
  24139689.555     -494940.90149   -366857.58445  24139688.551    24139703.006
       207.000         138.000
  21572606.150     -932141.56949   -703025.92247  21572605.396    21572616.075
       236.000         195.000
  23369132.346     -518839.81749   -394219.95446  23369132.566    23369144.204
       219.000         163.000
  21424526.010       56927.55349     44728.32647  21424525.130    21424537.292
       233.000         191.000
 02  6 21 19 57  0.0000000  0  8G15G 3G21G18G31G14G 9G17
  20850984.649       -4235.11849      -483.33147  20850984.054    20850994.589
       242.000         206.000
  21839152.605     -476234.06049   -359739.88947  21839151.950    21839163.373
       235.000         192.000
  21303964.957     -355842.66149   -139139.69447  21303964.522    21303974.471
       243.000         206.000
  21331344.237       86389.30249     75335.36047  21331343.788    21331352.743
       241.000         202.000
  24124996.994     -572152.79949   -427022.64945  24124997.252    24125010.516
       205.000         138.000
  21557241.509    -1012882.98449   -765941.20747  21557241.033    21557251.037
       237.000         195.000
  23364323.888     -544108.35349   -413909.62346  23364323.535    23364336.815
       219.000         164.000
  21433554.956      104374.66949     81700.03347  21433554.699    21433565.884
       233.000         191.000
 02  6 21 19 57 30.0000000  0  8G15G 3G21G18G31G14G 9G17
  20857723.946       31179.90549     27112.75047  20857723.598    20857733.945
       243.000         206.000
  21836022.509     -492682.85149   -372557.14447  21836022.536    21836033.441
       236.000         192.000
  21302783.864     -362049.47549   -143976.18647  21302783.460    21302793.472
       243.000         206.000
  21339847.720      131075.17249    110155.47347  21339847.611    21339856.316
       241.000         202.000
  24110377.002     -648982.65249   -486890.00445  24110377.123    24110388.796
       203.000         136.000
  21541952.298    -1093228.15049   -828547.72147  21541951.647    21541962.023
       237.000         195.000
  23359609.511     -568881.86749   -433213.57746  23359609.359    23359622.879
       220.000         164.000
  21442651.109      152175.00549    118946.98047  21442650.672    21442662.719
       232.000         191.000
 02  6 21 19 58  0.0000000  0  8G15G 3G21G18G31G14G 9G17
  20864533.217       66962.33749     54995.12047  20864532.515    20864543.168
       242.000         206.000
  21832998.441     -508574.49849   -384940.27347  21832998.020    21833009.271
       236.000         192.000
  21301627.921     -368123.79949   -148709.43147  21301627.370    21301637.522
       243.000         206.000
  21348377.032      175896.36549    145081.04147  21348376.676    21348385.369
       241.000         203.000
  24095830.222     -725426.73049   -546456.76345  24095829.544    24095843.967
       204.000         134.000
  21526739.157    -1173173.84449   -890842.96147  21526738.409    21526749.065
       237.000         195.000
  23354990.089     -593156.89649   -452129.09746  23354989.557    23355003.217
       220.000         164.000
  21451814.714      200330.13749    156470.37047  21451813.648    21451826.010
       232.000         192.000
 02  6 21 19 58 30.0000000  0  8G15G 3G21G18G31G14G 9G17
  20871412.317      103112.45449     83163.99247  20871411.672    20871422.293
       242.000         206.000
  21830080.432     -523908.76749   -396889.07647  21830080.380    21830090.676
       234.000         192.000
  21300497.064     -374066.48749   -153340.10647  21300496.763    21300506.643
       243.000         206.000
  21356931.761      220851.85449    180111.24847  21356931.314    21356940.180
       240.000         202.000
  24081357.589     -801482.93649   -605721.29845  24081357.393    24081369.374
       204.000         136.000
  21511602.288    -1252718.17149   -952825.45247  21511601.588    21511612.081
       237.000         195.000
  23350465.822     -616931.81149   -470654.94446  23350466.109    23350479.454
       221.000         165.000
  21461045.857      248840.30049    194270.40347  21461045.397    21461057.310
       233.000         192.000
 02  6 21 19 59  0.0000000  0  8G15G 3G21G18G31G14G 9G17
  20878361.521      139630.48149    111619.54147  20878361.251    20878371.430
       242.000         206.000
  21827268.513     -538685.79649   -408403.65847  21827268.267    21827278.698
       235.000         192.000
  21299391.097     -379878.25049   -157868.76247  21299390.559    21299400.863
       243.000         206.000
  21365511.829      265940.66549    215245.33247  21365511.254    21365520.604
       240.000         202.000
  24066958.988     -877149.07049   -664681.88945  24066957.582    24066971.528
       206.000         136.000
  21496542.146    -1331859.18049  -1014493.68247  21496541.184    21496551.397
       237.000         194.000
  23346037.105     -640204.70149   -488789.57846  23346036.285    23346049.552
       220.000         165.000
  21470344.776      297705.53349    232347.13447  21470344.780    21470356.138
       236.000         193.000
 02  6 21 19 59 30.0000000  0  8G15G 3G21G18G31G14G 9G17
  20885380.904      176516.92449    140362.17047  20885380.262    20885390.620
       242.000         206.000
  21824562.699     -552904.97249   -419483.57047  21824562.909    21824573.511
       236.000         192.000
  21298310.016     -385559.12449   -162295.42347  21298309.117    21298319.223
       243.000         206.000
  21374117.154      311162.04649    250482.72547  21374116.737    21374125.857
       240.000         201.000
  24052634.685     -952422.65049   -723336.56845  24052633.948    24052649.344
       206.000         138.000
  21481559.110    -1410594.96949  -1075846.15447  21481558.606    21481568.985
       237.000         194.000
  23341704.114     -662973.39449   -506531.35046  23341703.565    23341717.283
       218.000         163.000
  21479711.421      346926.41949    270701.00447  21479711.225    21479722.530
       235.000         193.000
 02  6 21 20  0  0.0000000  0  8G15G 3G21G18G31G14G 9G17
  20892470.324      213772.15249    169392.16647  20892469.784    20892480.595
       241.000         206.000
  21821963.173     -566566.17049   -430128.68647  21821962.869    21821973.497
       236.000         193.000
  21297253.655     -391110.35149   -166621.06147  21297253.278    21297263.073
       243.000         206.000
  21382747.541      356515.09649    285822.71047  21382747.132    21382756.287
       240.000         201.000
  24038385.585    -1027301.41749   -781683.63045  24038384.902    24038397.665
       203.000         138.000
  21466653.569    -1488923.71049  -1136881.43847  21466652.536    21466663.186
       237.000         195.000
  23337467.643     -685236.33549   -523879.03645  23337466.628    23337479.630
       219.000         162.000
  21489145.651      396503.32849    309332.27347  21489145.184    21489156.894
       233.000         192.000
 02  6 21 20  0 30.0000000  0  8G15G 3G21G18G31G14G 9G17
  20899629.766      251395.64549    198709.12547  20899629.038    20899639.795
       241.000         205.000
  21819469.690     -579670.03749   -440339.51847  21819469.256    21819480.152
       235.000         193.000
  21296221.731     -396533.33849   -170846.76947  21296221.513    21296231.250
       243.000         206.000
  21391402.719      401998.19149    321264.02747  21391402.410    21391411.835
       241.000         201.000
  24024211.919    -1101784.16949   -839722.10645  24024211.734    24024223.501
       207.000         136.000
  21451825.647    -1566844.32449  -1197598.70047  21451824.951    21451835.572
       237.000         195.000
  23333327.619     -706992.44249   -540831.77946  23333326.944    23333340.698
       218.000         163.000
  21498647.315      446435.32349    348240.23947  21498646.956    21498658.201
       232.000         190.000
 02  6 21 20  1  0.0000000  0  8G15G 3G21G18G31G14G 9G17
  20906859.434      289387.68349    228313.25647  20906859.133    20906869.469
       241.000         205.000
  21817082.046     -592216.65749   -450116.12047  21817081.709    21817092.853
       235.000         192.000
  21295214.063     -401829.13549   -174973.36347  21295213.550    21295223.553
       243.000         206.000
  21400082.427      447609.83349    356805.51247  21400082.361    21400091.285
       241.000         201.000
  24010114.305    -1175868.72349   -897450.28845  24010114.504    24010125.835
       210.000         136.000
  21437075.726    -1644355.08949  -1257996.60047  21437074.892    21437085.985
       237.000         195.000
  23329284.351     -728240.15149   -557388.34945  23329283.343    23329297.008
       218.000         162.000
  21508216.683      496722.68849    387425.10547  21508216.122    21508227.568
       231.000         189.000
 02  6 21 20  1 30.0000000  0  8G15G 3G21G18G31G14G 9G17
  20914159.480      327749.23549    258205.32047  20914159.019    20914169.643
       242.000         205.000
  21814800.656     -604205.23849   -459457.89747  21814800.678    21814811.360
       236.000         192.000
  21294230.446     -406997.96449   -179001.02547  21294230.231    21294239.670
       244.000         206.000
  21408786.517      493349.88149    392447.05947  21408786.326    21408795.129
       241.000         201.000
  23996093.045    -1249552.20449   -954865.96445  23996092.461    23996104.702
       209.000         137.000
  21422404.219    -1721453.61349  -1318073.28547  21422403.738    21422414.135
       237.000         195.000
  23325338.135     -748976.97149   -573546.84545  23325337.445    23325350.842
       219.000         162.000
  21517853.952      547366.16349    426887.45547  21517854.180    21517865.326
       234.000         189.000
 02  6 21 20  2  0.0000000  0  8G15G 3G21G18G31G14G 9G17
  20921529.786      366480.15649    288385.20847  20921529.117    20921539.792
       241.000         205.000
  21812625.489     -615636.24049   -468365.19647  21812625.414    21812636.108
       236.000         192.000
  21293270.891     -412040.87449   -182930.56547  21293270.386    21293280.252
       243.000         206.000
  21417514.821      539217.17349    428187.76547  21417514.303    21417523.434
       240.000         201.000
  23982148.321    -1322832.77349  -1011967.68945  23982148.544    23982159.786
       209.000         139.000
  21407811.584    -1798138.29149  -1377827.48247  21407810.891    21407821.656
       238.000         197.000
  23321489.457     -769201.33049   -589306.00445  23321488.350    23321502.384
       219.000         161.000
  21527558.926      598365.52349    466627.11947  21527558.791    21527569.843
       232.000         188.000
 02  6 21 20  2 30.0000000  0  8G15G 3G21G18G31G14G 9G17
  20928970.432      405580.98349    318853.33347  20928969.876    20928980.252
       241.000         204.000
  21810556.451     -626509.29049   -476837.73347  21810555.946    21810567.209
       235.000         192.000
  21292335.065     -416958.46249   -186762.45847  21292334.434    21292344.074
       243.000         206.000
  21426267.087      585210.71149    464026.83147  21426266.444    21426276.019
       240.000         200.000
  23968280.505    -1395708.34949  -1068753.81745  23968279.905    23968292.545
       212.000         141.000
  21393298.062    -1874407.43649  -1437257.89147  21393297.488    21393308.058
       239.000         198.000
  23317738.691     -788911.38049   -604664.42146  23317738.396    23317750.854
       222.000         163.000
  21537331.667      649721.24149    506644.46646  21537331.156    21537342.374
       230.000         187.000
 02  6 21 20  3  0.0000000  0  8G15G 3G21G18G31G14G 9G17
  20936481.511      445051.89249    349609.82347  20936480.996    20936491.822
       241.000         204.000
  21808593.459     -636824.27549   -484875.40847  21808593.025    21808604.099
       234.000         192.000
  21291422.984     -421750.96749   -190496.88147  21291422.405    21291432.660
       243.000         206.000
  21435043.280      631329.58249    499963.56747  21435042.839    21435051.589
       239.000         200.000
  23954490.315    -1468176.56849  -1125222.52445  23954489.752    23954501.713
       211.000         142.000
  21378863.862    -1950259.20449  -1496363.07547  21378863.381    21378873.515
       239.000         198.000
  23314086.214     -808105.50649   -619620.83846  23314086.684    23314098.435
       223.000         163.000
  21547172.095      701433.30649    546939.47346  21547171.454    21547183.117
       230.000         185.000
 02  6 21 20  3 30.0000000  0  8G15G 3G21G18G31G14G 9G17
  20944062.905      484891.95049    380653.96647  20944062.207    20944073.131
       241.000         204.000
  21806736.454     -646582.65549   -492479.35547  21806736.261    21806747.415
       235.000         192.000
  21290534.457     -426420.15649   -194135.20147  21290533.850    21290544.070
       242.000         206.000
  21443842.932      677571.65449    535996.30447  21443842.617    21443851.196
       239.000         199.000
  23940777.747    -1540236.78949  -1181373.30545  23940776.825    23940789.575
       211.000         142.000
  21364509.176    -2025693.23449  -1555142.74947  21364508.419    21364519.093
       239.000         197.000
  23310531.965     -826783.26049   -634174.87045  23310531.745    23310543.555
       222.000         162.000
  21557080.214      753500.56149    587511.25046  21557079.744    21557091.664
       231.000         185.000
 02  6 21 20  4  0.0000000  0  8G15G 3G21G18G31G14G 9G17
  20951715.081      525104.25949    411988.18247  20951714.500    20951724.930
       241.000         203.000
  21804985.978     -655781.61349   -499647.39647  21804985.713    21804997.089
       235.000         192.000
  21289669.762     -430964.26549   -197676.07047  21289669.518    21289679.550
       243.000         206.000
  21452666.313      723938.91749    572126.58847  21452665.958    21452674.621
       240.000         199.000
  23927143.507    -1611883.93249  -1237202.21145  23927142.654    23927155.486
       212.000         143.000
  21350234.833    -2100704.82849  -1613593.25347  21350234.430    21350244.387
       238.000         198.000
  23307076.621     -844940.13849   -648323.03646  23307075.857    23307089.024
       222.000         163.000
  21567056.524      805925.94449    628362.10746  21567056.507    21567067.930
       233.000         187.000
 02  6 21 20  4 30.0000000  0  8G15G 3G21G18G31G14G 9G17
  20959438.044      565688.46849    443612.18447  20959437.693    20959448.124
       242.000         203.000
  21803341.897     -664421.32249   -506379.66047  21803341.351    21803352.617
       234.000         192.000
  21288828.629     -435384.72049   -201120.58447  21288828.121    21288837.826
       243.000         207.000
  21461513.311      770429.82249    608353.22247  21461513.134    21461522.034
       239.000         200.000
  23913588.184    -1683116.34649  -1292707.93945  23913588.347    23913599.542
       213.000         144.000
  21336041.109    -2175292.75749  -1671713.62047  21336040.487    21336050.788
       239.000         198.000
  23303720.695     -862575.16249   -662064.56046  23303720.760    23303733.118
       220.000         163.000
  21577101.000      858709.17249    669491.80647  21577100.484    21577112.137
       232.000         188.000
 02  6 21 20  5  0.0000000  0  8G15G 3G21G18G31G14G 9G17
  20967231.785      606644.17349    475525.66647  20967231.458    20967241.968
       242.000         205.000
  21801803.936     -672502.85649   -512676.97947  21801803.356    21801814.518
       234.000         191.000
  21288010.801     -439682.51549   -204469.51647  21288010.287    21288020.228
       243.000         207.000
  21470383.552      817042.86749    644675.02847  21470383.123    21470392.680
       239.000         200.000
  23900112.176    -1753932.66349  -1347889.46045  23900111.927    23900124.981
       213.000         145.000
  21321928.249    -2249456.06649  -1729503.12647  21321927.996    21321937.886
       240.000         199.000
  23300464.405     -879687.15849   -675398.54346  23300463.904    23300476.496
       222.000         163.000
  21587213.362      911849.59949    710899.81746  21587212.903    21587224.195
       230.000         187.000
 02  6 21 20  5 30.0000000  0  8G15G 3G21G18G31G14G 9G17
  20975096.337      647972.07449    507729.18447  20975095.913    20975106.479
       242.000         205.000
  21800372.343     -680026.01249   -518539.20447  21800372.056    21800383.126
       234.000         191.000
  21287216.158     -443858.57149   -207723.58647  21287215.987    21287226.094
       244.000         207.000
  21479276.796      863777.31149    681091.44147  21479276.226    21479285.790
       240.000         199.000
  23886715.738    -1824330.52749  -1402744.93145  23886715.461    23886728.231
       215.000         147.000
  21307896.665    -2323192.64049  -1786960.11547  21307896.061    21307905.902
       241.000         200.000
  23297308.007     -896274.42349   -688323.62846  23297307.779    23297321.141
       223.000         164.000
  21597393.609      965347.49049    752586.37446  21597393.466    21597405.267
       229.000         186.000
 02  6 21 20  6  0.0000000  0  8G15G 3G21G18G31G14G 9G17
  20983031.462      689671.15649    540221.92647  20983030.670    20983041.424
       241.000         204.000
  21799046.723     -686991.96949   -523967.25547  21799046.344    21799057.261
       234.000         191.000
  21286444.367     -447914.65449   -210884.17247  21286443.902    21286453.789
       244.000         207.000
  21488192.807      910631.29549    717600.99447  21488192.444    21488201.979
       240.000         199.000
  23873399.455    -1894308.86149  -1457273.48345  23873399.400    23873412.022
       215.000         147.000
  21293946.378    -2396501.95549  -1844084.17247  21293945.968    21293955.728
       242.000         201.000
  23294251.521     -912336.52749   -700839.49946  23294250.256    23294264.634
       223.000         165.000
  21607641.888     1019202.15249    794550.93346  21607641.841    21607653.654
       231.000         187.000
 02  6 21 20  6 30.0000000  0  8G15G 3G21G18G31G14G 9G17
  20991037.261      731742.22949    573004.52747  20991036.448    20991047.145
       241.000         204.000
  21797827.312     -693399.91149   -528960.48747  21797827.298    21797837.778
       234.000         191.000
  21285695.513     -451850.24749   -213950.87347  21285694.690    21285705.217
       243.000         207.000
  21497131.539      957604.48549    754203.42947  21497131.206    21497140.571
       238.000         199.000
  23860163.484    -1963864.96349  -1511473.05145  23860162.663    23860174.388
       214.000         145.000
  21280077.815    -2469381.67849  -1900873.48847  21280077.389    21280087.155
       241.000         202.000
  23291295.202     -927871.02349   -712944.24046  23291295.022    23291307.980
       221.000         165.000
  21617958.168     1073414.13349    836793.92946  21617958.269    21617970.095
       232.000         187.000
 02  6 21 20  7  0.0000000  0  8G15G 3G21G18G31G14G 9G17
  20999113.857      774185.31349    606077.01347  20999113.156    20999124.245
       240.000         204.000
  21796713.979     -699250.70149   -533519.57247  21796713.899    21796724.810
       235.000         191.000
  21284969.203     -455666.40249   -216924.50647  21284968.563    21284978.835
       243.000         207.000
  21506092.697     1004695.87349    790897.97547  21506092.542    21506101.339
       239.000         198.000
  23847008.077    -2032997.06149  -1565342.19245  23847007.290    23847019.602
       214.000         146.000
  21266291.221    -2541830.45349  -1957326.99247  21266290.324    21266300.501
       240.000         201.000
  23288439.638     -942876.76049   -724636.96646  23288438.899    23288452.501
       219.000         165.000
  21628342.413     1127983.16149    879315.14647  21628342.720    21628354.218
       232.000         188.000
 02  6 21 20  7 30.0000000  0  8G15G 3G21G18G31G14G 9G17
  21007261.421      817001.22049    639440.00747  21007260.946    21007272.139
       241.000         204.000
  21795706.677     -704543.99649   -537644.24547  21795706.326    21795717.178
       234.000         192.000
  21284265.763     -459363.12849   -219805.07347  21284265.340    21284275.588
       244.000         207.000
  21515076.363     1051905.25249    827684.46747  21515076.063    21515085.293
       239.000         198.000
  23833933.876    -2101702.53649  -1618878.90945  23833932.322    23833944.876
       215.000         147.000
  21252586.993    -2613846.26549  -2013443.13647  21252586.600    21252596.096
       241.000         201.000
  23285685.038     -957351.55149   -735915.96646  23285685.096    23285697.851
       221.000         165.000
  21638794.739     1182909.79049    922115.01946  21638794.534    21638806.703
       231.000         187.000
 02  6 21 20  8  0.0000000  0  8G15G 3G21G18G31G14G 9G17
  21015479.997      860189.99749    673093.55647  21015479.366    21015490.510
       241.000         204.000
  21794805.548     -709279.99249   -541334.65947  21794805.630    21794816.633
       236.000         192.000
  21283584.894     -462941.34049   -222593.29147  21283584.361    21283594.499
       243.000         207.000
  21524082.252     1099231.75749    864562.22547  21524081.828    21524091.040
       238.000         198.000
  23820941.063    -2169979.33549  -1672081.58245  23820940.246    23820953.271
       213.000         150.000
  21238965.557    -2685427.26949  -2069220.45847  21238964.990    21238974.751
       241.000         201.000
  23283031.952     -971294.10549   -746780.22446  23283031.962    23283044.435
       221.000         165.000
  21649315.140     1238194.28349    965193.73646  21649314.791    21649326.659
       230.000         185.000
 02  6 21 20  8 30.0000000  0  8G15G 3G21G18G31G14G 9G17
  21023769.590      903751.97249    707037.90247  21023768.898    21023779.835
       240.000         203.000
  21794010.459     -713458.91049   -544590.98347  21794010.371    21794021.626
       236.000         193.000
  21282926.429     -466401.64749   -225289.64347  21282926.167    21282936.011
       244.000         207.000
  21533110.329     1146674.21349    901530.33147  21533109.958    21533119.481
       239.000         198.000
  23808030.143    -2237825.55849  -1724948.73745  23808029.744    23808042.816
       213.000         152.000
  21225427.131    -2756571.85449  -2124657.72647  21225426.393    21225436.420
       241.000         202.000
  23280480.443     -984702.76649   -757228.48046  23280480.699    23280492.781
       218.000         164.000
  21659903.516     1293836.39349   1008551.10246  21659902.981    21659915.043
       230.000         185.000
 02  6 21 20  9  0.0000000  0  8G15G 3G21G18G31G14G 9G17
  21032130.345      947687.73349    741273.50747  21032129.720    21032140.255
       240.000         202.000
  21793321.310     -717080.29449   -547412.87747  21793320.938    21793331.902
       236.000         193.000
  21282290.475     -469743.72049   -227893.86247  21282289.917    21282299.892
       244.000         207.000
  21542160.461     1194232.57149    938588.75447  21542160.303    21542169.683
       239.000         199.000
  23795201.853    -2305238.43849  -1777478.23245  23795201.745    23795214.864
       214.000         154.000
  21211972.159    -2827278.02149  -2179753.36147  21211971.378    21211981.261
       240.000         202.000
  23278030.638     -997575.75349   -767259.33546  23278029.685    23278043.589
       216.000         163.000
  21670559.990     1349836.80349   1052187.68546  21670559.404    21670571.772
       230.000         185.000
 02  6 21 20  9 30.0000000  0  8G15G 3G21G18G31G14G 9G17
  21040562.324      991997.58549    775800.61347  21040561.832    21040572.269
       241.000         202.000
  21792738.253     -720144.51649   -549800.61647  21792738.411    21792749.154
       236.000         193.000
  21281676.765     -472968.62149   -230406.77947  21281676.452    21281686.330
       243.000         207.000
  21551232.451     1241905.91149    975736.76847  21551232.262    21551241.778
       238.000         199.000
  23782456.334    -2372216.13449  -1829668.60445  23782455.439    23782469.881
       215.000         155.000
  21198600.880    -2897544.12149  -2234506.09947  21198600.154    21198610.206
       240.000         202.000
  23275682.971    -1009911.49949   -776871.54745  23275681.921    23275695.466
       217.000         162.000
  21681284.700     1406195.62749   1096103.54646  21681284.059    21681296.850
       229.000         185.000
 02  6 21 20 10  0.0000000  0  8G15G 3G21G18G31G14G 9G17
  21049065.378     1036680.88249    810618.71347  21049064.816    21049075.903
       240.000         203.000
  21792261.039     -722652.62949   -551755.02847  21792261.381    21792271.897
       236.000         193.000
  21281085.154     -476077.56249   -232829.33347  21281084.422    21281094.710
       243.000         207.000
  21560326.063     1289692.83749   1012973.29347  21560325.717    21560335.481
       238.000         199.000
  23769794.195    -2438757.28049  -1881518.82445  23769793.075    23769807.409
       212.000         155.000
  21185313.549    -2967369.35549  -2288915.29647  21185312.873    21185322.662
       240.000         202.000
  23273437.804    -1021709.24849   -786064.55445  23273437.285    23273450.049
       217.000         162.000
  21692077.522     1462912.10749   1140298.09646  21692077.577    21692089.262
       229.000         185.000
 02  6 21 20 10 30.0000000  0  8G15G 3G21G18G31G14G 9G17
  21057639.349     1081737.54749    845727.75047  21057638.430    21057650.320
       239.000         202.000
  21791889.633     -724604.66949   -553276.13347  21791889.219    21791900.100
       235.000         193.000
  21280515.457     -479070.99949   -235161.88947  21280515.176    21280525.364
       244.000         207.000
  21569441.174     1337592.48449   1050297.65347  21569441.177    21569449.846
       239.000         198.000
  23757215.184    -2504860.11149  -1933027.51445  23757215.162    23757227.943
       211.000         153.000
  21172110.364    -3036752.23349  -2342979.80147  21172109.594    21172119.501
       239.000         202.000
  23271295.539    -1032967.95649   -794837.53045  23271296.077    23271307.397
       218.000         162.000
  21702938.409     1519985.99849   1184771.16246  21702938.698    21702950.741
       230.000         185.000
 02  6 21 20 11  0.0000000  0  8G15G 3G21G18G31G14G 9G17
  21066284.267     1127167.15449    881127.38147  21066283.425    21066294.945
       239.000         202.000
  21791623.749     -726001.85849   -554364.88047  21791623.633    21791634.813
       236.000         193.000
  21279967.544     -481950.55949   -237405.70147  21279967.155    21279977.012
       244.000         207.000
  21578577.278     1385603.43849   1087708.74247  21578576.692    21578586.328
       237.000         197.000
  23744720.162    -2570523.20849  -1984193.54445  23744719.273    23744732.733
       209.000         151.000
  21158991.427    -3105691.90049  -2396698.94047  21158990.286    21159000.697
       239.000         202.000
  23269255.931    -1043686.91649   -803189.91245  23269255.779    23269268.344
       217.000         162.000
  21713867.240     1577416.64549   1229522.21746  21713866.313    21713878.831
       229.000         185.000
 02  6 21 20 11 30.0000000  0  8G15G 3G21G18G31G14G 9G17
  21075000.535     1172971.08749    916818.69047  21075000.011    21075011.139
       241.000         203.000
  21791463.794     -726843.11149   -555020.44347  21791463.754    21791474.649
       237.000         194.000
  21279441.507     -484715.24949   -239560.01847  21279441.020    21279450.987
       244.000         207.000
  21587734.673     1433726.21749   1125206.96747  21587734.063    21587743.474
       238.000         197.000
  23732309.128    -2635743.27749  -2035014.33145  23732308.495    23732321.928
       207.000         148.000
  21145957.498    -3174185.22249  -2450070.28547  21145956.779    21145966.979
       240.000         202.000
  23267319.250    -1053863.28849   -811119.52145  23267318.461    23267333.240
       217.000         161.000
  21724864.224     1635205.47849   1274552.36246  21724864.289    21724875.995
       230.000         185.000
 02  6 21 20 12  0.0000000  0  8G15G 3G21G18G31G14G 9G17
  21083788.223     1219149.86549    952802.10547  21083787.797    21083798.097
       241.000         203.000
  21791409.604     -727128.42149   -555242.80447  21791409.551    21791420.412
       236.000         194.000
  21278937.301     -487365.09049   -241624.83347  21278936.829    21278946.400
       244.000         207.000
  21596913.379     1481960.58049   1162792.14547  21596913.348    21596922.142
       238.000         196.000
  23719982.620    -2700517.90149  -2085488.00545  23719981.059    23719995.315
       206.000         146.000
  21133008.886    -3242230.39749  -2503092.41947  21133008.113    21133018.499
       240.000         202.000
  23265486.314    -1063495.28349   -818624.93445  23265486.429    23265498.850
       217.000         162.000
  21735929.474     1693352.90849   1319861.95446  21735929.749    21735941.451
       230.000         185.000
 02  6 21 20 12 30.0000000  0  8G15G 3G21G18G31G14G 9G17
  21092647.127     1265703.57149    989077.66447  21092646.245    21092657.376
       240.000         202.000
  21791460.896     -726858.73749   -555032.69547  21791460.636    21791471.907
       236.000         193.000
  21278454.630     -489901.37349   -243601.16247  21278454.013    21278464.120
       243.000         207.000
  21606113.141     1530305.28849   1200463.30547  21606112.959    21606121.771
       238.000         196.000
  23707741.283    -2764845.44249  -2135613.34445  23707740.593    23707752.750
       203.000         145.000
  21120145.690    -3309826.37149  -2555764.52447  21120144.888    21120154.916
       240.000         203.000
  23263757.158    -1072582.04949   -825705.48846  23263757.166    23263770.265
       220.000         163.000
  21747062.857     1751858.50049   1365450.62146  21747062.572    21747074.625
       230.000         184.000
 02  6 21 20 13  0.0000000  0  8G15G 3G21G18G31G14G 9G17
  21101577.243     1312631.52649   1025644.84947  21101576.702    21101587.488
       241.000         201.000
  21791617.615     -726035.03749   -554390.89147  21791617.427    21791628.292
       236.000         193.000
  21277993.393     -492324.95749   -245489.67147  21277992.782    21278002.931
       243.000         207.000
  21615333.439     1578758.75149   1238219.18947  21615333.106    21615342.751
       237.000         197.000
  23695585.232    -2828724.74649  -2185389.38645  23695585.448    23695597.805
       209.000         147.000
  21107368.136    -3376972.11149  -2608085.80547  21107367.494    21107377.363
       239.000         202.000
  23262131.960    -1081122.95749   -832360.67545  23262131.092    23262144.361
       219.000         162.000
  21758264.165     1810721.47349   1411317.77046  21758264.167    21758276.101
       230.000         183.000
 02  6 21 20 13 30.0000000  0  8G15G 3G21G18G31G14G 9G17
  21110578.524     1359933.16149   1062503.21647  21110577.911    21110588.525
       241.000         202.000
  21791879.626     -724658.33949   -553318.17847  21791879.116    21791890.226
       236.000         193.000
  21277553.466     -494636.92049   -247291.21247  21277553.226    21277563.089
       243.000         208.000
  21624574.391     1627319.98449   1276059.05347  21624574.509    21624584.214
       239.000         197.000
  23683515.416    -2892154.19949  -2234814.91845  23683515.683    23683527.698
       212.000         150.000
  21094676.449    -3443666.81949  -2660055.62347  21094675.750    21094685.814
       239.000         202.000
  23260610.470    -1089117.25549   -838589.98346  23260609.375    23260622.988
       220.000         163.000
  21769533.397     1869941.14249   1457462.87946  21769533.695    21769544.917
       230.000         183.000
 02  6 21 20 14  0.0000000  0  8G15G 3G21G18G31G14G 9G17
  21119650.967     1407609.03649   1099653.18347  21119650.410    21119661.117
       240.000         201.000
  21792246.937     -722728.53449   -551814.48047  21792246.452    21792257.609
       236.000         193.000
  21277134.728     -496837.62149   -249006.05047  21277134.266    21277144.240
       243.000         208.000
  21633835.911     1675988.83549   1313982.78247  21633835.907    21633845.424
       239.000         197.000
  23671531.572    -2955131.50949  -2283888.12445  23671530.520    23671544.199
       210.000         153.000
  21082071.017    -3509908.57049  -2711672.50247  21082070.616    21082080.524
       240.000         203.000
  23259193.400    -1096563.25149   -844392.03246  23259193.336    23259206.374
       222.000         163.000
  21780870.737     1929518.20849   1503886.46946  21780870.707    21780882.367
       229.000         182.000
 02  6 21 20 14 30.0000000  0  8G15G 3G21G18G31G14G 9G17
  21128794.763     1455659.81949   1137095.29247  21128794.050    21128804.871
       240.000         201.000
  21792719.424     -720245.46349   -549879.66047  21792719.194    21792730.477
       236.000         193.000
  21276737.133     -498926.84349   -250634.01747  21276736.472    21276746.821
       243.000         207.000
  21643117.914     1724764.95349   1351990.10247  21643117.721    21643126.951
       240.000         198.000
  23659633.804    -3017654.38749  -2332607.23445  23659633.946    23659646.237
       212.000         154.000
  21069552.180    -3575695.44449  -2762934.92647  21069551.703    21069561.692
       241.000         204.000
  23257881.114    -1103459.30449   -849765.55846  23257880.874    23257893.913
       221.000         164.000
  21792276.003     1989452.86849   1550588.69346  21792275.861    21792288.433
       229.000         182.000
 02  6 21 20 15  0.0000000  0  8G15G 3G21G18G31G14G 9G17
  21138009.960     1504085.62049   1174829.62647  21138009.311    21138020.171
       241.000         201.000
  21793297.089     -717209.89149   -547514.32847  21793296.805    21793307.894
       235.000         193.000
  21276360.662     -500905.08249   -252175.50347  21276359.933    21276370.383
       243.000         207.000
  21652420.046     1773647.83449   1390080.60647  21652419.472    21652429.258
       237.000         197.000
  23647823.006    -3079720.82749  -2380970.66445  23647822.213    23647834.433
       211.000         153.000
  21057120.204    -3641025.75249  -2813841.59247  21057119.819    21057129.649
       242.000         204.000
  23256673.798    -1109803.88949   -854709.36446  23256673.970    23256686.747
       224.000         164.000
  21803749.276     2049745.15849   1597569.58146  21803748.799    21803761.796
       229.000         183.000
 02  6 21 20 15 30.0000000  0  8G15G 3G21G18G31G14G 9G17
  21147296.597     1552886.46649   1212856.20447  21147296.311    21147307.008
       241.000         201.000
  21793979.895     -713622.00149   -544718.61947  21793979.702    21793990.731
       235.000         192.000
  21276005.250     -502772.59749   -253630.71647  21276004.918    21276015.306
       243.000         207.000
  21661742.288     1822636.75749   1428253.73547  21661741.758    21661751.403
       238.000         196.000
  23636099.266    -3141328.98349  -2428976.99745  23636097.510    23636110.930
       208.000         150.000
  21044775.435    -3705898.25449  -2864391.52747  21044775.085    21044784.860
       241.000         205.000
  23255571.632    -1115596.08549   -859222.72446  23255570.943    23255585.138
       222.000         164.000
  21815290.544     2110395.02649   1644829.11046  21815290.239    21815302.719
       229.000         183.000
 02  6 21 20 16  0.0000000  0  8G15G 3G21G18G31G14G 9G17
  21156654.550     1602062.23949   1251174.91847  21156653.883    21156664.688
       240.000         201.000
  21794767.586     -709482.75749   -541493.27747  21794767.167    21794778.538
       235.000         192.000
  21275670.841     -504529.86149   -255000.02147  21275670.260    21275680.366
       243.000         207.000
  21671084.635     1871730.94749   1466508.88847  21671084.580    21671093.643
       239.000         197.000
  23624463.149    -3202477.12949  -2476624.84045  23624462.085    23624475.432
       208.000         149.000
  21032517.946    -3770311.61549  -2914583.68747  21032517.531    21032526.794
       241.000         205.000
  23254574.646    -1120834.79949   -863304.81646  23254574.493    23254587.018
       220.000         164.000
  21826899.927     2171402.04949   1692366.94746  21826899.672    21826911.980
       229.000         182.000
 02  6 21 20 16 30.0000000  0  8G15G 3G21G18G31G14G 9G17
  21166084.536     1651617.12749   1289789.03847  21166083.825    21166094.801
       239.000         200.000
  21795660.839     -704788.68649   -537835.60247  21795660.638    21795671.474
       235.000         192.000
  21275358.104     -506173.32949   -256280.64947  21275357.726    21275367.704
       243.000         207.000
  21680447.746     1920933.86049   1504848.76247  21680447.129    21680457.042
       237.000         197.000
  23612915.615    -3263159.12049  -2523909.47645  23612914.799    23612928.218
       211.000         151.000
  21020348.952    -3834260.15949  -2964413.65347  21020348.326    21020357.643
       241.000         205.000
  23253683.877    -1125514.78249   -866951.53246  23253683.720    23253697.025
       220.000         163.000
  21838577.979     2232770.30749   1740186.26946  21838577.367    21838590.087
       229.000         181.000
 02  6 21 20 17  0.0000000  0  8G15G 3G21G18G31G14G 9G17
  21175585.750     1701546.28449   1328694.80447  21175585.207    21175596.075
       240.000         201.000
  21796658.633     -699545.16949   -533749.78947  21796658.257    21796669.094
       235.000         192.000
  21275066.008     -507708.59149   -257476.95647  21275065.399    21275075.426
       243.000         207.000
  21689830.320     1970239.77149   1543268.89447  21689829.973    21689839.909
       237.000         196.000
  23601456.220    -3323378.17949  -2570833.41145  23601456.402    23601469.130
       215.000         153.000
  21008267.694    -3897747.66549  -3013884.36847  21008267.289    21008276.548
       242.000         205.000
  23252898.846    -1129640.07349   -870166.03546  23252898.353    23252912.063
       222.000         164.000
  21850323.746     2294494.78549   1788283.16846  21850323.206    21850336.118
       228.000         180.000
 02  6 21 20 17 30.0000000  0  8G15G 3G21G18G31G14G 9G17
  21185158.028     1751848.55249   1367891.29647  21185157.161    21185168.569
       239.000         201.000
  21797760.821     -693753.68349   -529236.99347  21797760.295    21797771.171
       235.000         191.000
  21274794.058     -509137.51149   -258590.40547  21274793.697    21274803.522
       243.000         207.000
  21699232.270     2019646.91849   1581767.92047  21699232.274    21699241.390
       239.000         195.000
  23590085.125    -3383133.60249  -2617396.06845  23590085.334    23590098.481
       218.000         155.000
  20996274.217    -3960773.83749  -3062995.60747  20996273.402    20996282.928
       241.000         205.000
  23252219.595    -1133210.39949   -872948.07446  23252219.354    23252233.078
       222.000         166.000
  21862137.054     2356574.16149   1836656.60246  21862136.678    21862148.697
       227.000         180.000
 02  6 21 20 18  0.0000000  0  8G15G 3G21G18G31G14G 9G17
  21194801.509     1802525.51649   1407379.74847  21194800.765    21194811.963
       237.000         200.000
  21798967.206     -687413.77649   -524296.85847  21798966.659    21798978.180
       234.000         191.000
  21274542.574     -510459.14349   -259620.25847  21274542.321    21274552.196
       243.000         207.000
  21708653.692     2069156.20049   1620346.52847  21708653.342    21708662.844
       238.000         195.000
  23578802.721    -3442422.27749  -2663595.03945  23578801.685    23578815.568
       213.000         155.000
  20984368.905    -4023335.96549  -3111745.25447  20984368.254    20984377.636
       241.000         205.000
  23251646.270    -1136223.37749   -875295.82846  23251645.701    23251659.579
       222.000         167.000
  21874018.245     2419009.69649   1885307.56846  21874018.622    21874031.426
       228.000         180.000
 02  6 21 20 18 30.0000000  0  8G15G 3G21G18G31G14G 9G17
  21204516.187     1853576.56449   1447159.71047  21204515.569    21204526.355
       238.000         199.000
  21800277.862     -680526.35849   -518930.08247  21800277.832    21800288.777
       235.000         191.000
  21274311.453     -511673.82349   -260566.77147  21274310.821    21274321.075
       243.000         207.000
  21718094.230     2118766.62949   1659003.95147  21718093.836    21718103.472
       237.000         195.000
  23567609.393    -3501242.67949  -2709429.10145  23567608.514    23567621.742
       216.000         154.000
  20972552.106    -4085432.89549  -3160132.40747  20972551.185    20972561.179
       241.000         206.000
  23251179.095    -1138678.35049   -877208.78946  23251178.864    23251192.271
       223.000         167.000
  21885967.173     2481800.80949   1934235.60146  21885966.940    21885979.809
       228.000         180.000
 02  6 21 20 19  0.0000000  0  8G15G 3G21G18G31G14G 9G17
  21214302.286     1905002.59449   1487231.87147  21214301.725    21214312.892
       239.000         199.000
  21801692.862     -673091.11149   -513136.43147  21801692.612    21801703.402
       235.000         191.000
  21274100.658     -512781.28249   -261429.73747  21274100.157    21274109.870
       243.000         207.000
  21727554.124     2168478.50149   1697740.41247  21727553.758    21727563.070
       237.000         194.000
  23556505.619    -3559592.15749  -2754896.18245  23556505.790    23556517.499
       218.000         154.000
  20960824.177    -4147062.67349  -3208155.54447  20960823.334    20960833.312
       240.000         206.000
  23250818.331    -1140573.54549   -878685.54546  23250817.704    23250831.378
       222.000         165.000
  21897983.866     2544948.26649   1983441.31046  21897984.091    21897996.014
       227.000         180.000
 02  6 21 20 19 30.0000000  0  8G15G 3G21G18G31G14G 9G17
  21224159.613     1956803.02449   1527595.76647  21224159.080    21224170.546
       240.000         201.000
  21803211.836     -665109.45249   -506916.99247  21803211.841    21803222.165
       234.000         191.000
  21273910.154     -513782.60949   -262209.99347  21273909.609    21273919.601
       243.000         207.000
  21737033.082     2218290.59349   1736554.98147  21737032.835    21737041.995
       237.000         193.000
  23545492.080    -3617469.57649  -2799995.46045  23545492.884    23545504.691
       217.000         156.000
  20949185.360    -4208224.43549  -3255813.98847  20949184.671    20949194.590
       241.000         206.000
  23250564.276    -1141908.51949   -879725.77446  23250564.499    23250576.357
       221.000         167.000
  21910068.046     2608451.23949   2032924.04546  21910067.466    21910081.203
       228.000         181.000
 02  6 21 20 20  0.0000000  0  8G15G 3G21G18G31G14G 9G17
  21234088.197     2008977.55049   1568251.16247  21234087.757    21234098.943
       239.000         201.000
  21804834.353     -656582.60149   -500272.72647  21804834.018    21804845.301
       235.000         191.000
  21273739.575     -514678.82649   -262908.35747  21273739.267    21273749.107
       243.000         207.000
  21746530.922     2268201.67849   1775446.68547  21746531.130    21746540.493
       238.000         194.000
  23534568.747    -3674873.47749  -2844725.75145  23534568.897    23534582.051
       220.000         156.000
  20937635.866    -4268917.33049  -3303107.09947  20937635.287    20937644.789
       241.000         206.000
  23250417.008    -1142682.72149   -880329.02646  23250415.982    23250429.386
       221.000         167.000
  21922219.873     2672309.04949   2082683.26946  21922220.093    21922232.050
       227.000         181.000
 02  6 21 20 20 30.0000000  0  8G15G 3G21G18G31G14G 9G17
  21244087.952     2061526.52349   1609198.32547  21244087.364    21244098.755
       238.000         199.000
  21806560.763     -647510.77749   -493203.80947  21806560.552    21806571.790
       236.000         192.000
  21273589.182     -515469.55049   -263524.51147  21273588.771    21273598.878
       243.000         207.000
  21756047.624     2318211.79349   1814415.56047  21756046.932    21756056.896
       237.000         193.000
  23523735.906    -3731801.81649  -2889085.49845  23523735.986    23523748.708
       220.000         155.000
  20926175.885    -4329139.70949  -3350033.56647  20926175.150    20926185.236
       241.000         206.000
  23250376.588    -1142894.51549   -880494.05046  23250375.180    23250389.013
       218.000         166.000
  21934439.366     2736522.04949   2132719.24946  21934439.514    21934451.631
       227.000         181.000
 02  6 21 20 21  0.0000000  0  8G15G 3G21G18G31G14G 9G17
  21254159.071     2114450.06449   1650437.37947  21254158.592    21254170.091
       240.000         199.000
  21808390.733     -637894.67149   -485710.77047  21808390.725    21808401.522
       237.000         193.000
  21273458.774     -516155.02049   -264058.64247  21273458.181    21273468.304
       243.000         207.000
  21765583.054     2368320.60749   1853461.33147  21765582.431    21765592.704
       236.000         193.000
  23512993.765    -3788252.64849  -2933073.16545  23512993.343    23513005.719
       218.000         154.000
  20914805.640    -4388890.17149  -3396592.30047  20914804.802    20914815.048
       240.000         206.000
  23250443.353    -1142542.96749   -880220.11246  23250444.043    23250456.604
       219.000         167.000
  21946726.403     2801090.06549   2183031.85646  21946726.417    21946738.508
       228.000         181.000
 02  6 21 20 21 30.0000000  0  8G15G 3G21G18G31G14G 9G17
  21264301.441     2167747.80849   1691968.01947  21264300.691    21264311.766
       239.000         198.000
  21810324.056     -627735.21049   -477794.34247  21810324.207    21810334.908
       236.000         193.000
  21273348.214     -516735.91249   -264511.29047  21273347.828    21273357.579
       243.000         207.000
  21775137.051     2418527.18349   1892583.28147  21775136.457    21775146.038
       237.000         193.000
  23502342.750    -3844224.41349  -2976687.52145  23502342.647    23502353.956
       218.000         153.000
  20903525.380    -4448167.58249  -3442782.42847  20903524.811    20903534.550
       241.000         206.000
  23250617.732    -1141627.59749   -879506.83346  23250617.622    23250630.990
       220.000         167.000
  21959080.847     2866012.72849   2233620.84046  21959080.145    21959092.795
       227.000         181.000
 02  6 21 20 22  0.0000000  0  8G15G 3G21G18G31G14G 9G17
  21274514.992     2221420.33549   1733790.69847  21274514.320    21274525.396
       239.000         198.000
  21812360.692     -617032.59649   -469454.68247  21812360.487    21812371.767
       236.000         193.000
  21273257.629     -517211.93149   -264882.21947  21273257.081    21273266.984
       243.000         207.000
  21784709.700     2468831.68749   1931781.53847  21784709.489    21784719.273
       236.000         193.000
  23491782.988    -3899714.89949  -3019926.82145  23491781.018    23491794.544
       211.000         151.000
  20892335.660    -4506970.19149  -3488602.57547  20892335.297    20892344.859
       241.000         207.000
  23250899.494    -1140146.79349   -878352.92946  23250898.828    23250912.258
       223.000         168.000
  21971502.766     2931290.43949   2284486.49246  21971502.345    21971514.457
       227.000         180.000
 02  6 21 20 22 30.0000000  0  8G15G 3G21G18G31G14G 9G17
  21284799.993     2275467.99849   1775905.67947  21284799.450    21284810.537
       239.000         198.000
  21814500.723     -605786.71749   -460691.69847  21814500.406    21814511.690
       235.000         193.000
  21273187.000     -517582.71449   -265171.14747  21273186.300    21273196.360
       242.000         207.000
  21794301.044     2519234.40249   1971056.32947  21794300.989    21794310.589
       237.000         193.000
  23481315.046    -3954721.64949  -3062789.19245  23481314.124    23481327.439
       211.000         151.000
  20881236.676    -4565296.06449  -3534051.23847  20881236.051    20881245.763
       241.000         207.000
  23251289.154    -1138099.04049   -876757.27046  23251288.768    23251302.531
       224.000         168.000
  21983992.227     2996923.53849   2335629.05846  21983992.119    21984005.125
       227.000         179.000
 02  6 21 20 23  0.0000000  0  8G15G 3G21G18G31G14G 9G17
  21295156.110     2329889.58949   1818312.03947  21295155.331    21295166.333
       238.000         198.000
  21816743.633     -593999.96849   -451507.26047  21816743.063    21816754.534
       235.000         192.000
  21273135.934     -517850.62549   -265379.91747  21273135.455    21273145.912
       243.000         207.000
  21803910.851     2569733.37549   2010406.12647  21803910.567    21803919.766
       237.000         192.000
  23470939.580    -4009244.39249  -3105274.40845  23470938.188    23470952.679
       209.000         152.000
  20870228.252    -4623145.19349  -3579128.41247  20870227.612    20870236.974
       241.000         207.000
  23251786.599    -1135485.02349   -874720.35846  23251786.933    23251799.502
       225.000         169.000
  21996549.298     3062910.67849   2387047.48746  21996549.616    21996562.354
       228.000         181.000
 02  6 21 20 23 30.0000000  0  8G15G 3G21G18G31G14G 9G17
  21305583.216     2384684.58349   1861009.35747  21305582.532    21305593.807
       238.000         197.000
  21819089.155     -581673.83949   -441902.52847  21819089.059    21819100.330
       235.000         192.000
  21273104.478     -518015.94549   -265508.74647  21273103.917    21273114.228
       243.000         207.000
  21813538.552     2620327.45449   2049830.04247  21813538.342    21813547.337
       236.000         191.000
  23460656.655    -4063282.06349  -3147381.66145  23460656.446    23460669.487
       212.000         153.000
  20859310.668    -4680517.24849  -3623833.85147  20859310.010    20859319.467
       242.000         207.000
  23252391.952    -1132304.40049   -872241.94546  23252391.854    23252404.614
       225.000         170.000
  22009173.707     3129250.73749   2438740.93346  22009173.876    22009186.849
       227.000         181.000
 02  6 21 20 24  0.0000000  0  8G15G 3G21G18G31G14G 9G17
  21316081.337     2439852.47649   1903997.25147  21316080.844    21316092.057
       238.000         197.000
  21821537.237     -568809.35349   -431878.28947  21821537.374    21821548.464
       236.000         193.000
  21273092.371     -518079.47349   -265558.25647  21273092.015    21273102.151
       243.000         207.000
  21823184.198     2671015.86249   2089327.45847  21823184.044    21823193.346
       236.000         191.000
  23450466.193    -4116833.37849  -3189109.90345  23450466.680    23450479.394
       212.000         154.000
  20848484.048    -4737411.21949  -3668166.74847  20848483.485    20848492.885
       241.000         208.000
  23253105.163    -1128556.93249   -869321.83746  23253105.420    23253118.903
       226.000         169.000
  22021864.833     3195943.15649   2490708.91746  22021864.361    22021878.099
       223.000         180.000
 02  6 21 20 24 30.0000000  0  8G15G 3G21G18G31G14G 9G17
  21326650.656     2495394.43849   1947276.62547  21326650.417    21326661.407
       238.000         197.000
  21824087.832     -555406.08949   -421434.23847  21824087.948    21824099.072
       236.000         193.000
  21273099.925     -518040.39349   -265527.81347  21273099.630    21273109.368
       243.000         207.000
  21832848.061     2721799.25449   2128898.87847  21832847.704    21832856.851
       236.000         191.000
  23440368.663    -4169895.30849  -3230456.84145  23440368.261    23440382.355
       213.000         154.000
  20837748.904    -4793824.68849  -3712125.22747  20837748.307    20837757.559
       241.000         208.000
  23253926.654    -1124240.19949   -865958.15346  23253925.772    23253938.458
       224.000         170.000
  22034623.231     3262989.09949   2542952.37346  22034622.958    22034635.995
       223.000         178.000
 02  6 21 20 25  0.0000000  0  8G15G 3G21G18G31G14G 9G17
  21337291.118     2551309.77749   1990846.94447  21337290.531    21337302.274
       238.000         198.000
  21826740.674     -541465.35249   -410571.37047  21826740.452    21826751.780
       236.000         193.000
  21273126.867     -517899.16349   -265417.76847  21273126.731    21273136.628
       243.000         207.000
  21842529.788     2772677.12349   2168543.92147  21842529.561    21842538.770
       235.000         191.000
  23430364.861    -4222466.53849  -3271421.43845  23430364.696    23430378.177
       215.000         154.000
  20827105.265    -4849756.85949  -3755708.67147  20827104.655    20827114.183
       242.000         208.000
  23254856.426    -1119353.76949   -862150.53246  23254855.698    23254868.627
       224.000         169.000
  22047448.880     3330387.91649   2595470.79546  22047449.668    22047461.301
       224.000         177.000
 02  6 21 20 25 30.0000000  0  8G15G 3G21G18G31G14G 9G17
  21348002.364     2607597.38049   2034707.33347  21348001.696    21348013.281
       238.000         199.000
  21829495.362     -526989.56549   -399291.57847  21829495.425    21829506.702
       236.000         192.000
  21273172.925     -517657.12349   -265229.17147  21273172.299    21273182.697
       242.000         207.000
  21852229.123     2823647.80149   2208261.28747  21852229.047    21852238.489
       235.000         190.000
  23420454.638    -4274546.81449  -3312003.46045  23420454.787    23420466.195
       213.000         153.000
  20816553.251    -4905207.80049  -3798917.13447  20816552.800    20816562.041
       242.000         208.000
  23255894.513    -1113898.39049   -857899.57846  23255894.269    23255907.506
       221.000         168.000
  22060341.433     3398137.92049   2648262.88546  22060341.433    22060354.384
       225.000         177.000
 02  6 21 20 26  0.0000000  0  8G15G 3G21G18G31G14G 9G17
  21358784.463     2664257.81849   2078858.24447  21358783.882    21358795.609
       238.000         198.000
  21832351.870     -511978.93449   -387595.03547  21832351.637    21832363.480
       236.000         193.000
  21273238.150     -517314.24149   -264961.99147  21273237.474    21273247.712
       243.000         207.000
  21861946.175     2874711.18849   2248050.86947  21861946.190    21861955.614
       236.000         191.000
  23410638.052    -4326133.95449  -3352201.23245  23410635.714    23410649.751
       208.000         152.000
  20806093.210    -4960175.83349  -3841749.31147  20806092.742    20806102.008
       242.000         209.000
  23257041.011    -1107872.67849   -853204.20746  23257040.646    23257054.199
       220.000         166.000
  22073300.847     3466239.49849   2701328.92446  22073300.832    22073313.343
       224.000         177.000
 02  6 21 20 26 30.0000000  0  8G15G 3G21G18G31G14G 9G17
  21369637.656     2721291.51149   2123300.00447  21369637.238    21369648.279
       238.000         198.000
  21835310.136     -496433.65149   -375481.86647  21835310.559    21835321.635
       236.000         193.000
  21273322.653     -516869.91649   -264615.77347  21273321.926    21273331.945
       242.000         207.000
  21871681.149     2925867.86949   2287913.17447  21871681.260    21871690.562
       238.000         192.000
  23400915.346    -4377225.50349  -3392012.81245  23400916.023    23400926.749
       211.000         151.000
  20795725.356    -5014659.10949  -3884203.74647  20795724.809    20795734.185
       242.000         208.000
  23258296.534    -1101275.16749   -848063.29846  23258296.686    23258309.450
       219.000         165.000
  22086327.196     3534693.03949   2754669.21446  22086327.054    22086340.528
       224.000         176.000
 02  6 21 20 27  0.0000000  0  8G15G 3G21G18G31G14G 9G17
  21380561.821     2778697.66749   2168032.00647  21380561.525    21380572.731
       238.000         197.000
  21838369.787     -480355.64849   -362953.58747  21838369.611    21838381.208
       236.000         193.000
  21273426.297     -516325.04849   -264191.20247  21273425.624    21273435.865
       242.000         206.000
  21881433.590     2977116.11649   2327846.82847  21881433.269    21881442.874
       237.000         193.000
  23391287.293    -4427820.92349  -3431437.79145  23391287.109    23391300.355
       214.000         154.000
  20785449.790    -5068657.34749  -3926280.23147  20785449.093    20785458.683
       241.000         209.000
  23259660.765    -1094106.07849   -842476.98646  23259661.881    23259673.035
       221.000         165.000
  22099420.308     3603497.32949   2808282.83146  22099420.100    22099433.507
       224.000         175.000
 02  6 21 20 27 30.0000000  0  8G15G 3G21G18G31G14G 9G17
  21391556.811     2836476.02249   2213054.01447  21391556.504    21391567.120
       238.000         197.000
  21841530.563     -463745.82749   -350010.92247  21841530.383    21841541.389
       236.000         192.000
  21273549.013     -515680.12949   -263688.66747  21273548.659    21273558.476
       243.000         206.000
  21891203.248     3028455.80349   2367851.73747  21891202.846    21891212.299
       236.000         192.000
  23381754.154    -4477918.44949  -3470474.80945  23381754.368    23381766.120
       216.000         157.000
  20775266.698    -5122169.47849  -3967977.93347  20775266.103    20775275.288
       242.000         209.000
  23261134.077    -1086364.78749   -836444.79046  23261132.633    23261146.155
       221.000         165.000
  22112580.208     3672652.17649   2862169.60546  22112579.790    22112592.966
       223.000         174.000
 02  6 21 20 28  0.0000000  0  8G15G 3G21G18G31G14G 9G17
  21402622.399     2894625.98449   2258365.59447  21402621.424    21402633.410
       237.000         197.000
  21844792.259     -446605.70049   -336655.01247  21844792.065    21844803.391
       236.000         192.000
  21273690.717     -514935.52149   -263108.44547  21273690.401    21273700.362
       243.000         207.000
  21900990.039     3079885.95649   2407927.13347  21900989.450    21901000.060
       236.000         192.000
  23372316.098    -4527517.21249  -3509123.17945  23372316.272    23372328.217
       219.000         161.000
  20765176.194    -5175195.17749  -4009296.60447  20765175.688    20765184.640
       242.000         209.000
  23262715.918    -1078051.18049   -829966.65346  23262715.387    23262727.908
       221.000         165.000
  22125806.521     3742156.63749   2916328.81446  22125805.943    22125819.098
       223.000         173.000
 02  6 21 20 28 30.0000000  0  8G15G 3G21G18G31G14G 9G17
  21413758.743     2953147.64549   2303966.80947  21413758.024    21413769.793
       237.000         196.000
  21848154.822     -428935.89749   -322886.37747  21848154.657    21848165.908
       238.000         193.000
  21273851.407     -514091.29249   -262450.60047  21273851.179    21273861.300
       243.000         207.000
  21910794.042     3131406.73849   2448073.15947  21910793.563    21910803.642
       236.000         192.000
  23362973.329    -4576615.17049  -3547381.30646  23362972.850    23362985.121
       220.000         164.000
  20755178.533    -5227732.93849  -4050235.06947  20755177.729    20755187.032
       242.000         209.000
  23264406.957    -1069164.26749   -823041.77646  23264406.906    23264420.348
       219.000         165.000
  22139099.415     3812010.82449   2970760.52646  22139099.191    22139112.100
       224.000         174.000
 02  6 21 20 29  0.0000000  0  8G15G 3G21G18G31G14G 9G17
  21424965.810     3012040.80749   2349857.51347  21424965.225    21424976.591
       237.000         195.000
  21851617.945     -410737.55549   -308705.88847  21851617.890    21851629.146
       237.000         193.000
  21274030.982     -513147.79749   -261715.40347  21274030.395    21274040.555
       242.000         207.000
  21920615.260     3183017.59449   2488289.36147  21920615.004    21920624.304
       236.000         191.000
  23353725.913    -4625211.05049  -3585248.21546  23353724.943    23353737.571
       220.000         164.000
  20745273.957    -5279781.49849  -4090792.32947  20745273.336    20745282.664
       241.000         209.000
  23266207.108    -1059703.78149   -815669.96246  23266206.740    23266219.399
       220.000         165.000
  22152458.748     3882214.20749   3025464.32746  22152458.842    22152471.334
       224.000         175.000
 02  6 21 20 29 30.0000000  0  8G15G 3G21G18G31G14G 9G17
  21436243.469     3071305.19249   2396037.48847  21436242.728    21436254.208
       236.000         194.000
  21855181.393     -392011.62949   -294114.30647  21855180.743    21855192.957
       235.000         193.000
  21274229.383     -512105.02949   -260902.85047  21274228.828    21274238.553
       242.000         207.000
  21930453.515     3234718.08049   2528575.41947  21930453.443    21930463.046
       236.000         190.000
  23344574.271    -4673303.01149  -3622722.44646  23344572.938    23344586.252
       219.000         164.000
  20735462.612    -5331339.99449  -4130967.73047  20735462.148    20735471.022
       242.000         209.000
  23268116.643    -1049669.14549   -807850.76846  23268115.579    23268129.390
       221.000         165.000
  22165884.639     3952766.67649   3080440.15246  22165884.717    22165897.013
       226.000         177.000
 02  6 21 20 30  0.0000000  0  8G15G 3G21G18G31G14G 9G17
  21447591.689     3130940.52749   2442506.50847  21447590.742    21447602.703
       236.000         194.000
  21858844.826     -372759.76449   -279112.90547  21858844.387    21858856.437
       236.000         192.000
  21274446.578     -510963.52149   -260013.35747  21274446.147    21274455.895
       243.000         207.000
  21940308.833     3286507.77949   2568930.99647  21940308.341    21940318.448
       236.000         190.000
  23335518.502    -4720890.14449  -3659803.30145  23335517.587    23335530.141
       218.000         162.000
  20725744.685    -5382407.87449  -4170760.83147  20725743.986    20725753.290
       242.000         209.000
  23270135.520    -1039059.82649   -799583.76646  23270135.550    23270148.361
       222.000         166.000
  22179376.790     4023667.34249   3135687.30446  22179376.217    22179389.620
       225.000         178.000
 02  6 21 20 30 30.0000000  0  8G15G 3G21G18G31G14G 9G17
  21459010.504     3190946.44749   2489264.29047  21459010.376    21459021.492
       237.000         194.000
  21862608.241     -352983.05749   -263702.51947  21862607.742    21862619.606
       237.000         192.000
  21274682.490     -509723.80349   -259047.34147  21274681.934    21274691.794
       243.000         207.000
  21950181.055     3338386.28549   2609355.76847  21950180.656    21950190.322
       236.000         190.000
  23326559.158    -4767971.09749  -3696489.73845  23326559.009    23326571.008
       219.000         161.000
  20716120.308    -5432984.34649  -4210171.01647  20716119.989    20716129.007
       242.000         209.000
  23272263.848    -1027875.71149   -790868.85946  23272262.968    23272277.258
       221.000         167.000
  22192934.914     4094915.57849   3191205.28046  22192934.271    22192947.966
       225.000         178.000
 02  6 21 20 31  0.0000000  0  8G15G 3G21G18G31G14G 9G17
  21470499.841     3251322.85949   2536310.77647  21470499.502    21470510.564
       237.000         195.000
  21866471.421     -332682.36449   -247883.83547  21866471.227    21866483.131
       236.000         192.000
  21274937.127     -508385.66749   -258004.63647  21274936.548    21274946.654
       243.000         207.000
  21960070.053     3390353.11049   2649849.35047  21960070.060    21960079.265
       236.000         189.000
  23317696.516    -4814544.19349  -3732780.45645  23317695.315    23317707.301
       218.000         160.000
  20706589.732    -5483067.86749  -4249197.08947  20706589.317    20706598.210
       242.000         209.000
  23274501.675    -1016115.91149   -781705.38346  23274500.589    23274514.790
       223.000         167.000
  22206559.138     4166511.42349   3246994.12746  22206558.489    22206572.338
       225.000         177.000
 02  6 21 20 31 30.0000000  0  8G15G 3G21G18G31G14G 9G17
  21482059.613     3312069.12149   2583645.44347  21482059.410    21482070.132
       236.000         193.000
  21870433.823     -311859.26749   -231658.09447  21870433.314    21870445.194
       235.000         192.000
  21275210.280     -506949.94849   -256885.89547  21275209.959    21275220.295
       242.000         207.000
  21969975.815     3442408.00149   2690411.56447  21969975.712    21969985.032
       236.000         189.000
  23308930.622    -4860608.26749  -3768674.52945  23308929.564    23308942.620
       220.000         160.000
  20697153.093    -5532657.93649  -4287838.64547  20697152.599    20697161.900
       242.000         209.000
  23276848.979    -1003780.46149   -772093.34546  23276848.593    23276862.068
       222.000         166.000
  22220249.340     4238454.12349   3303053.25746  22220249.321    22220262.662
       224.000         175.000
 02  6 21 20 32  0.0000000  0  8G15G 3G21G18G31G14G 9G17
  21493689.630     3373184.88249   2631268.03547  21493689.139    21493700.396
       236.000         192.000
  21874495.421     -290515.20149   -215026.40947  21874495.382    21874506.811
       235.000         192.000
  21275502.067     -505416.59149   -255691.06247  21275501.657    21275511.901
       243.000         207.000
  21979898.258     3494550.29949   2731041.88447  21979898.033    21979907.533
       236.000         189.000
  23300262.004    -4906162.18049  -3804171.06845  23300261.125    23300273.694
       220.000         160.000
  20687810.438    -5581753.81249  -4326095.11447  20687809.777    20687818.808
       242.000         210.000
  23279306.000     -990868.73349   -762032.25746  23279305.332    23279318.424
       221.000         166.000
  22234005.593     4310743.05849   3359382.16846  22234005.538    22234017.949
       224.000         173.000
 02  6 21 20 32 30.0000000  0  8G15G 3G21G18G31G14G 9G17
  21505389.807     3434669.37449   2679177.96347  21505389.139    21505400.546
       236.000         193.000
  21878655.938     -268651.82149   -197990.06747  21878655.692    21878667.647
       236.000         192.000
  21275812.359     -503786.13449   -254420.57847  21275811.912    21275821.876
       242.000         207.000
  21989837.114     3546779.05749   2771739.56447  21989837.412    21989846.484
       237.000         189.000
  23291690.543    -4951205.01849  -3839269.37845  23291690.088    23291702.006
       220.000         160.000
  20678561.867    -5630355.20649  -4363966.27247  20678561.210    20678570.279
       242.000         210.000
  23281872.512     -977381.29649   -751522.59946  23281871.766    23281884.852
       221.000         165.000
  22247827.657     4383377.21649   3415980.06346  22247828.009    22247840.303
       224.000         171.000
 02  6 21 20 33  0.0000000  0  8G15G 3G21G18G31G14G 9G17
  21517159.996     3496522.11149   2727374.82947  21517159.261    21517170.981
       238.000         193.000
  21882915.007     -246270.57849   -180550.20047  21882914.813    21882926.504
       236.000         192.000
  21276141.044     -502058.97849   -253074.74247  21276140.664    21276150.661
       243.000         207.000
  21999792.509     3599093.69449   2812504.17247  21999792.770    21999801.765
       237.000         190.000
  23283216.554    -4995735.75049  -3873968.61945  23283216.665    23283228.848
       220.000         160.000
  20669407.452    -5678461.62349  -4401451.73647  20669406.717    20669416.090
       242.000         210.000
  23284548.647     -963318.07749   -740564.25146  23284548.343    23284561.632
       222.000         165.000
  22261715.269     4456355.86049   3472846.40446  22261714.846    22261728.256
       222.000         170.000
 02  6 21 20 33 30.0000000  0  8G15G 3G21G18G31G14G 9G17
  21529000.375     3558743.48249   2775858.93247  21528999.774    21529011.531
       237.000         194.000
  21887272.507     -223371.74849   -162707.01347  21887272.507    21887284.051
       237.000         192.000
  21276488.290     -500234.44149   -251653.02847  21276487.944    21276497.661
       243.000         207.000
  22009764.213     3651494.73949   2853336.10847  22009764.167    22009773.495
       235.000         190.000
  23274840.506    -5039752.31449  -3908267.21745  23274840.014    23274853.394
       218.000         161.000
  20660347.540    -5726071.27249  -4438550.10447  20660346.660    20660356.226
       241.000         209.000
  23287334.495     -948677.67149   -729156.14946  23287334.044    23287347.572
       220.000         164.000
  22275668.249     4529679.23649   3529981.36846  22275667.606    22275681.920
       223.000         171.000
 02  6 21 20 34  0.0000000  0  8G15G 3G21G18G31G14G 9G17
  21540910.699     3621332.62349   2824629.60447  21540909.898    21540922.015
       234.000         193.000
  21891728.140     -199957.69049   -144462.35047  21891727.872    21891739.165
       237.000         192.000
  21276853.982     -498313.06749   -250155.85947  21276853.811    21276863.291
       244.000         207.000
  22019752.126     3703981.46649   2894234.81147  22019751.483    22019761.048
       235.000         190.000
  23266562.322    -5083253.96949  -3942164.59645  23266561.754    23266573.727
       218.000         160.000
  20651382.186    -5773183.98649  -4475261.25747  20651381.666    20651390.533
       241.000         209.000
  23290230.199     -933460.83949   -717298.90046  23290230.189    23290243.509
       222.000         163.000
  22289686.626     4603346.31149   3587384.14646  22289686.591    22289699.714
       225.000         173.000
 02  6 21 20 34 30.0000000  0  8G15G 3G21G18G31G14G 9G17
  21552890.941     3684289.37149   2873686.72047  21552890.684    21552902.228
       236.000         194.000
  21896281.578     -176029.38849   -125816.97747  21896281.330    21896292.593
       237.000         191.000
  21277237.997     -496295.25549   -248583.54447  21277237.545    21277247.563
       243.000         207.000
  22029756.202     3756553.59749   2935200.06247  22029755.408    22029765.361
       233.000         189.000
  23258382.613    -5126239.27849  -3975659.59045  23258381.737    23258394.780
       218.000         160.000
  20642511.679    -5819798.73949  -4511584.38147  20642511.287    20642520.409
       242.000         210.000
  23293235.841     -917666.96449   -704991.99846  23293235.698    23293249.833
       221.000         164.000
  22303770.519     4677356.77149   3645054.49546  22303770.541    22303783.716
       225.000         174.000
 02  6 21 20 35  0.0000000  0  8G15G 3G21G18G31G14G 9G17
  21564941.118     3747612.36949   2923029.22947  21564940.962    21564952.605
       239.000         196.000
  21900932.439     -151589.18249   -106772.72447  21900932.040    21900944.235
       237.000         191.000
  21277640.059     -494182.49949   -246937.24447  21277639.267    21277649.572
       242.000         207.000
  22039776.222     3809209.87949   2976230.88647  22039775.371    22039785.894
       233.000         188.000
  23250301.287    -5168708.00049  -4008752.06845  23250300.232    23250312.944
       220.000         160.000
  20633735.860    -5865915.83349  -4547519.72247  20633735.072    20633744.574
       241.000         210.000
  23296351.041     -901296.91449   -692236.13046  23296351.052    23296363.150
       221.000         164.000
  22317919.510     4751709.00849   3702991.15846  22317919.216    22317932.702
       224.000         173.000
 02  6 21 20 35 30.0000000  0  8G15G 3G21G18G31G14G 9G17
  21577060.968     3811301.56949   2972657.08847  21577060.372    21577072.022
       238.000         197.000
  21905680.607     -126637.99949    -87330.31047  21905680.693    21905692.265
       237.000         192.000
  21278060.108     -491974.55349   -245216.77747  21278059.216    21278069.621
       242.000         206.000
  22049812.321     3861950.29849   3017327.25446  22049811.853    22049821.259
       233.000         187.000
  23242318.378    -5210658.57049  -4041440.80945  23242318.378    23242330.021
       220.000         160.000
  20625054.805    -5911534.48949  -4583066.67547  20625054.042    20625063.212
       241.000         210.000
  23299575.918     -884350.20749   -679030.92246  23299576.549    23299588.686
       221.000         164.000
  22332133.323     4826402.64649   3761193.84046  22332133.126    22332146.315
       223.000         172.000
 02  6 21 20 36  0.0000000  0  8G15G 3G21G18G31G14G 9G17
  21589250.210     3875356.80549   3022570.17047  21589249.544    21589261.271
       237.000         196.000
  21910525.674     -101177.30349    -67490.86747  21910525.249    21910537.354
       236.000         191.000
  21278498.291     -489671.45449   -243422.16647  21278497.513    21278508.007
       242.000         207.000
  22059864.475     3914774.71849   3058489.08346  22059864.314    22059873.633
       233.000         186.000
  23234434.195    -5252089.67649  -4073724.78245  23234433.177    23234446.846
       218.000         161.000
  20616468.905    -5956653.53049  -4618224.31547  20616468.406    20616477.938
       241.000         210.000
  23302910.596     -866826.33749   -665375.98846  23302910.990    23302923.202
       222.000         164.000
  22346412.080     4901437.46549   3819662.38646  22346411.671    22346425.267
       221.000         171.000
 02  6 21 20 36 30.0000000  0  8G15G 3G21G18G31G14G 9G17
  21601509.247     3939778.07849   3072768.48647  21601508.897    21601520.845
       236.000         195.000
  21915467.439      -75207.92549    -47255.05647  21915467.148    21915479.191
       236.000         191.000
  21278954.723     -487272.63049   -241552.96547  21278954.426    21278964.450
       243.000         207.000
  22069932.592     3967683.01249   3099716.27246  22069932.304    22069941.862
       233.000         185.000
  23226649.157    -5292999.80349  -4105602.79545  23226648.436    23226661.238
       217.000         160.000
  20607978.347    -6001271.86249  -4652991.78747  20607977.774    20607986.714
       242.000         211.000
  23306355.297     -848724.87749   -651270.97546  23306355.366    23306368.180
       222.000         164.000
  22360755.596     4976813.28049   3878396.65346  22360754.941    22360769.603
       222.000         171.000
 02  6 21 20 37  0.0000000  0  8G15G 3G21G18G31G14G 9G17
  21613837.780     4004564.03849   3123250.96347  21613837.352    21613849.430
       236.000         194.000
  21920505.642      -48731.92349    -26624.47247  21920505.340    21920517.880
       234.000         190.000
  21279429.418     -484778.79749   -239609.72747  21279429.448    21279439.254
       244.000         207.000
  22080016.556     4020674.33949   3141008.16646  22080016.213    22080025.938
       233.000         186.000
  23218963.572    -5333388.43749  -4137074.42745  23218963.916    23218974.911
       217.000         160.000
  20599582.952    -6045389.75849  -4687369.31847  20599582.656    20599591.514
       241.000         211.000
  23309909.729     -830046.45849   -636716.38346  23309909.196    23309922.542
       223.000         165.000
  22375163.740     5052528.65749   3937395.49046  22375163.357    22375178.318
       221.000         171.000
 02  6 21 20 37 30.0000000  0  8G15G 3G21G18G31G14G 9G17
  21626235.665     4069714.73649   3174017.64947  21626235.059    21626247.496
       234.000         193.000
  21925640.001      -21750.49549     -5600.03847  21925640.215    21925651.916
       234.000         190.000
  21279922.259     -482189.58949   -237592.17147  21279922.126    21279931.909
       244.000         208.000
  22090116.335     4073749.04149   3182365.03446  22090116.161    22090125.810
       234.000         186.000
  23211377.335    -5373253.91349  -4168138.39445  23211376.438    23211389.416
       217.000         161.000
  20591283.068    -6089005.85849  -4721355.83647  20591282.602    20591291.646
       242.000         211.000
  23313573.931     -810790.40049   -621711.66846  23313573.349    23313587.675
       222.000         165.000
  22389636.673     5128583.59649   3996658.94746  22389637.127    22389650.615
       223.000         171.000
 02  6 21 20 38  0.0000000  0  8G15G 3G21G18G31G14G 9G17
  21638702.718     4135229.62749   3225068.11347  21638701.748    21638714.043
       234.000         192.000
  21930870.324        5734.80249     15817.01347  21930870.095    21930882.456
       234.000         189.000
  21280433.173     -479504.88449   -235500.20547  21280432.523    21280442.426
       243.000         207.000
  22100232.005     4126906.58849   3223786.44746  22100231.848    22100241.724
       234.000         187.000
  23203890.738    -5412595.42849  -4198794.10746  23203890.621    23203902.196
       219.000         163.000
  20583078.754    -6132119.81849  -4754951.06947  20583078.002    20583087.224
       242.000         211.000
  23317347.994     -790956.98049   -606257.08046  23317347.616    23317361.627
       222.000         165.000
  22404174.081     5204977.22449   4056186.29946  22404174.123    22404188.156
       221.000         171.000
 02  6 21 20 38 30.0000000  0  8G15G 3G21G18G31G14G 9G17
  21651238.886     4201108.00949   3276401.83847  21651237.840    21651250.338
       234.000         191.000
  21936196.117       33721.77749     37624.99047  21936196.327    21936207.650
       235.000         190.000
  21280962.006     -476725.67349   -233334.59147  21280961.477    21280971.742
       242.000         207.000
  22110363.252     4180146.22849   3265271.82447  22110363.004    22110373.462
       234.000         188.000
  23196504.254    -5451412.23549  -4229040.94646  23196504.244    23196515.835
       218.000         164.000
  20574969.999    -6174731.14949  -4788154.64547  20574969.455    20574978.391
       241.000         211.000
  23321232.006     -770546.62649   -590352.91246  23321231.487    23321245.609
       223.000         165.000
  22418775.627     5281708.50949   4115976.76846  22418774.945    22418789.685
       223.000         170.000
 02  6 21 20 39  0.0000000  0  8G15G 3G21G18G31G14G 9G17
  21663844.061     4267349.02949   3328018.11747  21663843.423    21663855.411
       233.000         191.000
  21941617.118       62208.62549     59822.47547  21941617.085    21941628.780
       235.000         190.000
  21281508.686     -473852.60449   -231095.85747  21281507.909    21281518.141
       242.000         206.000
  22120510.014     4233467.34849   3306820.68346  22120509.870    22120519.274
       233.000         187.000
  23189217.604    -5489703.73749  -4258878.44446  23189216.589    23189229.535
       220.000         164.000
  20566956.921    -6216840.01549  -4820966.69147  20566956.392    20566965.368
       242.000         211.000
  23325225.748     -749559.63749   -573999.43146  23325225.772    23325238.088
       222.000         165.000
  22433441.221     5358776.38349   4176029.50546  22433441.512    22433454.555
       222.000         169.000
 02  6 21 20 39 30.0000000  0  8G15G 3G21G18G31G14G 9G17
  21676518.224     4333952.18649   3379916.58147  21676517.839    21676529.562
       232.000         189.000
  21947132.902       91194.21149     82408.58047  21947132.666    21947144.551
       234.000         190.000
  21282073.273     -470885.40449   -228783.76347  21282072.598    21282082.827
       242.000         206.000
  22130672.148     4286869.84949   3348432.96446  22130671.605    22130681.720
       232.000         186.000
  23182031.218    -5527468.59649  -4288305.59646  23182031.014    23182042.398
       221.000         164.000
  20559039.703    -6258445.56249  -4853386.54047  20559039.293    20559048.130
       244.000         212.000
  23329329.292     -727995.86749   -557196.50846  23329329.811    23329342.082
       224.000         167.000
  22448170.853     5436180.36149   4236344.16246  22448171.125    22448184.677
       221.000         169.000
 02  6 21 20 40  0.0000000  0  8G15G 3G21G18G31G14G 9G17
  21689261.314     4400916.90549   3432096.79347  21689260.907    21689272.936
       233.000         188.000
  21952743.228      120676.70949    105381.89047  21952743.222    21952754.715
       235.000         189.000
  21282655.732     -467824.31149   -226398.49847  21282655.035    21282665.435
       242.000         206.000
  22140849.778     4340353.40349   3390108.39646  22140849.169    22140859.311
       232.000         185.000
  23174945.147    -5564706.13449  -4317321.85146  23174944.880    23174956.514
       219.000         163.000
  20551218.316    -6299547.18449  -4885413.72147  20551217.438    20551226.764
       243.000         211.000
  23333542.509     -705855.63049   -539944.38146  23333541.595    23333555.662
       221.000         167.000
  22462964.404     5513919.52749   4296919.98346  22462964.593    22462978.294
       221.000         169.000
 02  6 21 20 40 30.0000000  0  8G15G 3G21G18G31G14G 9G17
  21702073.102     4468242.58049   3484558.26247  21702072.808    21702084.591
       234.000         189.000
  21958447.952      150654.31649    128741.01347  21958447.763    21958459.235
       236.000         190.000
  21283255.997     -464669.74849   -223940.41047  21283255.729    21283265.856
       243.000         206.000
  22151042.687     4393917.52549   3431846.62346  22151042.682    22151052.226
       232.000         184.000
  23167959.653    -5601415.20549  -4345926.30846  23167959.146    23167971.423
       219.000         163.000
  20543492.733    -6340144.63149  -4917048.04347  20543491.996    20543501.404
       243.000         211.000
  23337865.139     -683138.99349   -522243.10646  23337864.902    23337877.827
       223.000         165.000
  22477821.574     5591993.25249   4357756.48846  22477822.008    22477835.798
       219.000         168.000
 02  6 21 20 41  0.0000000  0  8G15G 3G21G18G31G14G 9G17
  21714953.444     4535928.99949   3537300.84447  21714952.611    21714964.780
       233.000         188.000
  21964246.570      181125.85449    152485.01747  21964246.529    21964258.460
       236.000         190.000
  21283874.253     -461421.58549   -221409.37947  21283874.200    21283883.882
       243.000         207.000
  22161251.002     4447562.49449   3473647.84546  22161250.346    22161260.398
       232.000         184.000
  23161074.733    -5637594.67349  -4374118.09246  23161073.752    23161086.434
       219.000         164.000
  20535863.301    -6380237.11049  -4948288.88647  20535862.698    20535871.682
       243.000         211.000
  23342297.680     -659845.85649   -504092.63146  23342297.724    23342311.628
       224.000         167.000
  22492742.158     5670401.19449   4418853.42746  22492740.820    22492756.428
       217.000         167.000
 02  6 21 20 41 30.0000000  0  8G15G 3G21G18G31G14G 9G17
  21727902.289     4603975.43049   3590323.95647  21727901.966    21727913.849
       234.000         188.000
  21970138.815      212089.66249    176612.60447  21970138.530    21970150.528
       235.000         190.000
  21284510.208     -458079.68649   -218805.30947  21284509.371    21284519.967
       242.000         206.000
  22171474.643     4501287.92349   3515511.76146  22171474.288    22171483.645
       233.000         183.000
  23154290.970    -5673243.71049  -4401896.55146  23154290.498    23154302.864
       222.000         166.000
  20528330.138    -6419824.07449  -4979135.82047  20528329.723    20528338.419
       243.000         211.000
  23346839.886     -635976.48949   -485493.10846  23346839.969    23346852.798
       222.000         166.000
  22507726.099     5749142.31849   4480209.98046  22507725.736    22507739.647
       216.000         166.000
 02  6 21 20 42  0.0000000  0  8G15G 3G21G18G31G14G 9G17
  21740919.632     4672381.04249   3643626.94347  21740919.465    21740930.899
       236.000         190.000
  21976124.388      243543.57349    201122.08047  21976124.755    21976135.922
       236.000         191.000
  21285163.925     -454644.27449   -216128.37247  21285163.368    21285173.590
       243.000         206.000
  22181713.535     4555093.30149   3557437.97246  22181713.549    22181722.763
       232.000         183.000
  23147608.305    -5708361.74949  -4429261.25246  23147607.165    23147620.653
       220.000         167.000
  20520893.101    -6458905.67049  -5009588.95747  20520892.322    20520901.530
       242.000         211.000
  23351491.650     -611531.52149   -466445.11046  23351491.129    23351505.001
       222.000         165.000
  22522773.158     5828215.37049   4541825.16946  22522772.799    22522787.715
       216.000         165.000
 02  6 21 20 42 30.0000000  0  8G15G 3G21G18G31G14G 9G17
  21754005.214     4741145.39349   3697209.47047  21754005.076    21754016.658
       236.000         192.000
  21982202.950      275485.83949    226012.10847  21982202.958    21982214.456
       237.000         191.000
  21285835.411     -451115.68349   -213378.82647  21285834.903    21285844.690
       242.000         205.000
  22191967.358     4608977.91349   3599425.91846  22191966.901    22191976.945
       231.000         184.000
  23141026.703    -5742947.94349  -4456211.51746  23141026.091    23141038.675
       219.000         166.000
  20513552.293    -6497481.48649  -5039647.98347  20513551.814    20513560.675
       242.000         211.000
  23356253.081     -586511.18049   -446948.72946  23356253.842    23356266.770
       223.000         165.000
  22537883.432     5907619.65049   4603698.44946  22537882.998    22537897.060
       216.000         164.000
 02  6 21 20 43  0.0000000  0  8G15G 3G21G18G31G14G 9G17
  21767158.852     4810267.79749   3751071.00347  21767158.650    21767170.821
       235.000         191.000
  21988374.153      307914.87649    251281.43447  21988373.826    21988385.733
       235.000         191.000
  21286524.672     -447493.69349   -210556.49547  21286524.126    21286533.929
       242.000         205.000
  22202236.402     4662941.89449   3641475.70946  22202236.082    22202246.074
       233.000         184.000
  23134546.404    -5777001.43749  -4482746.70046  23134545.507    23134558.841
       220.000         165.000
  20506307.885    -6535551.05849  -5069312.53347  20506307.479    20506316.086
       243.000         211.000
  23361123.878     -560915.68249   -427004.17846  23361123.371    23361136.826
       220.000         165.000
  22553056.728     5987354.63449   4665829.43846  22553056.304    22553070.811
       218.000         163.000
 02  6 21 20 43 30.0000000  0  8G15G 3G21G18G31G14G 9G17
  21780380.462     4879747.52949   3805210.96447  21780379.467    21780391.941
       233.000         191.000
  21994637.500      340828.85749    276928.62147  21994637.090    21994649.165
       235.000         190.000
  21287231.690     -443778.08849   -207661.22347  21287230.977    21287240.982
       242.000         205.000
  22212520.497     4716984.89549   3683587.06746  22212520.282    22212529.891
       233.000         185.000
  23128167.714    -5810521.41249  -4508866.14046  23128167.273    23128180.408
       221.000         166.000
  20499159.898    -6573114.02549  -5098582.33547  20499159.287    20499168.247
       243.000         211.000
  23366103.633     -534745.44549   -406611.78446  23366102.954    23366116.456
       219.000         163.000
  22568292.668     6067419.28449   4728217.30046  22568292.626    22568306.206
       219.000         164.000
 02  6 21 20 44  0.0000000  0  8G15G 3G21G18G31G14G 9G17
  21793670.025     4949584.54049   3859629.31647  21793669.537    21793682.248
       235.000         191.000
  22000992.819      374226.44049    302952.67047  22000992.150    22001004.186
       236.000         189.000
  21287956.373     -439969.15449   -204693.22547  21287955.785    21287966.077
       242.000         205.000
  22222819.727     4771107.19849   3725760.23946  22222819.682    22222829.061
       234.000         185.000
  23121890.819    -5843506.58449  -4534568.86146  23121889.949    23121902.634
       220.000         165.000
  20492108.312    -6610169.79049  -5127456.90047  20492107.689    20492116.854
       242.000         211.000
  23371193.016     -508000.25749   -385771.37346  23371192.680    23371205.404
       221.000         163.000
  22583591.238     6147813.32249   4790861.84946  22583591.245    22583605.514
       219.000         165.000
 02  6 21 20 44 30.0000000  0  8G15G 3G21G18G31G14G 9G17
  21807027.360     5019777.58249   3914325.09947  21807026.460    21807039.323
       233.000         190.000
  22007439.685      408105.32349    329351.73247  22007439.427    22007452.026
       234.000         189.000
  21288698.857     -436067.23049   -201652.76947  21288698.551    21288708.442
       241.000         205.000
  22233133.935     4825307.87949   3767994.47246  22233133.982    22233143.226
       233.000         184.000
  23115715.587    -5875956.94149  -4559854.83646  23115715.213    23115727.688
       219.000         163.000
  20485153.287    -6646718.39849  -5155936.27847  20485152.834    20485161.773
       242.000         212.000
  23376391.669     -480681.10149   -364483.71645  23376392.100    23376404.066
       221.000         162.000
  22598952.266     6228535.16849   4853761.84446  22598952.791    22598966.247
       222.000         167.000
 02  6 21 20 45  0.0000000  0  8G15G 3G21G18G31G14G 9G17
  21820452.268     5090326.01649   3969297.80347  21820451.586    21820464.804
       232.000         189.000
  22013977.905      442463.63749    356124.38747  22013977.870    22013990.035
       235.000         189.000
  21289459.148     -432072.21049   -198539.76747  21289458.944    21289468.558
       243.000         205.000
  22243462.882     4879587.03949   3810289.85346  22243462.401    22243472.386
       233.000         184.000
  23109642.522    -5907871.35349  -4584723.19445  23109642.557    23109653.766
       220.000         162.000
  20478294.932    -6682759.30549  -5184020.05047  20478294.482    20478303.474
       243.000         212.000
  23381699.616     -452787.79249   -342748.66545  23381698.907    23381712.363
       221.000         162.000
  22614375.557     6309584.35149   4916916.89246  22614376.093    22614389.227
       223.000         167.000
 02  6 21 20 45 30.0000000  0  8G15G 3G21G18G31G14G 9G17
  21833944.698     5161229.08849   4024546.84747  21833944.105    21833956.720
       233.000         188.000
  22020606.985      477299.51849    383269.17047  22020606.731    22020618.799
       234.000         189.000
  21290237.097     -427984.28649   -195354.37747  21290236.816    21290246.318
       242.000         205.000
  22253806.760     4933944.39449   3852646.17346  22253806.470    22253817.066
       233.000         185.000
  23103671.712    -5939249.20449  -4609173.46546  23103671.291    23103683.764
       222.000         163.000
  20471533.188    -6718292.44649  -5211708.17347  20471532.753    20471541.360
       243.000         212.000
  23387116.597     -424321.10549   -320566.83345  23387115.377    23387129.853
       218.000         161.000
  22629860.984     6390959.76649   4980326.14246  22629860.044    22629874.861
       223.000         168.000
 02  6 21 20 46  0.0000000  0  8G15G 3G21G18G31G14G 9G17
  21847504.500     5232485.82149   4080071.48346  21847503.928    21847515.653
       233.000         187.000
  22027326.597      512611.13449    410784.64447  22027326.579    22027338.098
       235.000         189.000
  21291032.711     -423803.50149   -192096.62247  21291032.135    21291042.105
       242.000         205.000
  22264165.483     4988379.55849   3895063.11746  22264165.559    22264175.784
       233.000         185.000
  23097803.040    -5970090.05749  -4633205.28446  23097802.284    23097815.129
       222.000         165.000
  20464868.053    -6753317.81849  -5239000.62747  20464867.437    20464876.225
       242.000         212.000
  23392642.422     -395281.83949   -297938.81745  23392643.280    23392655.010
       220.000         162.000
  22645408.247     6472660.49549   5043988.87746  22645407.790    22645422.407
       223.000         168.000
 02  6 21 20 46 30.0000000  0  8G15G 3G21G18G31G14G 9G17
  21861131.489     5304095.79949   4135871.37546  21861130.904    21861142.342
       232.000         186.000
  22034136.490      548396.65149    438669.39747  22034136.365    22034147.534
       234.000         188.000
  21291845.941     -419529.55649   -188766.27747  21291845.142    21291855.583
       241.000         205.000
  22274539.001     5042892.41849   3937540.60646  22274538.588    22274549.361
       233.000         185.000
  23092036.774    -6000392.91049  -4656817.87646  23092036.286    23092048.326
       221.000         166.000
  20458299.595    -6787834.89149  -5265896.99847  20458298.954    20458307.780
       242.000         212.000
  23398277.382     -365670.02449   -274864.66046  23398276.350    23398290.216
       218.000         163.000
  22661017.141     6554685.74149   5107904.49546  22661017.504    22661031.380
       222.000         167.000
 02  6 21 20 47  0.0000000  0  8G15G 3G21G18G31G14G 9G17
  21874825.342     5376057.26449   4191945.13546  21874824.854    21874837.418
       232.000         185.000
  22041035.866      584652.97549    466921.01946  22041035.639    22041047.059
       234.000         187.000
  21292676.762     -415163.17649   -185363.90747  21292676.227    21292686.268
       242.000         205.000
  22284927.067     5097481.75949   3980077.69246  22284927.056    22284937.977
       233.000         185.000
  23086372.488    -6030158.35349  -4680011.69946  23086372.697    23086383.773
       223.000         165.000
  20451827.784    -6821844.62149  -5292398.05047  20451827.664    20451835.872
       243.000         212.000
  23404020.848     -335487.45449   -251345.75645  23404020.584    23404034.252
       218.000         162.000
  22676687.397     6637033.41249   5172071.33146  22676687.266    22676701.971
       222.000         165.000
 02  6 21 20 47 30.0000000  0  8G15G 3G21G18G31G14G 9G17
  21888586.368     5448371.42849   4248293.73646  21888585.627    21888598.546
       231.000         185.000
  22048024.862      621380.66349    495539.92746  22048024.610    22048036.351
       233.000         186.000
  21293525.535     -410703.19549   -181888.59347  21293525.029    21293535.270
       241.000         206.000
  22295330.052     5152149.33249   4022675.74146  22295329.824    22295339.961
       233.000         185.000
  23080811.160    -6059383.55749  -4702784.57046  23080810.587    23080823.483
       221.000         166.000
  20445452.967    -6855344.73749  -5318501.99347  20445452.368    20445461.056
       243.000         212.000
  23409873.301     -304732.36549   -227380.72645  23409874.001    23409886.300
       218.000         161.000
  22692419.301     6719704.84449   5236490.47546  22692419.325    22692431.835
       222.000         165.000
 02  6 21 20 48  0.0000000  0  8G15G 3G21G18G31G14G 9G17
  21902414.121     5521036.77349   4304915.98046  21902414.334    21902426.800
       232.000         187.000
  22055103.078      658576.71349    524523.78946  22055102.800    22055114.859
       233.000         187.000
  21294391.809     -406150.58649   -178341.11147  21294391.430    21294401.631
       242.000         206.000
  22305747.723     5206894.04649   4065333.89346  22305747.492    22305757.759
       233.000         185.000
  23075352.360    -6088068.88749  -4725136.76346  23075352.116    23075364.931
       221.000         166.000
  20439174.925    -6888335.84449  -5344209.31547  20439174.444    20439182.972
       242.000         212.000
  23415834.688     -273406.12049   -202970.63445  23415835.165    23415847.341
       220.000         162.000
  22708212.542     6802698.09249   5301160.36246  22708212.961    22708227.226
       221.000         164.000
 02  6 21 20 48 30.0000000  0  8G15G 3G21G18G31G14G 9G17
  21916308.550     5594051.95449   4361810.82847  21916308.725    21916320.458
       234.000         188.000
  22062269.960      696238.60549    553870.66046  22062269.519    22062281.616
       235.000         187.000
  21295275.774     -401505.71449   -174721.72147  21295275.428    21295285.716
       243.000         206.000
  22316180.002     5261715.35549   4108051.75146  22316180.060    22316189.757
       233.000         184.000
  23069996.335    -6116214.32649  -4747068.26946  23069995.065    23070009.182
       220.000         165.000
  20432993.655    -6920818.34549  -5369520.31347  20432993.023    20433001.858
       243.000         212.000
  23421904.373     -241509.94649   -178116.46345  23421904.073    23421917.183
       213.000         161.000
  22724066.777     6886011.59449   5366079.79346  22724066.796    22724080.852
       221.000         165.000
 02  6 21 20 49  0.0000000  0  8G15G 3G21G18G31G14G 9G17
  21930269.652     5667416.92649   4418978.23247  21930269.610    21930281.753
       234.000         189.000
  22069525.181      734365.08449    583579.54446  22069524.556    22069536.512
       232.000         186.000
  21296177.406     -396767.88249   -171029.90547  21296176.754    21296187.134
       242.000         206.000
  22326626.699     5316613.48349   4150829.45846  22326626.028    22326636.724
       231.000         183.000
  23064743.266    -6143818.76549  -4768578.20246  23064743.390    23064755.269
       220.000         165.000
  20426909.353    -6952791.46949  -5394434.39847  20426908.585    20426917.444
       241.000         212.000
  23428082.390     -209043.87849   -152818.19345  23428082.076    23428095.633
       215.000         160.000
  22739981.761     6969645.01749   5431248.51246  22739981.129    22739996.587
       219.000         164.000
 02  6 21 20 49 30.0000000  0  8G15G 3G21G18G31G14G 9G17
  21944296.949     5741130.22449   4476417.05747  21944296.570    21944308.939
       233.000         188.000
  22076868.278      772953.66049    613648.48546  22076868.242    22076880.190
       234.000         187.000
  21297096.633     -391937.25149   -167265.77447  21297095.977    21297106.096
       242.000         205.000
  22337087.987     5371588.09449   4193666.75446  22337087.916    22337097.646
       231.000         182.000
  23059593.263    -6170881.91349  -4789666.36846  23059592.326    23059605.115
       220.000         164.000
  20420921.850    -6984255.63449  -5418951.89348  20420921.310    20420929.939
       241.000         213.000
  23434368.652     -176009.00149   -127076.73345  23434367.705    23434381.528
       215.000         161.000
  22755957.267     7053597.17649   5496665.59246  22755957.099    22755972.068
       218.000         163.000
 02  6 21 20 50  0.0000000  0  8G15G 3G21G18G31G14G 9G17
  21958390.361     5815191.67249   4534127.17046  21958389.663    21958403.006
       233.000         187.000
  22084299.239      812002.73449    644076.26647  22084298.988    22084311.305
       236.000         188.000
  21298033.728     -387012.70149   -163428.46147  21298033.128    21298043.421
       242.000         205.000
  22347564.040     5426639.34649   4236563.78446  22347564.313    22347574.082
       231.000         182.000
  23054546.547    -6197403.00949  -4810332.15846  23054545.590    23054557.925
       221.000         165.000
  20415031.365    -7015210.38949  -5443072.44748  20415031.018    20415039.396
       241.000         213.000
  23440763.023     -142405.14649   -100891.91945  23440762.818    23440775.806
       216.000         160.000
  22771993.418     7137867.21649   5562330.36046  22771992.668    22772008.580
       218.000         163.000
 02  6 21 20 50 30.0000000  0  8G15G 3G21G18G31G14G 9G17
  21972549.570     5889599.16749   4592106.95946  21972549.221    21972561.636
       233.000         185.000
  22091817.163      851508.96349    674860.28047  22091816.674    22091829.133
       234.000         188.000
  21298988.279     -381996.15149   -159519.45947  21298987.458    21298998.151
       241.000         205.000
  22358054.380     5481765.65349   4279519.29146  22358054.471    22358064.106
       232.000         183.000
  23049602.801    -6223382.87249  -4830576.20546  23049601.443    23049615.493
       220.000         165.000
  20409237.607    -7045656.92749  -5466796.98548  20409237.049    20409245.870
       241.000         213.000
  23447265.481     -108234.77449    -74265.63845  23447265.466    23447279.547
       218.000         162.000
  22788089.645     7222452.97249   5628241.14645  22788089.874    22788104.640
       216.000         162.000
 02  6 21 20 51  0.0000000  0  8G15G 3G21G18G31G14G 9G17
  21986774.805     5964353.11949   4650356.69646  21986774.013    21986786.860
       233.000         184.000
  22099421.826      891471.66649    705999.97547  22099421.749    22099433.635
       233.000         188.000
  21299960.392     -376887.18049   -155538.44047  21299959.835    21299970.423
       242.000         206.000
  22368559.176     5536968.05649   4322534.09646  22368558.779    22368569.290
       232.000         183.000
  23044762.420    -6248819.82149  -4850397.20746  23044762.583    23044774.989
       220.000         166.000
  20403540.727    -7075594.06849  -5490124.59048  20403540.093    20403548.905
       241.000         213.000
  23453875.893      -73497.27949    -47197.47445  23453875.230    23453889.504
       216.000         162.000
  22804245.979     7307354.56449   5694398.02745  22804245.359    22804260.332
       217.000         160.000
 02  6 21 20 51 30.0000000  0  8G15G 3G21G18G31G14G 9G17
  22001065.664     6039451.59549   4708874.88346  22001065.419    22001077.783
       233.000         184.000
  22107112.755      931887.58849    737492.82447  22107112.894    22107124.727
       234.000         188.000
  21300950.141     -371686.06049   -151485.62047  21300949.899    21300960.118
       243.000         206.000
  22379078.225     5592245.55749   4365607.42346  22379077.927    22379087.540
       231.000         182.000
  23040025.293    -6273714.34649  -4869795.54246  23040024.543    23040037.781
       221.000         167.000
  20397940.575    -7105022.68449  -5513055.94448  20397940.120    20397948.521
       241.000         213.000
  23460593.686      -38194.34649    -19688.68745  23460593.189    23460606.636
       217.000         160.000
  22820462.248     7392570.06549   5760799.51845  22820462.722    22820476.846
       216.000         159.000
 02  6 21 20 52  0.0000000  0  8G15G 3G21G18G31G14G 9G17
  22015422.166     6114894.56849   4767661.51746  22015422.600    22015433.583
       235.000         184.000
  22114889.801      972755.50049    769337.88547  22114889.601    22114901.655
       233.000         188.000
  21301957.586     -366392.08549   -147360.44147  21301957.052    21301967.453
       242.000         206.000
  22389611.585     5647598.96149   4408739.90146  22389610.985    22389620.886
       230.000         180.000
  23035391.356    -6298065.16049  -4888770.18946  23035390.291    23035403.370
       220.000         166.000
  20392437.476    -7133941.70949  -5535590.21548  20392437.100    20392445.539
       241.000         213.000
  23467419.298       -2325.93149      8260.70845  23467419.104    23467432.925
       215.000         158.000
  22836738.199     7478099.25349   5827445.41845  22836738.245    22836753.569
       217.000         158.000
 02  6 21 20 52 30.0000000  0  8G15G 3G21G18G31G14G 9G17
  22029844.100     6190680.67349   4826715.51746  22029844.386    22029855.297
       235.000         184.000
  22122752.324     1014073.08249    801533.32546  22122752.017    22122764.114
       233.000         187.000
  21302982.851     -361004.43749   -143162.26947  21302982.462    21302992.540
       242.000         206.000
  22400159.203     5703027.41949   4451930.86646  22400158.913    22400168.266
       230.000         178.000
  23030860.956    -6321872.35949  -4907321.26446  23030861.177    23030872.382
       220.000         165.000
  20387031.125    -7162352.01449  -5557728.07648  20387030.582    20387039.010
       241.000         213.000
  23474352.110       34106.58049     36649.66145  23474352.074    23474365.158
       215.000         157.000
  22853073.648     7563940.72349   5894334.68545  22853074.266    22853088.332
       216.000         157.000
 02  6 21 20 53  0.0000000  0  8G15G 3G21G18G31G14G 9G17
  22044331.175     6266809.41649   4886036.51046  22044330.867    22044342.804
       234.000         184.000
  22130700.088     1055838.43749    834077.67647  22130699.755    22130712.461
       234.000         188.000
  21304025.746     -355524.17049   -138891.92647  21304025.440    21304035.443
       242.000         205.000
  22410721.218     5758531.38549   4495180.65346  22410720.481    22410730.211
       229.000         177.000
  23026434.345    -6345135.23249  -4925448.17846  23026433.272    23026446.048
       221.000         165.000
  20381721.735    -7190253.07949  -5579469.13548  20381721.288    20381729.525
       241.000         213.000
  23481392.320       71103.12549     65478.14245  23481391.771    23481405.500
       215.000         156.000
  22869468.075     7650093.59749   5961466.59945  22869467.427    22869482.630
       216.000         156.000
 02  6 21 20 53 30.0000000  0  8G15G 3G21G18G31G14G 9G17
  22058883.086     6343280.15049   4945623.99346  22058882.374    22058894.967
       233.000         184.000
  22138732.677     1098049.81149    866969.57046  22138732.424    22138744.967
       233.000         187.000
  21305086.310     -349951.10049   -134549.26747  21305085.866    21305096.095
       243.000         206.000
  22421297.620     5814110.87849   4538489.29746  22421297.279    22421307.435
       230.000         177.000
  23022111.146    -6367853.20549  -4943150.51446  23022110.265    23022122.622
       219.000         166.000
  20376509.241    -7217644.63849  -5600813.17648  20376508.617    20376517.249
       241.000         213.000
  23488539.589      108663.14449     94745.68745  23488539.393    23488553.335
       215.000         157.000
  22885921.615     7736557.23749   6028840.65245  22885921.416    22885936.328
       215.000         155.000
 02  6 21 20 54  0.0000000  0  8G15G 3G21G18G31G14G 9G17
  22073499.792     6420091.62149   5005476.97446  22073499.115    22073511.853
       231.000         184.000
  22146849.585     1140704.41949    900206.82646  22146849.425    22146861.504
       233.000         187.000
  21306164.656     -344284.35549   -130133.62747  21306164.399    21306174.308
       243.000         206.000
  22431888.338     5869765.12549   4581856.19046  22431888.437    22431897.905
       230.000         178.000
  23017891.416    -6390026.42549  -4960428.32246  23017890.056    23017903.099
       218.000         165.000
  20371393.577    -7244527.37149  -5621760.72648  20371392.958    20371401.622
       240.000         213.000
  23495793.961      146785.18849    124451.14845  23495794.400    23495807.221
       219.000         157.000
  22902434.023     7823329.83549   6096455.47445  22902433.415    22902449.732
       213.000         153.000
 02  6 21 20 54 30.0000000  0  8G15G 3G21G18G31G14G 9G17
  22088181.264     6497243.39549   5065595.12246  22088180.551    22088193.544
       230.000         183.000
  22155050.516     1183800.64749    933788.23046  22155050.398    22155062.422
       233.000         186.000
  21307260.925     -338523.88849   -125644.95747  21307260.560    21307270.324
       243.000         206.000
  22442493.378     5925494.70649   4625281.79746  22442492.935    22442503.077
       230.000         178.000
  23013775.571    -6411654.08349  -4977281.05146  23013775.495    23013787.531
       220.000         164.000
  20366374.778    -7270901.05049  -5642311.61047  20366374.073    20366382.884
       240.000         212.000
  23503155.452      185468.77249    154594.17945  23503155.534    23503168.131
       217.000         158.000
  22919005.190     7910410.98349   6164310.69345  22919005.343    22919021.035
       210.000         152.000
 02  6 21 20 55  0.0000000  0  8G15G 3G21G18G31G14G 9G17
  22102927.304     6574733.83749   5125977.17346  22102927.132    22102940.074
       230.000         183.000
  22163334.945     1227335.51049    967711.41846  22163334.833    22163346.700
       233.000         185.000
  21308374.838     -332670.22249   -121083.66047  21308374.289    21308384.271
       243.000         206.000
  22453112.649     5981298.75049   4668765.41346  22453112.094    22453123.351
       231.000         179.000
  23009763.671    -6432736.78449  -4993709.10846  23009762.743    23009776.184
       222.000         164.000
  20361452.751    -7296766.41549  -5662466.40248  20361452.140    20361460.890
       241.000         213.000
  23510623.463      224712.06749    185173.36345  23510623.964    23510636.736
       220.000         159.000
  22935634.533     7997798.72249   6232404.81145  22935633.541    22935649.842
       208.000         149.000
 02  6 21 20 55 30.0000000  0  8G15G 3G21G18G31G14G 9G17
  22117737.559     6652561.69849   5186622.15346  22117736.879    22117749.878
       230.000         182.000
  22171702.429     1271306.63549   1001974.55046  22171701.830    22171715.066
       231.000         185.000
  21309506.350     -326723.93449   -116450.19447  21309506.036    21309516.203
       243.000         206.000
  22463745.988     6037176.83549   4712306.72146  22463745.583    22463755.944
       230.000         180.000
  23005855.663    -6453274.50049  -5009712.54646  23005855.218    23005868.730
       220.000         165.000
  20356627.336    -7322123.91349  -5682225.45748  20356626.830    20356635.301
       240.000         213.000
  23518197.790      264514.12849    216187.96945  23518197.231    23518210.590
       219.000         159.000
  22952322.041     8085491.74749   6300736.81845  22952321.429    22952336.972
       208.000         146.000
 02  6 21 20 56  0.0000000  0  8G15G 3G21G18G31G14G 9G17
  22132611.804     6730726.50249   5247529.67946  22132611.532    22132624.296
       229.000         182.000
  22180152.485     1315712.16649   1036576.17746  22180152.530    22180165.235
       231.000         184.000
  21310655.739     -320684.12749   -111743.84847  21310655.110    21310665.452
       242.000         206.000
  22474393.428     6093129.35349   4755906.02046  22474392.802    22474403.374
       228.000         179.000
  23002051.438    -6473266.50149  -5025290.71446  23002051.751    23002063.567
       220.000         165.000
  20351898.673    -7346973.11449  -5701588.43448  20351898.174    20351906.578
       241.000         213.000
  23525878.048      304874.55149    247637.64845  23525877.914    23525890.990
       219.000         159.000
  22969067.602     8173489.35749   6369306.18145  22969068.015    22969081.961
       209.000         144.000
 02  6 21 20 56 30.0000000  0  8G15G 3G21G18G31G14G 9G17
  22147549.932     6809227.10349   5308698.86146  22147549.051    22147562.746
       229.000         182.000
  22188684.926     1360549.85849   1071514.55346  22188684.953    22188697.686
       233.000         185.000
  21311822.803     -314550.84749   -106964.67147  21311822.442    21311832.177
       243.000         206.000
  22485054.845     6149156.21849   4799563.25946  22485054.351    22485065.294
       228.000         178.000
  22998350.914    -6492712.52449  -5040443.46046  22998350.483    22998362.312
       223.000         166.000
  20347266.706    -7371314.12549  -5720555.42248  20347266.231    20347274.702
       241.000         213.000
  23533664.497      345792.20749    279521.54245  23533664.273    23533677.717
       218.000         159.000
  22985870.873     8261790.23349   6438111.87245  22985872.132    22985886.078
       207.000         143.000
 02  6 21 20 57  0.0000000  0  8G15G 3G21G18G31G14G 9G17
  22162551.966     6888063.14449   5370129.41246  22162551.715    22162564.978
       229.000         182.000
  22197299.240     1405818.05249   1106788.38446  22197299.429    22197311.523
       233.000         185.000
  21313007.916     -308323.37049   -102112.09447  21313007.492    21313017.385
       243.000         206.000
  22495730.614     6205257.80749   4843278.72146  22495730.830    22495740.296
       230.000         178.000
  22994754.378    -6511612.16049  -5055170.46646  22994753.244    22994766.587
       220.000         166.000
  20342731.437    -7395146.83149  -5739126.33048  20342730.850    20342739.355
       240.000         213.000
  23541556.781      387266.51549    311839.20145  23541556.250    23541569.196
       217.000         158.000
  23002731.787     8350393.91449   6507153.48945  23002732.700    23002746.940
       208.000         142.000
 02  6 21 20 57 30.0000000  0  8G15G 3G21G18G31G14G 9G17
  22177617.605     6967233.05949   5431820.13146  22177617.035    22177630.295
       231.000         183.000
  22205995.026     1451513.82849   1142395.41246  22205994.730    22206007.577
       233.000         185.000
  21314210.810     -302001.88649    -97186.26847  21314210.019    21314220.379
       242.000         205.000
  22506420.608     6261433.53749   4887051.95246  22506420.349    22506430.178
       231.000         177.000
  22991261.831    -6529965.83649  -5069472.02846  22991262.520    22991274.199
       223.000         166.000
  20338292.774    -7418472.07149  -5757301.80348  20338292.063    20338300.875
       240.000         213.000
  23549554.833      429295.97749    344589.43745  23549555.732    23549567.086
       221.000         159.000
  23019649.916     8439298.35149   6576429.47845  23019649.748    23019667.436
       205.000         141.000
 02  6 21 20 58  0.0000000  0  8G15G 3G21G18G31G14G 9G17
  22192746.618     7046735.21149   5493769.74146  22192746.931    22192759.232
       232.000         183.000
  22214771.458     1497634.45349   1178333.46446  22214771.334    22214784.132
       232.000         185.000
  21315431.516     -295587.10849    -92187.74547  21315431.014    21315441.101
       243.000         206.000
  22517124.569     6317682.68649   4930882.39146  22517124.289    22517134.191
       231.000         178.000
  22987873.222    -6547773.84749  -5083348.40446  22987872.227    22987885.870
       222.000         166.000
  20333950.438    -7441290.62349  -5775082.45648  20333949.540    20333958.656
       240.000         213.000
  23557658.261      471878.86949    377770.92145  23557657.113    23557669.460
       217.000         157.000
  23036624.788     8528502.16849   6645938.71645  23036624.177    23036640.800
       204.000         139.000
 02  6 21 20 58 30.0000000  0  8G15G 3G21G18G31G14G 9G17
  22207938.744     7126569.63949   5555978.26246  22207938.494    22207951.567
       231.000         183.000
  22223628.641     1544178.81349   1214601.71746  22223629.182    22223641.017
       234.000         185.000
  21316670.196     -289077.90449    -87115.64847  21316669.637    21316679.852
       243.000         206.000
  22527842.727     6374006.13449   4974770.72646  22527842.619    22527852.275
       231.000         177.000
  22984588.612    -6565035.07349  -5096798.70846  22984588.900    22984600.843
       222.000         167.000
  20329704.642    -7463601.78449  -5792467.74448  20329704.029    20329712.733
       240.000         213.000
  23565866.625      515015.33949    411383.73345  23565865.491    23565880.123
       216.000         156.000
  23053656.718     8618004.95249   6715680.92445  23053657.335    23053671.705
       203.000         139.000
 02  6 21 20 59  0.0000000  0  9G25G15G 3G21G18G31G14G 9G17
                   -792278.98049   -590091.27643
       207.000          74.000
  22223193.754     7206734.99549   5618444.66446  22223193.164    22223206.133
       231.000         182.000
  22232566.049     1591143.98949   1251197.88146  22232565.695    22232577.701
       233.000         185.000
  21317926.667     -282474.98749    -81970.52947  21317926.247    21317936.145
       242.000         206.000
  22538574.849     6430403.47449   5018716.64246  22538574.470    22538585.139
       231.000         177.000
  22981407.861    -6581750.00149  -5109823.34146  22981406.873    22981418.951
       220.000         167.000
  20325555.398    -7485406.22549  -5809458.18848  20325554.961    20325563.589
       241.000         213.000
  23574180.020      558703.53849    445426.49345  23574179.335    23574192.969
       215.000         156.000
  23070745.458     8707805.10849   6785654.81045  23070746.555    23070761.029
       204.000         137.000
 02  6 21 20 59 30.0000000  0  9G25G15G 3G21G18G31G14G 9G17
                   -889844.02349   -321697.45543
       208.000          74.000
  22238511.416     7287229.98549   5681167.92446  22238511.359    22238522.677
       231.000         181.000
  22241582.889     1638527.66549   1288120.15046  22241582.823    22241594.765
       235.000         184.000
  21319201.201     -275777.37549    -76751.61647  21319200.934    21319210.783
       243.000         206.000
  22549321.030     6486874.58449   5062720.02046  22549320.710    22549331.067
       230.000         178.000
  22978331.027    -6597918.59849  -5122422.25846  22978329.713    22978342.375
       222.000         167.000
  20321502.490    -7506704.45549  -5826054.17948  20321502.007    20321510.589
       241.000         213.000
  23582598.464      602942.49949    479898.45045  23582598.497    23582610.875
       220.000         157.000
  23087890.569     8797901.34149   6855859.46945  23087891.235    23087905.261
       202.000         136.000
 02  6 21 21  0  0.0000000  0  9G25G15G 3G21G18G31G14G 9G17
                   -987461.70249   -397763.63843
       207.000          74.000
  22253891.352     7368051.52949   5744145.63646  22253891.222    22253903.845
       232.000         181.000
  22250678.503     1686325.54949   1325365.17746  22250678.166    22250690.941
       233.000         184.000
  21320493.362     -268987.22449    -71460.59647  21320492.740    21320502.988
       242.000         206.000
  22560080.808     6543417.28449   5106779.18946  22560080.951    22560090.904
       230.000         178.000
  22975357.762    -6613542.93849  -5134597.09146  22975357.091    22975369.445
       222.000         168.000
  20317545.446    -7527498.82349  -5842257.55448  20317545.046    20317553.377
       241.000         213.000
  23591121.277      647728.80349    514796.88245  23591120.217    23591132.911
       217.000         156.000
  23105091.141     8888290.24749   6926292.14745  23105089.789    23105107.698
       197.000         134.000
 02  6 21 21  0 30.0000000  0  9G25G15G 3G21G18G31G14G 9G17
                  -1085128.88249   -473867.39244                  24311001.760
       208.000         125.000
  22269333.614     7449199.57249   5807377.75346  22269333.351    22269345.907
       231.000         180.000
  22259852.758     1734536.02049   1362931.68546  22259852.835    22259865.267
       235.000         185.000
  21321803.270     -262103.27649    -66096.48547  21321802.593    21321812.715
       242.000         205.000
  22570854.459     6600032.55449   5150894.89146  22570854.233    22570864.394
       230.000         178.000
  22972488.407    -6628622.04949  -5146347.05146  22972488.647    22972500.158
       224.000         170.000
  20313684.427    -7547788.67249  -5858067.80148  20313684.019    20313692.438
       241.000         214.000
  23599748.064      693062.27849    550121.63745  23599747.255    23599760.492
       216.000         156.000
  23122346.965     8978971.57249   6996952.70245  23122345.963    23122364.369
       196.000         133.000
 02  6 21 21  1  0.0000000  0  9G25G15G 3G21G18G31G14G 9G17
  24292388.304    -1182841.25949   -550006.49345  24292386.701    24292407.249
       211.000         136.000
  22284837.864     7530674.19649   5870864.35246  22284837.868    22284850.133
       229.000         179.000
  22269105.448     1783158.33549   1400819.12146  22269105.389    22269117.947
       233.000         185.000
  21323131.249     -255124.33949    -60658.36347  21323130.674    21323140.872
       242.000         205.000
  22581642.113     6656721.50249   5195068.00046  22581642.204    22581652.143
       229.000         178.000
  22969723.009    -6643154.78149  -5157671.26646  22969722.852    22969735.754
       223.000         170.000
  20309919.577    -7567573.12949  -5873484.23048  20309919.076    20309927.641
       240.000         214.000
  23608478.711      738943.06149    585872.88345  23608478.740    23608491.540
       215.000         155.000
  23139658.561     9069945.41149   7067841.15744  23139658.498    23139674.149
       199.000         131.000
 02  6 21 21  1 30.0000000  0  9G25G15G 3G21G18G31G14G 9G17
  24273786.264    -1280595.19149   -626178.02245  24273786.108    24273805.446
       208.000         139.000
  22300404.266     7612475.69649   5934605.66246  22300403.662    22300415.912
       228.000         177.000
  22278436.034     1832191.06749   1439026.35546  22278435.800    22278447.962
       232.000         185.000
  21324477.650     -248049.09949    -55145.19247  21324477.431    21324487.483
       243.000         206.000
  22592443.998     6713485.34349   5239299.46646  22592443.697    22592453.862
       230.000         179.000
  22967061.792    -6657139.81549  -5168568.69446  22967060.755    22967073.071
       223.000         168.000
  20306251.062    -7586851.27749  -5888506.12848  20306250.575    20306258.895
       241.000         214.000
  23617313.502      785371.28749    622050.72045  23617312.665    23617326.678
       215.000         154.000
  23157026.425     9161211.75049   7138957.54844  23157029.372    23157043.483
       200.000         129.000
 02  6 21 21  2  0.0000000  0  9G25G15G 3G21G18G31G14G 9G17
  24255176.869    -1378387.85549   -702379.69945  24255176.551    24255195.734
       209.000         140.000
  22316032.522     7694603.13949   5998600.95246  22316031.903    22316045.279
       227.000         176.000
  22287844.367     1881631.98749   1477551.66646  22287844.666    22287856.301
       233.000         184.000
  21325842.435     -240877.15449    -49556.66347  21325841.907    21325851.999
       242.000         206.000
  22603260.198     6770324.38049   5283589.53746  22603260.089    22603270.238
       230.000         179.000
  22964504.703    -6670576.92149  -5179039.18246  22964504.454    22964515.895
       222.000         167.000
  20302678.920    -7605623.14849  -5903133.53048  20302678.398    20302686.797
       240.000         214.000
  23626252.112      832345.88149    658654.29445  23626250.917    23626264.997
       214.000         154.000
  23174450.029     9252769.68749   7210301.16944  23174449.832    23174466.567
       200.000         128.000
 02  6 21 21  2 30.0000000  0  9G25G15G 3G21G18G31G14G 9G17
  24236560.287    -1476217.92749   -778610.55845  24236559.079    24236578.950
       209.000         142.000
  22331722.415     7777054.09349   6062848.31446  22331721.901    22331735.488
       228.000         175.000
  22297329.693     1931477.52849   1516392.26346  22297329.680    22297341.323
       231.000         183.000
  21327225.428     -233609.63249    -43893.66847  21327224.670    21327235.125
       242.000         206.000
  22614090.416     6827237.29149   5327937.18646  22614089.761    22614100.042
       229.000         178.000
  22962051.748    -6683467.60749  -5189083.87646  22962051.582    22962063.763
       223.000         167.000
  20299202.684    -7623890.61949  -5917367.89248  20299202.185    20299210.586
       241.000         214.000
  23635294.338      879864.28949    695681.64145  23635293.137    23635307.796
       214.000         151.000
  23191928.382     9344616.28449   7281869.71744  23191929.112    23191945.124
       196.000         125.000
 02  6 21 21  3  0.0000000  0  9G25G15G 3G21G18G31G14G 9G17
  24217937.072    -1574082.46749   -854868.23945  24217936.272    24217955.562
       208.000         143.000
  22347473.781     7859827.52549   6127346.97646  22347473.416    22347486.514
       227.000         176.000
  22306891.610     1981725.46249   1555546.40046  22306892.040    22306903.912
       231.000         182.000
  21328626.686     -226245.91449    -38155.70947  21328626.109    21328636.349
       243.000         206.000
  22624934.707     6884224.26449   5372342.52846  22624933.614    22624944.330
       227.000         176.000
  22959702.815    -6695811.86649  -5198702.80846  22959703.308    22959714.893
       223.000         167.000
  20295822.449    -7641653.99649  -5931209.45948  20295822.025    20295830.145
       240.000         214.000
  23644439.870      927925.14049    733131.61045  23644440.225    23644453.995
       214.000         151.000
  23209461.094     9436750.59748   7353662.42344  23209460.975    23209473.923
       192.000         122.000
 02  6 21 21  3 30.0000000  0  9G25G15G 3G21G18G31G14G 9G17
  24199307.683    -1671979.22349   -931151.03045  24199307.168    24199325.473
       212.000         144.000
  22363286.318     7942922.49349   6192096.17546  22363285.939    22363299.125
       228.000         176.000
  22316529.728     2032373.21849   1595012.09546  22316530.128    22316541.834
       231.000         183.000
  21330046.331     -218785.71849    -32342.57247  21330046.046    21330056.017
       243.000         206.000
  22635793.004     6941285.06249   5416805.40046  22635792.607    22635802.740
       227.000         175.000
  22957457.828    -6707610.11149  -5207896.25746  22957458.972    22957469.748
       225.000         168.000
  20292538.018    -7658913.93149  -5944658.73048  20292537.469    20292545.735
       241.000         214.000
  23653688.679      976527.05349    771003.20845  23653689.511    23653702.006
       219.000         152.000
  23227048.162     9529171.22648   7425678.24444  23227047.819    23227063.928
       191.000         117.000
 02  6 21 21  4  0.0000000  0  9G25G15G 3G21G18G31G14G 9G17
  24180672.330    -1769907.15949  -1007458.11745  24180670.960    24180690.627
       209.000         145.000
  22379159.537     8026336.40649   6257093.92046  22379158.751    22379172.639
       228.000         176.000
  22326242.989     2083416.94549   1634786.33446  22326242.714    22326254.948
       230.000         182.000
  21331484.081     -211230.24349    -26455.19447  21331483.731    21331493.503
       243.000         206.000
  22646665.098     6998418.38449   5461324.79346  22646663.981    22646675.596
       226.000         174.000
  22955316.550    -6718863.68649  -5216665.29346  22955317.015    22955327.289
       225.000         168.000
  20289349.001    -7675672.09549  -5957717.00548  20289348.306    20289356.918
       240.000         214.000
  23663040.214     1025667.48849    809294.43045  23663040.818    23663053.232
       219.000         152.000
  23244688.955     9621875.38448   7497915.04144  23244685.149    23244703.534
       188.000         112.000
 02  6 21 21  4 30.0000000  0  9G25G15G 3G21G18G31G14G 9G17
  24162031.829    -1867861.76649  -1083786.00245  24162031.244    24162050.544
       215.000         147.000
  22395093.457     8110069.72149   6322340.52646  22395092.840    22395106.276
       229.000         177.000
  22336031.556     2134855.57949   1674868.29046  22336031.567    22336043.810
       231.000         182.000
  21332940.399     -203577.51549    -20492.02947  21332940.333    21332949.960
       244.000         206.000
  22657551.217     7055625.79849   5505901.90346  22657550.134    22657562.148
       224.000         173.000
  22953279.083    -6729571.21249  -5225008.84346  22953277.617    22953290.307
       223.000         169.000
  20286255.634    -7691927.50849  -5970383.53148  20286254.988    20286263.484
       240.000         214.000
  23672493.934     1075346.46949    848005.30345  23672492.854    23672507.735
       216.000         153.000
  23262383.745     9714863.42148   7570372.97644  23262384.716    23262404.981
       188.000         113.000
 02  6 21 21  5  0.0000000  0  9G25G15G 3G21G18G31G14G 9G17
  24143386.860    -1965841.17349  -1160133.19845  24143386.162    24143404.298
       216.000         148.000
  22411088.004     8194121.10549   6387834.99346  22411088.117    22411101.616
       229.000         179.000
  22345894.770     2186686.87449   1715256.21746  22345895.009    22345907.036
       230.000         182.000
  21334415.261     -195827.28149    -14452.88347  21334414.862    21334424.601
       243.000         206.000
  22668451.421     7112907.23849   5550536.70846  22668450.468    22668462.056
       226.000         173.000
  22951345.281    -6739732.93549  -5232927.06946  22951344.615    22951356.975
       222.000         169.000
  20283257.877    -7707680.64149  -5982658.67448  20283257.453    20283265.714
       240.000         214.000
  23682049.422     1125562.83949    887134.91545  23682048.049    23682063.365
       215.000         152.000
  23280133.001     9808134.01148   7643051.08744  23280134.828    23280147.465
       189.000         115.000
 02  6 21 21  5 30.0000000  0  9G25G15G 3G21G18G31G14G 9G17
  24124737.612    -2063842.58049  -1236497.54845  24124736.942    24124755.365
       217.000         149.000
  22427142.974     8278489.24349   6453576.27646  22427143.652    22427156.277
       229.000         180.000
  22355832.161     2238908.07849   1755947.96046  22355831.840    22355844.968
       231.000         182.000
  21335908.615     -187979.67749     -8337.86547  21335908.308    21335918.051
       243.000         205.000
  22679365.888     7170262.65349   5595229.16146  22679366.271    22679377.127
       228.000         175.000
  22949515.152    -6749349.32249  -5240420.37046  22949514.232    22949526.336
       221.000         168.000
  20280355.535    -7722932.26849  -5994543.01948  20280354.892    20280363.522
       240.000         214.000
  23691707.132     1176314.96849    926682.00945  23691707.182    23691720.293
       215.000         152.000
  23297936.028     9901685.39448   7715948.05144  23297940.791    23297954.871
       189.000         114.000
 02  6 21 21  6  0.0000000  0  9G25G15G 3G21G18G31G14G 9G17
  24106084.488    -2161863.79349  -1312877.34845  24106083.466    24106102.421
       214.000         150.000
  22443257.828     8363172.42249   6519563.05246  22443257.496    22443271.025
       227.000         179.000
  22365843.330     2291516.50449   1796941.43546  22365843.109    22365856.059
       229.000         182.000
  21337420.441     -180035.01449     -2147.22347  21337419.772    21337430.011
       242.000         205.000
  22690294.364     7227691.34449   5639978.71346  22690294.126    22690304.739
       228.000         176.000
  22947788.794    -6758421.13049  -5247489.33046  22947789.016    22947800.039
       222.000         167.000
  20277548.496    -7737683.38549  -6006037.37048  20277548.116    20277556.439
       241.000         215.000
  23701466.757     1227600.90549    966645.03045  23701466.926    23701482.006
       216.000         151.000
  23315791.774     9995515.91348   7789062.47744  23315792.683    23315810.097
       185.000         112.000
 02  6 21 21  6 30.0000000  0  9G25G15G 3G21G18G31G14G 9G17
  24087427.915    -2259902.29749  -1389270.63745  24087426.182    24087445.713
       214.000         150.000
  22459432.241     8448169.61949   6585794.48246  22459432.049    22459445.325
       227.000         179.000
  22375927.591     2344509.64849   1838234.68946  22375928.097    22375940.066
       231.000         182.000
  21338950.673     -171993.24149      4119.08847  21338950.242    21338960.505
       242.000         205.000
  22701236.668     7285193.60849   5684785.59646  22701236.281    22701246.926
       228.000         176.000
  22946166.161    -6766948.69349  -5254134.19546  22946166.090    22946177.475
       222.000         167.000
  20274836.589    -7751934.68849  -6017142.25848  20274835.983    20274844.721
       241.000         215.000
  23711327.778     1279419.18649   1007022.85345  23711328.779    23711341.970
       217.000         151.000
  23333699.946    10089624.19948   7862393.30744                  23333693.830
       183.000         110.000
 02  6 21 21  7  0.0000000  0  9G25G15G 3G21G18G31G14G 9G17
  24068768.701    -2357955.66749  -1465675.52145  24068767.129    24068786.724
       214.000         151.000
  22475666.342     8533479.63649   6652269.68346  22475665.750    22475679.060
       227.000         178.000
  22386084.694     2397884.93449   1879825.72046  22386084.376    22386097.009
       232.000         182.000
  21340499.620     -163853.47049     10461.76947  21340498.850    21340509.588
       242.000         205.000
  22712193.102     7342769.38149   5729649.76446  22712193.486    22712203.217
       229.000         176.000
  22944646.799    -6774932.05249  -5260354.98846  22944646.292    22944658.516
       221.000         166.000
  20272219.597    -7765686.59849  -6027858.00148  20272218.855    20272227.661
       241.000         215.000
  23721289.802     1331768.53449   1047814.49645  23721289.773    23721302.211
       217.000         151.000
  23351660.935    10184009.05948   7935939.63044                  23351658.773
       187.000         106.000
 02  6 21 21  7 30.0000000  0  9G25G15G 3G21G18G31G14G 9G17
  24050107.193    -2456021.55749  -1542090.16745  24050105.768    24050123.880
       212.000         150.000
  22491959.704     8619100.83349   6718987.35546  22491959.620    22491972.106
       228.000         178.000
  22396313.902     2451639.35149   1921712.18246  22396314.434    22396326.290
       233.000         182.000
  21342067.168     -155615.38649     16881.05347  21342066.615    21342076.697
       242.000         205.000
  22723163.569     7400418.44449   5774571.04446  22723163.821    22723174.128
       228.000         176.000
  22943230.940    -6782372.01349  -5266152.38746  22943230.612    22943242.630
       222.000         166.000
  20269697.487    -7778940.06549  -6038185.35448  20269697.121    20269705.532
       241.000         215.000
  23731352.576     1384647.12349   1089018.53545  23731351.587    23731365.360
       218.000         152.000
  23369674.202    10278668.74948   8009700.18744                  23369676.809
       188.000         101.000
 02  6 21 21  8  0.0000000  0  9G25G15G 3G21G18G31G14G 9G17
  24031443.653    -2554096.64049  -1618511.96645  24031441.110    24031460.827
       212.000         147.000
  22508312.079     8705032.50149   6785946.96046  22508311.440    22508324.917
       228.000         178.000
  22406614.929     2505771.03749   1963892.61146  22406614.494    22406628.265
       231.000         182.000
  21343653.467     -147279.13249     23376.83047  21343652.757    21343663.018
       242.000         204.000
  22734147.882     7458141.33049   5819549.83246  22734147.377    22734159.159
       227.000         176.000
  22941918.524    -6789268.52949  -5271526.29646  22941918.690    22941931.222
       221.000         166.000
  20267270.264    -7791695.33749  -6048124.50348  20267269.881    20267278.178
       242.000         215.000
  23741515.644     1438053.84049   1130634.09245  23741514.492    23741528.124
       218.000         153.000
                  10373602.019 8   1789748.694 1
       186.000
 02  6 21 21  8 30.0000000  0  9G25G15G 3G21G18G31G14G 9G17
  24012778.961    -2652177.99549  -1694938.71945  24012777.440    24012796.613
       215.000         146.000
  22524723.419     8791273.62449   6853147.69646  22524723.219    22524736.407
       229.000         178.000
  22416987.183     2560277.67449   2006365.19546  22416987.343    22417000.084
       232.000         181.000
  21345258.648     -138843.81749     29949.79847  21345258.055    21345268.249
       242.000         204.000
  22745146.318     7515938.10449   5864586.19446  22745146.493    22745157.399
       228.000         176.000
  22940709.515    -6795621.85749  -5276476.96746  22940708.608    22940721.624
       223.000         167.000
  20264937.770    -7803952.86249  -6057675.79448  20264937.256    20264945.489
       241.000         215.000
  23751778.640     1491987.22149   1172660.07745  23751778.396    23751791.149
       214.000         152.000
                  10468807.68548   5324874.02343
       180.000          74.000
 02  6 21 21  9  0.0000000  0  9G25G15G 3G21G18G31G14G 9G17
  23994113.697    -2750262.94549  -1771368.23945  23994112.062    23994130.937
       213.000         148.000
  22541193.333     8877823.03749   6920588.66146  22541192.497    22541206.545
       229.000         179.000
  22427430.344     2615156.36549   2049127.71546  22427430.103    22427442.831
       231.000         181.000
  21346882.743     -130309.06249     36600.24747  21346882.361    21346892.558
       243.000         205.000
  22756158.880     7573808.95149   5909680.28746  22756158.140    22756168.940
       229.000         176.000
  22939603.815    -6801432.35149  -5281004.64746  22939602.943    22939616.057
       221.000         167.000
  20262699.792    -7815713.25449  -6066839.71248  20262699.275    20262707.396
       241.000         215.000
  23762141.550     1546445.87449   1215095.36845  23762141.472    23762154.429
       216.000         151.000
                  10564284.48348   5399279.90943
       172.000          74.000
 02  6 21 21  9 30.0000000  0  9G25G15G 3G21G18G31G14G 9G17
  23975448.357    -2848349.42949  -1847799.02045  23975447.973    23975465.369
       216.000         152.000
  22557721.614     8964679.21049   6988268.65346  22557720.565    22557734.457
       228.000         179.000
  22437943.816     2670404.49649   2092178.10246  22437943.915    22437956.186
       233.000         180.000
  21348525.870     -121674.65549     43328.34347  21348525.373    21348535.818
       243.000         205.000
  22767185.403     7631753.56549   5954831.85846  22767185.286    22767195.172
       228.000         175.000
  22938601.361    -6806700.67349  -5285109.85446  22938600.887    22938612.559
       222.000         167.000
  20260556.300    -7826977.54149  -6075617.05148  20260555.849    20260564.090
       241.000         215.000
  23772604.405     1601428.05249   1257938.57245  23772604.318    23772617.064
       218.000         153.000
                  10660030.70547   5473895.63243
       161.000          74.000
 02  6 21 21 10  0.0000000  0  8G25G15G 3G21G18G31G14G 9
  23956782.654    -2946437.39749  -1924230.92545  23956780.586    23956799.133
       212.000         152.000
  22574307.391     9051838.34649   7056184.72146  22574306.942    22574321.347
       229.000         178.000
  22448526.603     2726016.80449   2135512.25746  22448525.929    22448539.348
       232.000         180.000
  21350187.404     -112943.36549     50131.93547  21350187.063    21350197.151
       243.000         205.000
  22778225.508     7689769.38949   6000038.91046  22778226.312    22778236.350
       228.000         174.000
  22937701.324    -6811429.97149  -5288795.05246  22937700.880    22937714.400
       223.000         168.000
  20258506.514    -7837749.12649  -6084010.46948  20258505.958    20258514.370
       241.000         215.000
  23783166.246     1656929.49549   1301186.39945  23783165.767    23783177.672
       217.000         152.000
 02  6 21 21 10 30.0000000  0  8G25G15G 3G21G18G31G14G 9
  23938117.587    -3044521.71249  -2000660.01945  23938116.857    23938135.473
       214.000         153.000
  22590951.034     9139301.24749   7124337.49346  22590950.760    22590964.262
       229.000         177.000
  22459178.589     2781993.24949   2179130.16246  22459178.874    22459191.492
       231.000         181.000
  21351867.922     -104112.38449     57013.20947  21351867.700    21351877.308
       242.000         205.000
  22789279.673     7747858.80049   6045303.31246  22789279.240    22789290.914
       228.000         174.000
  22936904.393    -6815618.41049  -5292058.79046  22936904.092    22936917.106
       224.000         170.000
  20256550.805    -7848026.26649  -6092018.60648  20256550.202    20256558.433
       241.000         215.000
  23793826.748     1712950.69949   1344839.25645  23793826.507    23793839.037
       216.000         150.000
 02  6 21 21 11  0.0000000  0  8G25G15G 3G21G18G31G14G 9
  23919453.860    -3142599.02449  -2077083.65445  23919453.397    23919471.462
       213.000         150.000
  22607652.465     9227067.47549   7192726.62046  22607652.258    22607666.212
       229.000         177.000
  22469899.582     2838332.03149   2223030.40346  22469900.052    22469912.807
       231.000         181.000
  21353567.717      -95180.34949     63973.22747  21353567.163    21353577.264
       242.000         204.000
  22800347.954     7806022.68849   6090625.75446  22800347.758    22800358.823
       228.000         175.000
  22936210.502    -6819265.66349  -5294900.83346  22936209.742    22936222.584
       222.000         170.000
  20254689.202    -7857808.93549  -6099641.43448  20254688.521    20254697.199
       241.000         215.000
  23804586.022     1769490.98949   1388896.58745  23804587.227    23804597.433
       219.000         151.000
 02  6 21 21 11 30.0000000  0  8G25G15G 3G21G18G31G14G 9
  23900791.989    -3240666.72649  -2153499.83145  23900791.946    23900809.223
       217.000         150.000
  22624411.310     9315135.47449   7261350.88946  22624411.016    22624423.752
       229.000         176.000
  22480689.058     2895030.21149   2267210.67546  22480689.283    22480701.962
       230.000         181.000
  21355286.645      -86147.35849     71011.90347  21355286.323    21355296.144
       243.000         204.000
  22811430.366     7864261.05749   6136006.21146  22811430.365    22811441.307
       227.000         174.000
  22935619.276    -6822372.45949  -5297321.73446  22935619.181    22935632.093
       223.000         170.000
  20252921.442    -7867098.06349  -6106879.69048  20252920.945    20252929.346
       240.000         215.000
  23815443.927     1826548.62449   1433357.04745  23815444.151    23815455.941
       218.000         153.000
 02  6 21 21 12  0.0000000  0  8G25G15G 3G21G18G31G14G 9
  23882132.393    -3338722.55049  -2229906.72445  23882131.484    23882149.820
       218.000         153.000
  22641227.363     9403503.87049   7330209.23346  22641227.694    22641240.067
       227.000         174.000
  22491546.344     2952085.00049   2311668.83946  22491546.716    22491559.272
       231.000         181.000
  21357024.855      -77013.21849     78129.39347  21357024.310    21357034.496
       242.000         205.000
  22822527.023     7922573.82149   6181444.64946  22822526.314    22822537.786
       226.000         173.000
  22935130.745    -6824939.48049  -5299322.03746  22935130.909    22935142.808
       222.000         170.000
  20251247.501    -7875894.57149  -6113734.08548  20251246.933    20251255.595
       241.000         215.000
  23826399.515     1884121.60649   1478219.07845  23826399.107    23826412.076
       215.000         154.000
 02  6 21 21 12 30.0000000  0  8G25G15G 3G21G18G31G14G 9
  23863475.691    -3436763.76849  -2306302.24345  23863475.160    23863493.515
       220.000         154.000
  22658100.307     9492171.46049   7399300.71946  22658100.733    22658112.910
       226.000         172.000
  22502471.050     3009493.97349   2356402.97446  22502471.123    22502483.902
       228.000         180.000
  21358782.362      -67777.19749     85326.27447  21358781.693    21358792.284
       242.000         205.000
  22833637.864     7980961.12649   6226941.17246  22833637.791    22833648.560
       224.000         170.000
  22934744.911    -6826967.03649  -5300901.98346  22934744.507    22934757.264
       224.000         170.000
  20249667.191    -7884198.85349  -6120204.92848  20249666.548    20249675.216
       241.000         215.000
  23837452.902     1942208.46149   1523481.56045  23837452.395    23837465.005
       218.000         153.000
 02  6 21 21 13  0.0000000  0  8G25G15G 3G21G18G31G14G 9
  23844822.230    -3534787.78849  -2382684.35145  23844821.803    23844838.969
       215.000         152.000
  22675029.991     9581136.50449   7468624.00046  22675029.234    22675042.983
       226.000         171.000
  22513462.521     3067253.89349   2401410.59246  22513462.474    22513475.997
       230.000         180.000
  21360559.417      -58439.33649     92602.50647  21360559.043    21360569.214
       242.000         205.000
  22844762.596     8039422.44849   6272495.40246  22844762.430    22844773.832
       225.000         169.000
  22934461.688    -6828456.46149  -5302062.60746  22934461.443    22934473.512
       224.000         170.000
  20248180.320    -7892012.47549  -6126293.44548  20248179.697    20248188.011
       240.000         215.000
  23848603.878     2000807.10249   1569142.81045  23848603.685    23848615.681
       215.000         152.000
 02  6 21 21 13 30.0000000  0  8G25G15G 3G21G18G31G14G 9
  23826172.389    -3632792.49949  -2459051.44245  23826172.704    23826188.967
       216.000         151.000
  22692015.851     9670397.21149   7538177.64946  22692014.935    22692029.759
       225.000         170.000
  22524520.244     3125361.96449   2446689.50146  22524520.229    22524533.788
       231.000         180.000
  21362355.783      -48999.30949     99958.34647  21362355.219    21362365.476
       242.000         205.000
  22855901.443     8097957.65949   6318107.17246  22855901.459    22855912.260
       226.000         170.000
  22934280.693    -6829408.56149  -5302804.56146  22934280.038    22934292.483
       223.000         169.000
  20246786.557    -7899336.67449  -6132000.59348  20246786.172    20246794.484
       241.000         215.000
  23859851.844     2059915.30349   1615201.12145  23859851.329    23859864.900
       214.000         151.000
 02  6 21 21 14  0.0000000  0  8G25G15G 3G21G18G31G14G 9
  23807526.954    -3730774.53749  -2535400.82245  23807525.973    23807543.106
       218.000         154.000
  22709057.844     9759952.92549   7607961.16846  22709056.877    22709071.184
       223.000         170.000
  22535643.767     3183815.84749   2492237.86646  22535643.728    22535657.159
       229.000         178.000
  21364171.665      -39456.47349    107394.29347  21364171.302    21364181.498
       242.000         205.000
  22867054.604     8156567.32849   6363776.97046  22867054.697    22867065.853
       227.000         171.000
  22934201.657    -6829823.79749  -5303128.15546  22934200.833    22934213.076
       221.000         168.000
  20245485.875    -7906171.92349  -6137326.74248  20245485.522    20245493.472
       241.000         215.000
  23871196.499     2119531.55649   1661655.33645  23871196.914    23871210.840
       215.000         151.000
 02  6 21 21 14 30.0000000  0  8G25G15G 3G21G18G31G14G 9
  23788886.250    -3828731.23149  -2611730.45945  23788885.927    23788901.969
       217.000         155.000
  22726155.594     9849802.17549   7677973.40546  22726154.940    22726169.603
       222.000         170.000
  22546832.648     3242612.94649   2538053.64246  22546833.092    22546845.974
       230.000         178.000
  21366007.188      -29810.71649    114910.43647  21366007.111    21366017.065
       242.000         205.000
  22878221.971     8215251.54149   6409504.85746  22878221.037    22878232.296
       227.000         172.000
  22934224.540    -6829702.55049  -5303033.70846  22934224.427    22934236.702
       223.000         168.000
  20244278.123    -7912518.89149  -6142272.40748  20244277.538    20244285.768
       241.000         215.000
  23882637.734     2179654.58549   1708504.40645  23882637.984    23882650.897
       212.000         149.000
 02  6 21 21 15  0.0000000  0  8G25G15G 3G21G18G31G14G 9
  23770250.790    -3926660.59349  -2688038.81245  23770251.038    23770268.029
       220.000         157.000
  22743308.853     9939943.30149   7748213.06046  22743309.095    22743322.445
       222.000         169.000
  22558086.174     3301750.36149   2584134.61946  22558086.072    22558099.101
       229.000         178.000
  21367862.502      -20061.15849    122507.47547  21367861.987    21367872.207
       242.000         204.000
  22889403.386     8274010.07649   6455290.67146  22889402.426    22889415.002
       227.000         173.000
  22934349.507    -6829045.78549  -5302521.97146  22934349.021    22934360.922
       224.000         169.000
  20243162.981    -7918378.75749  -6146838.51348  20243162.310    20243170.816
       241.000         215.000
  23894174.648     2240282.26549   1755746.78345  23894172.768    23894188.562
       214.000         146.000
 02  6 21 21 15 30.0000000  0  8G25G15G 3G21G18G31G14G 9
  23751621.179    -4024559.44449  -2764323.37345  23751619.956    23751637.724
       219.000         158.000
  22760517.589    10030375.23849   7818679.32946  22760517.602    22760531.451
       223.000         169.000
  22569403.900     3361225.81649   2630479.01246  22569402.518    22569417.988
       226.000         177.000
  21369737.532      -10207.39549    130185.70747  21369737.129    21369747.492
       242.000         204.000
  22900598.888     8332843.35549   6501134.70746  22900597.996    22900610.133
       226.000         173.000
  22934576.454    -6827853.85849  -5301593.24046  22934575.993    22934588.511
       224.000         169.000
  20242140.505    -7923751.97649  -6151025.41648  20242140.108    20242148.163
       241.000         216.000
  23905807.219     2301413.18449   1803381.26145  23905807.054    23905819.334
       212.000         145.000
 02  6 21 21 16  0.0000000  0  8G25G15G 3G21G18G31G14G 9
  23732997.656    -4122425.31049  -2840582.21845  23732996.968    23733013.172
       219.000         158.000
  22777781.552    10121096.54349   7889371.06546  22777781.210    22777795.196
       223.000         170.000
  22580785.394     3421036.21049   2677084.36146  22580785.877    22580798.673
       230.000         177.000
  21371632.396        -249.89749    137944.77547  21371631.817    21371641.971
       242.000         204.000
  22911808.728     8391751.63649   6547037.18146  22911808.615    22911819.898
       224.000         172.000
  22934905.030    -6826127.90649  -5300248.36446  22934905.555    22934915.804
       225.000         169.000
  20241210.417    -7928639.83749  -6154834.12548  20241209.972    20241218.181
       240.000         216.000
  23917535.140     2363044.98049   1851406.05545  23917535.085    23917547.520
       215.000         146.000
 02  6 21 21 16 30.0000000  0  8G25G15G 3G21G18G31G14G 9
  23714380.926    -4220255.93049  -2916813.59645  23714380.126    23714396.885
       219.000         158.000
  22795100.322    10212105.29549   7960286.79046  22795100.820    22795113.774
       224.000         170.000
  22592230.148     3481178.24349   2723948.15146  22592230.724    22592243.827
       230.000         177.000
  21373547.036        9811.73049    145784.98247  21373546.472    21373556.899
       242.000         204.000
  22923032.725     8450734.17949   6592997.51446  22923031.765    22923044.028
       221.000         171.000
  22935334.893    -6823869.10949  -5298488.28846  22935333.779    22935346.064
       222.000         169.000
  20240372.353    -7933043.67649  -6158265.66748  20240372.052    20240380.192
       241.000         216.000
  23929358.220     2425175.38249   1899819.37845  23929357.251    23929371.414
       212.000         147.000
 02  6 21 21 17  0.0000000  0  8G25G15G 3G21G18G31G14G 9
  23695771.544    -4318047.77749  -2993014.74545  23695769.940    23695787.344
       219.000         158.000
  22812473.377    10303400.52149   8031425.76046  22812472.894    22812487.430
       223.000         170.000
  22603737.690     3541649.86149   2771068.76746  22603738.198    22603750.489
       229.000         178.000
  21375481.803       19979.16549    153707.62847  21375481.572    21375491.762
       243.000         204.000
  22934270.960     8509791.86349   6639016.39946  22934270.775    22934282.226
       223.000         170.000
  22935865.823    -6821077.70149  -5296313.20646  22935864.981    22935878.025
       221.000         168.000
  20239626.409    -7936963.72349  -6161320.23548  20239625.719    20239634.029
       241.000         216.000
  23941275.857     2487803.17549   1948620.25445  23941275.920    23941288.502
       215.000         148.000
 02  6 21 21 17 30.0000000  0  8G25G15G 3G21G18G31G14G 9
  23677170.054    -4415798.25749  -3069183.67445  23677169.557    23677185.693
       219.000         159.000
  22829900.584    10394980.67849   8102786.74046  22829900.399    22829915.433
       225.000         170.000
  22615307.366     3602448.41249   2818444.13046  22615307.099    22615320.764
       227.000         177.000
  21377436.755       30251.91649    161712.34547  21377436.609    21377446.663
       243.000         204.000
  22945523.694     8568925.09149   6685094.18446  22945523.275    22945535.336
       223.000         169.000
  22936498.240    -6817754.60449  -5293723.80846  22936498.832    22936510.424
       225.000         169.000
  20238972.336    -7940400.80949  -6163998.46648  20238971.811    20238979.962
       241.000         216.000
  23953287.879     2550926.42949   1997807.21045  23953287.104    23953300.300
       214.000         149.000
 02  6 21 21 18  0.0000000  0  8G25G15G 3G21G18G31G14G 9
  23658576.777    -4513505.28949  -3145318.73745  23658574.929    23658593.420
       221.000         160.000
  22847381.838    10486844.12049   8174368.45746  22847381.537    22847396.351
       225.000         170.000
  22626938.605     3663570.94249   2866071.93046  22626938.626    22626952.050
       227.000         176.000
  21379411.799       40629.99149    169799.13747  21379411.371    21379421.513
       243.000         205.000
  22956790.582     8628132.79949   6731230.00046  22956790.285    22956801.785
       223.000         167.000
  22937231.859    -6813900.96849  -5290721.00146  22937231.015    22937244.443
       224.000         170.000
  20238409.787    -7943356.92749  -6166301.91548  20238409.191    20238417.483
       241.000         216.000
  23965393.755     2614543.05249   2047378.61445  23965392.694    23965406.847
       215.000         149.000
 02  6 21 21 18 30.0000000  0  8G25G15G 3G21G18G31G14G 9
  23639992.262    -4611166.23949  -3221417.90645  23639991.454    23640009.160
       218.000         159.000
  22864916.662    10578989.42749   8246169.80546  22864915.738    22864930.639
       224.000         170.000
  22638630.979     3725014.42849   2913949.84746  22638631.402    22638643.777
       229.000         175.000
  21381406.871       51114.21549    177968.64147  21381406.580    21381416.462
       242.000         204.000
  22968071.780     8687415.52849   6777424.25446  22968072.344    22968083.454
       223.000         166.000
  22938065.872    -6809517.81049  -5287305.60246  22938065.188    22938078.074
       223.000         170.000
  20237938.581    -7945832.84849  -6168231.18648  20237938.217    20237946.374
       242.000         216.000
  23977593.089     2678650.81949   2097332.73945  23977592.958    23977606.451
       215.000         150.000
 02  6 21 21 19  0.0000000  0  8G25G15G 3G21G18G31G14G 9
  23621417.142    -4708777.75849  -3297478.55745  23621416.404    23621433.549
       218.000         159.000
  22882504.704    10671415.20449   8318189.71746  22882503.752    22882518.951
       224.000         170.000
  22650384.077     3786776.44949   2962075.98146  22650384.045    22650397.837
       227.000         174.000
  21383422.193       61704.92149    186221.12347  21383421.845    21383432.153
       242.000         204.000
  22979367.371     8746773.60349   6823677.20846  22979367.235    22979378.242
       223.000         166.000
  22939000.597    -6804605.74549  -5283478.03946  22939000.480    22939012.236
       226.000         171.000
  20237558.622    -7947829.56549  -6169787.05248  20237558.020    20237566.472
       241.000         216.000
  23989885.619     2743248.09749   2147668.32445  23989884.688    23989898.128
       214.000         150.000
 02  6 21 21 19 30.0000000  0  8G25G15G 3G21G18G31G14G 9
  23602851.883    -4806337.31249  -3373498.69345  23602849.897    23602866.678
       220.000         158.000
  22900145.804    10764120.08549   8390427.11146  22900145.249    22900160.130
       224.000         169.000
  22662197.087     3848854.03249   3010447.97346  22662197.187    22662210.430
       228.000         173.000
  21385457.937       72403.07749    194557.33247  21385457.436    21385468.145
       241.000         204.000
  22990677.341     8806207.13449   6869988.97746  22990676.306    22990688.350
       223.000         165.000
  22940036.084    -6799165.72049  -5279239.08446  22940035.934    22940048.397
       224.000         171.000
  20237269.686    -7949347.76849  -6170970.05148  20237269.560    20237277.651
       242.000         216.000
  24002270.729     2808332.80749   2198383.71645  24002270.104    24002282.641
       213.000         148.000
 02  6 21 21 20  0.0000000  0  8G25G15G 3G21G18G31G14G 9
  23584297.020    -4903842.48349  -3449476.46645  23584296.191    23584313.430
       218.000         159.000
  22917840.010    10857102.47849   8462880.73446  22917840.349    22917854.752
       225.000         170.000
  22674069.664     3911244.50749   3059063.77846  22674069.838    22674083.733
       227.000         174.000
  21387514.182       83208.79349    202977.35647  21387513.982    21387524.045
       241.000         204.000
  23002001.605     8865716.51749   6916359.86346  23002001.626    23002012.489
       224.000         165.000
  22941171.603    -6793198.74049  -5274589.53346  22941170.978    22941183.544
       225.000         171.000
  20237071.754    -7950388.41349  -6171780.92048  20237071.277    20237079.573
       242.000         217.000
  24014748.198     2873902.94949   2249477.33945  24014748.576    24014761.433
       217.000         147.000
 02  6 21 21 20 30.0000000  0  8G25G15G 3G21G18G31G14G 9
  23565753.019    -5001290.53249  -3525409.72045  23565752.469    23565767.937
       219.000         159.000
  22935586.889    10950360.94949   8535549.47446  22935587.373    22935601.165
       225.000         170.000
  22686001.359     3973945.30749   3107921.41846  22686001.248    22686014.834
       226.000         175.000
  21389591.102       94122.85049    211481.79847  21389590.764    21389601.108
       241.000         203.000
  23013340.394     8925301.55449   6962789.69446  23013340.676    23013351.245
       225.000         166.000
  22942407.239    -6786705.70449  -5269530.09146  22942406.453    22942419.598
       225.000         172.000
  20236964.272    -7950952.96549  -6172220.81148  20236963.801    20236971.925
       241.000         216.000
  24027317.842     2939956.66649   2300947.79345  24027317.794    24027329.111
       217.000         147.000
 02  6 21 21 21  0.0000000  0  8G25G15G 3G21G18G31G14G 9
  23547220.255    -5098679.14449  -3601296.66345  23547219.509    23547235.677
       219.000         160.000
  22953385.907    11043893.62949   8608431.90446  22953385.512    22953399.167
       223.000         169.000
  22697991.427     4036952.99549   3157018.16546  22697991.717    22698005.286
       228.000         174.000
  21391688.596      105144.85749    220070.36247  21391688.232    21391698.684
       241.000         203.000
  23024693.511     8984961.82249   7009278.14246  23024692.977    23024704.956
       225.000         168.000
  22943742.685    -6779688.14649  -5264061.90646  22943742.238    22943753.600
       226.000         172.000
  20236947.128    -7951042.95449  -6172290.91448  20236946.324    20236954.696
       241.000         216.000
  24039979.064     3006491.41749   2352793.07845  24039979.019    24039991.726
       218.000         148.000
 02  6 21 21 21 30.0000000  0  8G25G15G 3G21G18G31G14G 9
  23528699.574    -5196004.94149  -3677134.67546  23528698.631    23528716.002
       218.000         163.000
  22971236.637    11137699.40649   8681527.11046  22971237.103    22971250.465
       221.000         168.000
  22710039.592     4100265.24249   3206352.23146  22710039.867    22710053.822
       228.000         175.000
  21393806.742      116275.81949    228743.82347  21393806.236    21393816.819
       242.000         203.000
  23036061.005     9044698.20549   7055825.88646  23036060.117    23036072.019
       223.000         167.000
  22945177.852    -6772146.42949  -5258185.28346  22945177.404    22945189.368
       223.000         171.000
  20237020.142    -7950658.79049  -6171991.54748  20237019.803    20237027.851
       242.000         216.000
  24052731.550     3073505.66149   2405011.98445  24052730.781    24052745.876
       215.000         148.000
 02  6 21 21 22  0.0000000  0  8G25G15G 3G21G18G31G14G 9
  23510191.352    -5293265.06449  -3752921.48846  23510190.734    23510206.322
       220.000         164.000
  22989139.226    11231777.07749   8754834.16646  22989138.221    22989153.014
       220.000         166.000
  22722145.042     4163879.48849   3255921.62246  22722144.976    22722159.413
       226.000         176.000
  21395945.862      127516.90349    237503.09647  21395945.495    21395955.805
       242.000         204.000
  23047443.070     9104511.10249   7102433.24646  23047442.637    23047454.266
       223.000         167.000
  22946712.587    -6764081.35049  -5251900.86746  22946712.402    22946723.709
       223.000         170.000
  20237183.367    -7949801.34449  -6171323.38648  20237182.860    20237191.055
       241.000         216.000
  24065574.888     3140997.75749   2457603.24945  24065574.489    24065587.345
       214.000         147.000
 02  6 21 21 22 30.0000000  0  8G25G15G 3G21G18G31G14G 9
  23491696.279    -5390456.59049  -3828654.85146  23491695.518    23491711.041
       219.000         164.000
  23007093.065    11326125.23149   8828352.00446  23007093.361    23007107.268
       219.000         164.000
  22734307.468     4227793.30849   3305724.45946  22734307.047    22734322.249
       225.000         177.000
  21398106.146      138868.75249    246348.67447  21398105.860    21398115.784
       242.000         204.000
  23058839.848     9164400.72649   7149100.39746  23058840.087    23058850.842
       224.000         168.000
  22948346.602    -6755493.84749  -5245209.35946  22948346.091    22948359.152
       223.000         171.000
  20237436.362    -7948471.72049  -6170287.29248  20237435.795    20237443.858
       241.000         216.000
  24078508.429     3208965.64949   2510565.26445  24078507.686    24078520.750
       214.000         146.000
 02  6 21 21 23  0.0000000  0  8G25G15G 3G21G18G31G14G 9
  23473214.823    -5487576.91849  -3904332.74846  23473214.362    23473229.997
       220.000         164.000
  23025098.156    11420742.18649   8902079.29946  23025097.876    23025113.518
       220.000         164.000
  22746526.339     4292003.29449   3355758.06746  22746526.497    22746540.350
       229.000         176.000
  21400287.573      150331.79749    255280.89847  21400287.149    21400297.466
       242.000         204.000
  23070251.304     9224366.89449   7195827.17646  23070251.357    23070262.037
       225.000         169.000
  22950079.922    -6746385.49049  -5238111.98546  22950079.880    22950092.742
       225.000         171.000
  20237778.876    -7946671.55749  -6168884.54948  20237778.368    20237786.257
       241.000         216.000
  24091532.299     3277406.76349   2563896.03045  24091531.810    24091544.300
       215.000         146.000
 02  6 21 21 23 30.0000000  0  8G25G15G 3G21G18G31G14G 9
  23454747.083    -5584624.00249  -3979953.55346  23454745.857    23454762.593
       217.000         163.000
  23043154.028    11515625.86249   8976014.44246  23043153.867    23043168.000
       222.000         165.000
  22758801.055     4356506.12649   3406019.85646  22758802.039    22758814.606
       229.000         176.000
  21402490.041      161905.81949    264299.59747  21402489.575    21402499.738
       242.000         204.000
  23081677.137     9284409.34949   7242613.42046  23081676.358    23081687.435
       222.000         168.000
  22951912.070    -6736757.68749  -5230609.86746  22951911.552    22951924.186
       221.000         170.000
  20238210.683    -7944402.30149  -6167116.27448  20238210.099    20238218.263
       241.000         216.000
  24104645.951     3346318.79449   2617593.71745  24104646.261    24104659.643
       216.000         148.000
 02  6 21 21 24  0.0000000  0  8G25G15G 3G21G18G31G14G 9
  23436294.035    -5681594.30749  -4055514.54746  23436292.642    23436309.550
       220.000         163.000
  23061260.579    11610774.98449   9050156.41546  23061260.432    23061275.376
       222.000         165.000
  22771131.020     4421299.74349   3456508.26446  22771131.034    22771144.439
       229.000         177.000
  21404713.755      173591.40149    273405.23647  21404713.285    21404723.457
       242.000         203.000
  23093117.453     9344528.59149   7289459.47746  23093117.877    23093127.964
       224.000         167.000
  22953842.768    -6726611.15649  -5222703.53346  22953842.096    22953854.526
       222.000         168.000
  20238731.611    -7941664.63349  -6164983.01148  20238731.168    20238739.387
       242.000         216.000
  24117848.881     3415700.14949   2671657.10945  24117848.671    24117861.740
       214.000         149.000
 02  6 21 21 24 30.0000000  0  8G25G15G 3G21G18G31G14G 9
  23417856.008    -5778485.51949  -4131013.90345  23417855.286    23417870.760
       218.000         162.000
  23079417.373    11706188.32349   9124504.26746  23079416.402    23079432.050
       221.000         165.000
  22783515.684     4486381.34149   3507221.04446  22783515.221    22783529.635
       230.000         178.000
  21406958.828      185389.13749    282598.26847  21406958.491    21406968.424
       242.000         203.000
  23104572.546     9404725.02149   7336365.68946  23104571.778    23104583.258
       224.000         167.000
  22955871.890    -6715946.89949  -5214393.78446  22955871.721    22955884.652
       220.000         167.000
  20239341.470    -7938459.76549  -6162485.69148  20239341.006    20239349.332
       242.000         217.000
  24131140.691     3485548.75149   2726084.56545  24131140.719    24131153.759
       214.000         149.000
 02  6 21 21 25  0.0000000  0  8G25G15G 3G21G18G31G14G 9
  23399433.548    -5875295.11149  -4206449.68345  23399432.740    23399448.321
       216.000         161.000
  23097623.803    11801864.16249   9199056.64746  23097622.739    23097639.298
       221.000         165.000
  22795954.574     4551747.97649   3558155.92946  22795954.389    22795968.328
       226.000         177.000
  21409225.422      197299.92549    291879.39947  21409225.132    21409235.335
       242.000         203.000
  23116042.344     9464998.85749   7383332.22246  23116042.167    23116053.361
       225.000         168.000
  22957999.568    -6704766.15349  -5205681.57146  22957999.558    22958012.110
       221.000         168.000
  20240040.000    -7934788.91749  -6159625.27548  20240039.372    20240047.641
       241.000         216.000
  24144520.857     3555862.24949   2780874.29045  24144520.486    24144533.716
       214.000         148.000
 02  6 21 21 25 30.0000000  0  8G25G15G 3G21G18G31G14G 9
  23381027.062    -5972020.20949  -4281819.61745  23381026.202    23381042.502
       218.000         161.000
  23115879.947    11897800.50449   9273812.02846  23115879.560    23115895.725
       218.000         164.000
  22808447.122     4617396.25149   3609310.28446  22808447.011    22808460.849
       227.000         176.000
  21411513.392      209323.60449    301248.48047  21411512.728    21411523.465
       241.000         204.000
  23127526.789     9525349.73249   7430358.79546  23127527.006    23127537.366
       225.000         168.000
  22960225.348    -6693070.61349  -5196568.21446  22960224.827    22960237.805
       219.000         168.000
  20240826.873    -7930653.65449  -6156402.97348  20240826.507    20240834.478
       241.000         216.000
  24157989.200     3626638.25949   2836024.40845  24157989.112    24158002.914
       214.000         148.000
 02  6 21 21 26  0.0000000  0  8G25G15G 3G21G18G31G14G 9
  23362637.250    -6068658.14249  -4357121.63945  23362636.243    23362652.846
       217.000         162.000
  23134185.406    11993995.93249   9348769.29846  23134184.737    23134199.438
       219.000         163.000
  22820992.877     4683323.36249   3660681.91646  22820992.815    22821006.998
       228.000         175.000
  21413822.964      221460.88549    310706.08147  21413822.539    21413832.892
       242.000         204.000
  23139025.857     9585777.87649   7477445.57746  23139025.216    23139037.515
       225.000         169.000
  22962548.555    -6680861.43949  -5187054.62646  22962548.069    22962561.040
       218.000         166.000
  20241701.915    -7926055.13149  -6152819.69148  20241701.452    20241709.619
       242.000         216.000
  24171544.966     3697874.41949   2891533.11545  24171545.008    24171558.853
       216.000         148.000
 02  6 21 21 26 30.0000000  0  8G25G15G 3G21G18G31G14G 9
  23344264.698    -6165205.55349  -4432353.10946  23344263.882    23344279.748
       219.000         163.000
  23152540.037    12090449.26149   9423927.51745  23152539.800    23152554.885
       219.000         162.000
  22833591.266     4749527.00449   3712269.03646  22833590.844    22833605.233
       226.000         174.000
  21416154.468      233713.01249    320253.18147  21416153.635    21416164.356
       241.000         203.000
  23150539.770     9646284.03149   7524593.14746  23150539.915    23150551.587
       226.000         168.000
  22964969.402    -6668139.27149  -5177141.29346  22964969.732    22964982.156
       221.000         165.000
  20242664.961    -7920994.24149  -6148876.12648  20242664.325    20242672.765
       242.000         216.000
  24185188.079     3769569.18649   2947399.15045  24185186.884    24185200.505
       210.000         148.000
 02  6 21 21 27  0.0000000  0  8G25G15G 3G21G18G31G14G 9
  23325909.717    -6261660.61249  -4507512.62146  23325908.999    23325924.244
       221.000         165.000
  23170943.397    12187158.50549   9499285.14645  23170943.789    23170957.808
       218.000         161.000
  22846241.414     4816003.84849   3764069.00046  22846241.276    22846255.519
       226.000         173.000
  21418507.798      246080.13849    329889.88447  21418507.336    21418517.569
       241.000         203.000
  23162068.647     9706867.66149   7571801.09546  23162068.464    23162080.753
       227.000         169.000
  22967487.898    -6654906.07949  -5166829.75746  22967487.869    22967500.004
       220.000         164.000
  20243715.641    -7915472.83749  -6144573.72548  20243715.218    20243723.325
       242.000         217.000
  24198917.890     3841719.66449   3003620.27145  24198917.798    24198931.346
       211.000         145.000
 02  6 21 21 27 30.0000000  0  8G25G15G 3G21G18G31G14G 9
  23307572.891    -6358020.18449  -4582597.74646  23307572.703    23307588.708
       221.000         167.000
  23189395.158    12284122.14849   9574841.01645  23189394.336    23189409.623
       217.000         161.000
  22858943.199     4882751.37249   3816079.89946  22858942.373    22858956.739
       226.000         173.000
  21420883.058      258562.54649    339616.41547  21420882.622    21420892.947
       241.000         203.000
  23173612.334     9767529.15249   7619069.70246  23173611.852    23173623.580
       225.000         169.000
  22970103.073    -6641162.78449  -5156120.73045  22970102.029    22970115.136
       218.000         162.000
  20244853.770    -7909491.96049  -6139913.28748  20244853.320    20244861.380
       242.000         217.000
  24212733.812     3914323.95549   3060195.03645  24212734.243    24212746.928
       210.000         144.000
 02  6 21 21 28  0.0000000  0  8G25G15G 3G21G18G31G14G 9
  23289254.760    -6454280.85349  -4657605.79746  23289254.125    23289269.505
       222.000         168.000
  23207895.047    12381339.04849   9650594.20945  23207894.739    23207910.234
       218.000         161.000
  22871696.015     4949767.30949   3868299.97446  22871695.934    22871711.229
       227.000         172.000
  21423280.632      271161.87549    349434.04647  21423280.092    21423290.542
       242.000         203.000
  23185170.831     9828269.48749   7666399.73046  23185170.470    23185182.595
       224.000         169.000
  22972815.112    -6626910.13249  -5145014.82945  22972814.162    22972827.432
       218.000         162.000
  20246079.160    -7903052.35349  -6134895.39948  20246078.631    20246086.848
       242.000         217.000
  24226635.914     3987380.58649   3117122.30145  24226635.349    24226648.344
       210.000         143.000
 02  6 21 21 28 30.0000000  0  8G25G15G 3G21G18G31G14G 9
  23270956.084    -6550440.73849  -4732535.31146  23270955.813    23270971.121
       221.000         168.000
  23226442.615    12478806.60249   9726542.72545  23226441.849    23226457.897
       218.000         162.000
  22884499.037     5017047.80049   3920726.17046  22884498.901    22884513.053
       223.000         171.000
  21425700.365      283877.71749    359342.46147  21425699.657    21425710.016
       242.000         202.000
  23196744.223     9889087.96149   7713790.65446  23196743.958    23196756.098
       224.000         169.000
  22975624.048    -6612150.43149  -5133513.80046  22975624.536    22975636.374
       220.000         163.000
  20247391.513    -7896155.87649  -6129521.50148  20247391.033    20247399.156
       242.000         217.000
  24240623.490     4060886.22849   3174399.41945  24240623.516    24240637.078
       212.000         143.000
 02  6 21 21 29  0.0000000  0  8G25G15G 3G21G18G31G14G 9
  23252677.197    -6646497.12349  -4807384.17246  23252676.357    23252692.299
       222.000         168.000
  23245037.672    12576523.76249   9802685.74545  23245037.495    23245052.771
       217.000         162.000
  22897351.739     5084589.81149   3973356.19346  22897350.014    22897365.425
       219.000         169.000
  21428142.348      296710.43149    369341.94347  21428142.126    21428152.368
       242.000         202.000
  23208332.629     9949984.76249   7761242.61846  23208332.166    23208344.002
       223.000         168.000
  22978529.135    -6596884.85249  -5121618.57745  22978529.465    22978540.070
       218.000         160.000
  20248790.480    -7888804.13349  -6123792.85748  20248789.984    20248798.030
       242.000         217.000
  24254696.270     4134838.71749   3232024.71245  24254695.684    24254709.232
       214.000         145.000
 02  6 21 21 29 30.0000000  0  8G25G15G 3G21G18G31G14G 9
  23234418.457    -6742446.67749  -4882149.76646  23234417.408    23234433.157
       220.000         168.000
  23263680.057    12674489.25749   9879022.26145  23263680.809    23263695.576
       219.000         162.000
  22910253.985     5152391.25349   4026188.30746  22910255.000    22910269.232
       225.000         168.000
  21430606.898      309661.44749    379433.61147  21430606.450    21430616.976
       242.000         203.000
  23219935.969    10010960.78349   7808756.30446  23219936.383    23219947.380
       223.000         168.000
  22981529.987    -6581114.16249  -5109329.75345  22981529.338    22981541.961
       216.000         158.000
  20250275.972    -7880997.69149  -6117709.90148  20250275.366    20250283.797
       242.000         217.000
  24268853.942     4209236.59949   3289997.07445  24268852.933    24268868.021
       213.000         146.000
 02  6 21 21 30  0.0000000  0  8G25G15G 3G21G18G31G14G 9
  23216180.355    -6838286.91649  -4956830.23446  23216179.204    23216194.550
       221.000         167.000
  23282369.207    12772700.84349   9955550.54545  23282368.851    23282385.002
       216.000         161.000
  22923205.091     5220448.60549   4079219.86246  22923204.056    22923220.473
       222.000         168.000
  21433093.994      322730.98649    389617.64047  21433093.558    21433104.148
       242.000         203.000
  23231554.491    10072015.83049   7856331.56546  23231554.390    23231566.081
       224.000         168.000
  22984626.722    -6564840.23749  -5096648.81745  22984626.824    22984639.276
       219.000         160.000
  20251847.676    -7872738.24049  -6111273.95548  20251847.208    20251855.374
       242.000         217.000
  24283095.406     4284076.83649   3348314.12145  24283093.584    24283107.630
       211.000         146.000
 02  6 21 21 30 30.0000000  0  8G25G15G 3G21G18G31G14G 9
  23197963.694    -6934014.76649  -5031423.10946  23197963.304    23197978.677
       221.000         167.000
  23301104.978    12871157.22649  10032269.56745  23301105.191    23301120.918
       217.000         162.000
  22936204.338     5288759.52049   4132448.97246  22936205.036    22936220.374
       223.000         165.000
  21435603.737      335919.66749    399894.50147  21435603.451    21435613.628
       242.000         203.000
  23243188.128    10133150.11949   7903968.57646  23243188.495    23243199.535
       221.000         167.000
  22987819.102    -6548064.27449  -5083576.69446  22987818.864    22987832.256
       220.000         163.000
  20253505.417    -7864027.11449  -6104486.05648  20253504.910    20253513.099
       243.000         217.000
  24297420.833     4359357.55849   3406974.42145  24297421.355    24297434.022
       212.000         144.000
 02  6 21 21 31  0.0000000  0  8G25G15G 3G21G18G31G14G 9
  23179768.845    -7029627.94149  -5105926.60946  23179768.240    23179782.984
       221.000         165.000
  23319887.156    12969856.70449  10109178.00645  23319886.558    23319902.592
       217.000         161.000
  22949251.046     5357320.69249   4185873.09346  22949249.215    22949264.850
       213.000         163.000
  21438136.395      349228.27149    410264.80447  21438136.037    21438146.406
       243.000         203.000
  23254836.771    10194364.16149   7951667.71146  23254835.402    23254848.159
       219.000         165.000
  22991106.764    -6530787.72649  -5070114.50545  22991105.879    22991119.478
       218.000         162.000
  20255248.742    -7854865.79749  -6097347.36248  20255248.263    20255256.430
       242.000         217.000
  24311829.774     4435076.22749   3465975.99445  24311829.621    24311842.367
       213.000         143.000
 02  6 21 21 31 30.0000000  0  8G25G15G 3G21G18G31G14G 9
  23161596.442    -7125123.67549  -5180338.61446  23161595.931    23161611.027
       219.000         165.000
  23338715.064    13068797.33449  10186274.36545  23338714.964    23338730.264
       217.000         160.000
  22962344.836     5426129.32249   4239490.04646  22962346.488    22962359.691
       226.000         163.000
  21440691.875      362657.14949    420728.83147  21440691.528    21440701.725
       243.000         203.000
  23266500.565    10255657.81249   7999428.89145  23266500.027    23266510.631
       218.000         162.000
  22994489.021    -6513012.23649  -5056263.53545  22994488.257    22994501.046
       217.000         159.000
  20257077.463    -7845255.74849  -6089859.00548  20257076.967    20257085.038
       242.000         217.000
  24326321.503     4511230.57149   3525317.05245  24326320.629    24326333.993
       211.000         143.000
 02  6 21 21 32  0.0000000  0  8G25G15G 3G21G18G31G14G 9
  23143446.996    -7220498.41249  -5254656.33046  23143446.106    23143461.320
       216.000         164.000
  23357588.698    13167978.16849  10263557.88945  23357588.458    23357603.979
       216.000         157.000
  22975485.547     5495182.91549   4293297.90346  22975485.582    22975499.747
       225.000         167.000
  21443270.477      376207.53049    431287.54347  21443270.253    21443280.095
       243.000         203.000
  23278179.644    10317031.71849   8047252.61345  23278179.642    23278190.922
       219.000         161.000
  22997966.268    -6494738.67749  -5042024.45745  22997965.460    22997979.358
       219.000         161.000
  20258991.404    -7835197.84949  -6082021.67248  20258990.992    20258999.035
       242.000         217.000
  24340895.781     4587818.63549   3584996.08145  24340895.489    24340908.745
       210.000         142.000
 02  6 21 21 32 30.0000000  0  8G25G15G 3G21G18G31G14G 9
  23125320.867    -7315750.83449  -5328878.72446  23125319.724    23125335.409
       218.000         163.000
  23376507.556    13267396.21549  10341026.24445  23376507.641    23376522.933
       217.000         156.000
  22988672.078     5564477.48449   4347293.50046  22988672.373    22988686.521
       227.000         169.000
  21445872.096      389878.69749    441940.38047  21445871.912    21445881.831
       243.000         203.000
  23289873.900    10378485.02649   8095138.18945  23289873.586    23289884.686
       218.000         160.000
  23001538.004    -6475969.93449  -5027399.52346  23001538.146    23001551.446
       223.000         164.000
  20260990.044    -7824694.87049  -6073837.52648  20260989.349    20260997.399
       242.000         217.000
  24355552.035     4664836.87949   3645010.28845  24355551.712    24355564.609
       210.000         142.000
 02  6 21 21 33  0.0000000  0  8G25G15G 3G21G18G31G14G 9
  23107218.680    -7410877.86149  -5403003.44746  23107218.196    23107232.896
       220.000         163.000
  23395471.342    13367050.13049  10418678.39845  23395471.492    23395487.314
       217.000         156.000
  23001904.093     5634010.76749   4401475.10946  23001904.133    23001918.695
       229.000         170.000
  21448496.945      403672.10649    452688.46847  21448496.625    21448507.439
       243.000         203.000
  23301583.206    10440018.21549   8143086.03845  23301583.120    23301595.346
       219.000         160.000
  23005203.717    -6456706.90749  -5012389.46246  23005203.799    23005217.432
       222.000         165.000
  20263073.225    -7813747.51649  -6065307.11448  20263072.637    20263080.763
       242.000         217.000
  24370289.783     4742283.41749   3705358.22045  24370290.739    24370301.411
       206.000         142.000
 02  6 21 21 33 30.0000000  0  8G25G15G 3G21G18G31G14G 9
  23089140.952    -7505876.38849  -5477028.02846  23089140.501    23089154.554
       220.000         164.000
  23414479.774    13466938.27249  10496513.05345  23414479.473    23414495.136
       216.000         157.000
  23015180.920     5703779.49749   4455840.19246  23015180.382    23015195.180
       226.000         170.000
  21451145.131      417588.20349    463532.15347  21451144.662    21451155.316
       242.000         203.000
  23313307.902    10501631.62349   8191096.39445  23313307.853    23313319.435
       221.000         161.000
  23008963.333    -6436951.10849  -4996995.39646  23008963.406    23008976.360
       224.000         166.000
  20265240.715    -7802357.27749  -6056431.60048  20265240.496    20265248.307
       242.000         217.000
  24385108.245     4820155.91949   3766038.09545  24385107.202    24385120.803
       204.000         141.000
 02  6 21 21 34  0.0000000  0  8G25G15G 3G21G18G31G14G 9
  23071088.069    -7600743.07349  -5550949.88746  23071087.538    23071102.582
       218.000         165.000
  23433532.445    13567059.57649  10574529.38445  23433533.023    23433548.525
       216.000         156.000
  23028501.881     5773781.33349   4510386.91646  23028502.200    23028516.176
       227.000         170.000
  21453816.841      431627.83749    474472.10847  21453816.172    21453826.375
       242.000         202.000
  23325048.122    10563326.08849   8239169.92045  23325048.445    23325059.872
       220.000         161.000
  23012816.520    -6416703.69049  -4981218.25746  23012815.979    23012830.074
       223.000         167.000
  20267492.294    -7790525.30049  -6047211.87248  20267491.937    20267499.910
       243.000         217.000
  24400007.073     4898452.25149   3827048.24845  24400006.077    24400021.659
       203.000         139.000
 02  6 21 21 34 30.0000000  0  7G25G15G 3G21G18G31G14
  23053061.586    -7695472.17849  -5624764.53646  23053060.988    23053075.418
       222.000         166.000
  23452629.559    13667415.19949  10652728.30645  23452629.143    23452645.578
       214.000         155.000
  23041867.223     5844016.21449   4565115.21346  23041867.217    23041881.529
       225.000         170.000
  21456512.609      445794.79349    485511.27947  21456511.906    21456522.472
       242.000         201.000
  23336804.275    10625104.61749   8287308.94445  23336804.057    23336815.995
       221.000         160.000
  23016763.349    -6395963.24549  -4965056.94046  23016763.136    23016775.852
       225.000         168.000
  20269828.245    -7778249.97849  -6037646.66948  20269827.740    20269835.759
       242.000         217.000
 02  6 21 21 35  0.0000000  0  7G25G15G 3G21G18G31G14
  23035061.200    -7790065.10049  -5698473.06946  23035060.370    23035074.853
       225.000         167.000
  23471770.161    13767999.40949  10731105.33545  23471769.752    23471786.708
       212.000         153.000
  23055275.555     5914477.16649   4620019.67646  23055274.865    23055290.038
       222.000         170.000
  21459232.032      460085.55249    496646.92247  21459231.413    21459241.701
       242.000         201.000
  23348575.716    10686963.30249   8335510.42545  23348575.408    23348587.347
       220.000         159.000
  23020802.945    -6374735.52349  -4948515.93446  23020802.270    23020815.677
       224.000         169.000
  20272247.490    -7765536.86149  -6027740.33448  20272246.945    20272254.906
       243.000         217.000
 02  6 21 21 35 30.0000000  0  7G25G15G 3G21G18G31G14
  23017087.204    -7884518.81549  -5772073.13446  23017086.463    23017100.500
       224.000         168.000
  23490954.102    13868811.03449  10809659.60345  23490953.651    23490971.042
       214.000         151.000
  23068726.327     5985161.85249   4675098.46146  23068726.793    23068740.942
       225.000         169.000
  21461975.283      474501.46349    507880.09247  21461975.084    21461985.234
       242.000         201.000
  23360362.451    10748902.94049   8383774.99745  23360362.228    23360374.166
       220.000         157.000
  23024935.009    -6353021.61149  -4931596.08846  23024934.430    23024948.336
       224.000         169.000
  20274749.795    -7752386.91949  -6017493.62148  20274749.223    20274757.202
       242.000         217.000
 02  6 21 21 36  0.0000000  0  7G25G15G 3G21G18G31G14
  22999140.008    -7978830.92549  -5845562.85246  22999138.638    22999153.564
       223.000         169.000
  23510180.935    13969847.81249  10888389.28845  23510181.140    23510196.852
       212.000         150.000
  23082219.394     6056067.04549   4730349.08746  23082219.042    23082234.970
       221.000         169.000
  21464742.478      489043.10749    519211.24047  21464742.168    21464752.112
       242.000         201.000
  23372164.723    10810923.61449   8432102.69845  23372164.967    23372176.976
       219.000         157.000
  23029159.213    -6330823.37649  -4914298.81846  23029158.655    23029172.725
       224.000         170.000
  20277334.852    -7738802.13449  -6006908.06448  20277334.394    20277342.429
       242.000         217.000
 02  6 21 21 36 30.0000000  0  8G25G15G 3G21G18G31G14G11
  22981218.352    -8073008.04749  -5918947.40246  22981217.944    22981231.658
       223.000         169.000
  23529448.611    14071098.65649  10967285.76245  23529447.962    23529463.339
       212.000         150.000
  23095751.908     6127180.47549   4785761.94446  23095751.434    23095768.053
       218.000         169.000
  21467531.932      503701.87049    530633.64747  21467531.467    21467541.263
       242.000         200.000
  23383980.597    10873015.76149   8480486.10845  23383981.047    23383990.835
       222.000         157.000
  23033473.477    -6308152.00549  -4896632.89546  23033473.568    23033487.448
       226.000         170.000
  20280000.599    -7724793.29749  -5995992.07648  20280000.238    20280008.507
       243.000         217.000
  24689481.183    -2795129.64849  -1795907.75945  24689480.698    24689492.311
       212.000         145.000
 02  6 21 21 37  0.0000000  0  8G25G15G 3G21G18G31G14G11
  22963325.573    -8167033.59149  -5992213.83746  22963324.411    22963338.469
       224.000         168.000
  23548759.273    14172575.68849  11046358.48045  23548758.734    23548775.451
       211.000         150.000
  23109325.942     6198512.72749   4841345.35846  23109326.516    23109342.545
       222.000         168.000
  21470346.412      518492.08149    542158.47447  21470346.009    21470356.235
       242.000         200.000
  23395812.740    10935193.68749   8528936.37845  23395812.296    23395825.138
       221.000         158.000
  23037880.180    -6284995.40149  -4878588.85846  23037880.157    23037891.918
       224.000         171.000
  20282749.401    -7710348.13749  -5984736.09948  20282748.885    20282757.216
       242.000         217.000
  24670315.791    -2895842.89549  -1874385.47945  24670314.637    24670327.420
       211.000         145.000
 02  6 21 21 37 30.0000000  0  8G25G15G 3G21G18G31G14G11
  22945462.114    -8260905.33449  -6065360.42746  22945461.607    22945475.861
       224.000         169.000
  23568112.543    14274275.95349  11125605.14645  23568113.395    23568128.736
       212.000         149.000
  23122940.963     6270060.16349   4897096.41446  23122940.242    23122957.341
       219.000         167.000
  21473185.785      533413.13249    553785.25647  21473185.433    21473195.626
       242.000         201.000
  23407661.005    10997456.96649   8577453.13345  23407659.764    23407672.214
       219.000         157.000
  23042378.647    -6261356.07749  -4860168.67046  23042378.303    23042390.494
       227.000         169.000
  20285580.737    -7695469.17349  -5973142.09748  20285580.125    20285588.408
       242.000         217.000
  24651166.786    -2996470.55349  -1952796.51545  24651165.543    24651179.106
       213.000         146.000
 02  6 21 21 38  0.0000000  0  8G25G15G 3G21G18G31G14G11
  22927628.166    -8354622.57749  -6138386.62646  22927627.734    22927641.911
       227.000         169.000
  23587507.618    14376196.04349  11205023.10545  23587508.138    23587523.370
       210.000         148.000
  23136596.143     6341818.09149   4953011.51146  23136595.938    23136612.386
       220.000         167.000
  21476049.984      548464.47549    565513.55547  21476049.380    21476059.710
       242.000         201.000
  23419524.912    11059803.65349   8626034.90145  23419524.351    23419535.881
       219.000         157.000
  23046968.454    -6237237.57349  -4841375.09646  23046969.025    23046980.698
       227.000         170.000
  20288494.063    -7680159.67249  -5961212.60648  20288493.568    20288501.662
       242.000         217.000
  24632034.131    -3097012.39049  -2031140.68345  24632033.088    24632045.965
       211.000         146.000
 02  6 21 21 38 30.0000000  0  8G25G15G 3G21G18G31G14G11
  22909824.326    -8448182.53449  -6211290.25646  22909824.049    22909838.064
       225.000         170.000
  23606944.172    14478334.44349  11284611.18945  23606943.683    23606959.887
       209.000         145.000
  23150291.040     6413783.92349   5009088.57946  23150292.466    23150306.380
       224.000         167.000
  21478939.077      563646.45349    577343.65947  21478938.870    21478949.003
       242.000         201.000
  23431404.947    11122234.48149   8674682.22445  23431405.126    23431415.261
       219.000         157.000
  23051649.108    -6212641.37249  -4822209.26346  23051649.325    23051662.696
       228.000         172.000
  20291488.993    -7664421.09249  -5948948.76648  20291488.435    20291496.707
       242.000         217.000
  24612918.136    -3197466.07449  -2109416.15545  24612917.961    24612931.245
       213.000         146.000
 02  6 21 21 39  0.0000000  0  8G25G15G 3G21G18G31G14G11
  22892050.686    -8541583.02749  -6284069.65046  22892049.564    22892063.844
       226.000         170.000
  23626421.700    14580688.52149  11364367.34745  23626421.109    23626438.039
       206.000         143.000
  23164024.821     6485953.28649   5065324.30746  23164024.729    23164039.079
       222.000         168.000
  21481852.983      578958.98149    589275.49447  21481852.613    21481862.955
       242.000         201.000
  23443301.181    11184748.45349   8723394.35645  23443301.160    23443313.367
       220.000         158.000
  23056420.045    -6187570.26949  -4802673.41246  23056419.743    23056433.233
       226.000         172.000
  20294565.084    -7648255.94749  -5936352.53948  20294564.725    20294572.928
       242.000         217.000
  24593819.259    -3297830.41649  -2187621.99345  24593819.023    24593830.640
       213.000         146.000
 02  6 21 21 39 30.0000000  0  8G25G15G 3G21G18G31G14G11
  22874307.732    -8634821.46549  -6356722.75946  22874307.606    22874319.681
       225.000         170.000
  23645939.822    14683256.25649  11444289.97045  23645939.517    23645957.070
       205.000         140.000
  23177796.775     6558323.41249   5121716.38146  23177797.435    23177810.651
       223.000         169.000
  21484791.744      594402.46349    601309.35247  21484791.538    21484801.692
       243.000         202.000
  23455213.401    11247345.82349   8772171.45445  23455213.324    23455225.817
       221.000         160.000
  23061280.823    -6162026.25549  -4782769.06746  23061279.768    23061293.484
       225.000         170.000
  20297722.079    -7631665.83649  -5923425.16748  20297721.660    20297729.755
       242.000         217.000
  24574737.946    -3398103.49949  -2265756.73345  24574737.773    24574749.768
       215.000         147.000
 02  6 21 21 40  0.0000000  0  8G25G15G 3G21G18G31G14G11
  22856596.151    -8727895.24149  -6429247.56146  22856594.789    22856610.182
       224.000         169.000
  23665498.229    14786036.00749  11524377.77345  23665498.606    23665514.065
       205.000         137.000
  23191606.105     6630891.26449   5178262.62246  23191607.254    23191620.012
       224.000         169.000
  21487755.765      609978.23049    613446.30047  21487755.556    21487765.739
       243.000         202.000
  23467141.275    11310026.82549   8821013.70945  23467141.616    23467152.831
       218.000         160.000
  23066231.365    -6136010.94149  -4762497.45146  23066230.811    23066244.015
       225.000         169.000
  20300959.610    -7614652.43249  -5910167.96048  20300958.999    20300967.466
       242.000         217.000
  24555674.543    -3498283.05149  -2343818.58045  24555674.210    24555686.481
       216.000         146.000
 02  6 21 21 40 30.0000000  0  8G25G15G 3G21G18G31G14G11
  22838916.470    -8820801.28549  -6501641.64846  22838915.758    22838929.172
       223.000         169.000
  23685096.707    14889026.22749  11604629.58445  23685098.228    23685111.480
       204.000         134.000
  23205452.553     6703654.18249   5234960.79846  23205451.640    23205467.495
       219.000         168.000
  21490745.137      625687.15849    625686.99847  21490744.487    21490755.293
       242.000         202.000
  23479085.074    11372791.92549   8869921.49645  23479084.808    23479098.072
       218.000         159.000
  23071271.265    -6109526.02649  -4741859.91146  23071270.112    23071284.407
       224.000         169.000
  20304277.405    -7597217.15349  -5896582.02348  20304276.772    20304285.138
       242.000         217.000
  24536629.507    -3598366.62349  -2421805.64945  24536628.486    24536640.669
       213.000         145.000
 02  6 21 21 41  0.0000000  0  8G25G15G 3G21G18G31G14G11
  22821269.306    -8913537.26049  -6573903.22546  22821268.684    22821282.723
       225.000         170.000
  23704735.159    14992224.56649  11685043.55044  23704735.473    23704752.011
       199.000         131.000
  23219335.386     6776608.53349   5291808.14946  23219336.168    23219350.643
       223.000         168.000
  21493759.684      641529.06449    638031.32247  21493758.750    21493769.836
       242.000         201.000
  23491045.035    11435640.97649   8918894.69745  23491044.548    23491057.195
       218.000         160.000
  23076400.040    -6082573.85149  -4720858.28646  23076399.291    23076413.540
       226.000         171.000
  20307675.130    -7579362.03149  -5882668.93248  20307674.769    20307682.949
       243.000         217.000
  24517602.980    -3698352.32449  -2499716.49045  24517600.628    24517613.846
       212.000         143.000
 02  6 21 21 41 30.0000000  0  8G25G15G 3G21G18G31G14G11
  22803655.014    -9006100.31149  -6646030.06846  22803655.308    22803669.105
       227.000         172.000
  23724412.576    15095629.06349  11765618.20044  23724412.321    23724430.531
       198.000         130.000
  23233254.115     6849751.44549   5348802.46346  23233253.553    23233269.273
       220.000         166.000
  21496799.563      657504.41049    650479.62247  21496799.216    21496809.732
       241.000         201.000
  23503020.842    11498574.01249   8967933.35245  23503021.857    23503033.506
       218.000         160.000
  23081617.656    -6055156.25649  -4699494.01546  23081618.018    23081631.440
       228.000         172.000
  20311152.439    -7561088.70149  -5868429.96448  20311151.972    20311160.273
       242.000         217.000
  24498595.121    -3798238.20549  -2577549.52545  24498593.337    24498605.218
       212.000         143.000
 02  6 21 21 42  0.0000000  0  8G25G15G 3G21G18G31G14G11
  22786074.251    -9098487.31249  -6718019.73546  22786073.410    22786087.412
       227.000         173.000
  23744128.899    15199238.58049  11846352.57644  23744128.292    23744145.454
       203.000         129.000
  23247208.105     6923080.58849   5405941.86846  23247208.053    23247223.272
       221.000         166.000
  21499865.325      673615.13749    663033.42447  21499864.683    21499875.432
       241.000         200.000
  23515012.943    11561592.06349   9017038.23945  23515012.925    23515025.420
       219.000         161.000
  23086923.815    -6027274.38949  -4677767.97046  23086923.386    23086936.888
       224.000         172.000
  20314709.074    -7542398.19149  -5853865.91848  20314708.350    20314717.084
       242.000         217.000
  24479606.860    -3898021.15849  -2655302.37845  24479606.161    24479618.290
       210.000         142.000
 02  6 21 21 42 30.0000000  0  8G25G15G 3G21G18G31G14G11
  22768527.331    -9190695.77649  -6789870.28746  22768526.107    22768540.362
       227.000         175.000
  23763883.883    15303051.06749  11927245.13444  23763883.656    23763902.150
       198.000         128.000
  23261197.105     6996592.75649   5463223.89346  23261196.819    23261212.188
       220.000         166.000
  21502956.845      689861.49749    675692.90847  21502956.143    21502967.268
       240.000         200.000
  23527021.157    11624695.17349   9066209.40345  23527021.172    23527032.959
       218.000         161.000
  23092317.512    -5998930.34949  -4655681.78946  23092317.671    23092330.781
       224.000         171.000
  20318344.757    -7523292.24349  -5838978.15748  20318344.413    20318352.845
       242.000         217.000
  24460638.290    -3997699.42749  -2732973.64445  24460636.853    24460647.900
       209.000         141.000
 02  6 21 21 43  0.0000000  0  8G25G15G 3G21G18G31G14G11
  22751014.984    -9282722.59849  -6861579.28746  22751014.181    22751028.624
       228.000         176.000
  23783677.156    15407064.97649  12008294.58344  23783679.162    23783694.556
       200.000         126.000
  23275220.626     7070285.14249   5520646.32046  23275222.009    23275236.150
       223.000         167.000
  21506074.405      706244.51649    688458.87747  21506074.165    21506084.998
       241.000         201.000
  23539045.549    11687883.76349   9115447.18145  23539044.678    23539056.082
       219.000         161.000
  23097798.778    -5970125.99349  -4633236.91746  23097798.387    23097812.319
       226.000         172.000
  20322059.317    -7503772.53649  -5823767.99248  20322059.081    20322067.057
       243.000         217.000
  24441690.134    -4097270.48549  -2810561.38045  24441690.899    24441701.873
       208.000         141.000
 02  6 21 21 43 30.0000000  0  8G25G15G 3G21G18G31G14G11
  22733537.822    -9374565.16349  -6933144.72846  22733537.390    22733551.838
       227.000         177.000
  23803508.376    15511278.37949  12089499.52544  23803506.865    23803525.900
       195.000         123.000
  23289277.719     7144154.66849   5578206.81546  23289278.348    23289293.971
       225.000         167.000
  21509218.201      722764.82549    701331.82647  21509218.208    21509228.346
       241.000         201.000
  23551086.211    11751157.84349   9164751.57845  23551086.442    23551097.331
       221.000         161.000
  23103367.400    -5940863.37249  -4610434.96446  23103367.242    23103380.587
       226.000         174.000
  20325852.237    -7483840.72149  -5808236.70648  20325851.666    20325860.034
       243.000         217.000
  24422762.991    -4196732.37249  -2888064.05245  24422762.993    24422773.861
       204.000         140.000
 02  6 21 21 44  0.0000000  0  8G25G15G 3G21G18G31G14G11
  22716096.068    -9466221.41749  -7004564.98646  22716094.715    22716109.454
       227.000         178.000
  23823376.752    15615688.56648  12170857.80044  23823377.829    23823394.822
       194.000         118.000
  23303367.815     7218197.93549   5635902.70346  23303366.915    23303385.056
       223.000         168.000
  21512388.138      739422.46149    714311.78447  21512387.674    21512398.453
       241.000         201.000
  23563143.179    11814516.99349   9214122.25545  23563142.566    23563155.318
       220.000         162.000
  23109022.754    -5911145.07049  -4587277.93146  23109023.336    23109036.104
       228.000         174.000
  20329723.090    -7463499.14349  -5792386.11748  20329722.586    20329731.012
       243.000         217.000
  24403857.007    -4296083.28849  -2965480.23545  24403854.603    24403867.892
       206.000         137.000
 02  6 21 21 44 30.0000000  0  8G25G15G 3G21G18G31G14G11
  22698690.328    -9557688.05249  -7075837.50046  22698689.484    22698704.213
       227.000         178.000
  23843282.864    15720294.16848  12252368.32344  23843287.346    23843300.413
       191.000         116.000
  23317490.519     7292412.25849   5693731.85146  23317490.587    23317507.097
       223.000         168.000
  21515584.391      756218.85549    727399.86247  21515584.031    21515595.155
       241.000         201.000
  23575216.338    11877962.16049   9263559.94845  23575216.167    23575228.953
       223.000         162.000
  23114764.478    -5880972.65049  -4563767.05646  23114763.792    23114777.375
       227.000         174.000
  20333671.710    -7442749.14849  -5776217.28248  20333671.392    20333679.211
       242.000         217.000
  24384972.750    -4395320.71049  -3042807.98745  24384972.235    24384982.211
       205.000         136.000
 02  6 21 21 45  0.0000000  0  8G25G15G 3G21G18G31G14G11
  22681321.229    -9648962.60549  -7146960.33346  22681321.008    22681335.012
       227.000         178.000
  23863225.990    15825093.13248  12334029.51844  23863230.199    23863244.184
       189.000         111.000
  23331645.229     7366794.51749   5751691.85746  23331645.528    23331661.557
       224.000         166.000
  21518807.128      773154.09749    740596.13847  21518806.710    21518817.438
       241.000         201.000
  23587306.040    11941493.12749   9313064.50645  23587306.497    23587318.238
       223.000         162.000
  23120592.176    -5850348.27749  -4539903.99446  23120592.027    23120605.939
       227.000         174.000
  20337697.603    -7421592.67249  -5759731.71248  20337696.885    20337705.341
       242.000         217.000
  24366110.271    -4494442.55149  -3120045.64345  24366109.354    24366121.757
       208.000         136.000
 02  6 21 21 45 30.0000000  0  8G25G15G 3G21G18G31G14G11
  22663989.097    -9740042.74649  -7217931.67046  22663988.447    22664002.250
       226.000         178.000
  23883205.411    15930083.16948  12415839.59144                  23883202.553
       187.000         107.000
  23345831.141     7441341.44849   5809780.21646  23345830.478    23345846.779
       223.000         163.000
  21522056.438      790229.42249    753901.57447  21522055.951    21522066.195
       240.000         200.000
  23599412.089    12005109.74649   9362635.82245  23599413.196    23599424.313
       222.000         161.000
  23126505.475    -5819274.29949  -4515690.58546  23126504.894    23126518.138
       229.000         176.000
  20341800.460    -7400031.65749  -5742930.91948  20341799.845    20341808.369
       242.000         217.000
  24347270.244    -4593446.96449  -3197191.81745  24347269.796    24347280.256
       209.000         138.000
 02  6 21 21 46  0.0000000  0  8G25G15G 3G21G18G31G14G11
  22646694.394    -9830925.62949  -7288749.31846  22646693.780    22646707.521
       227.000         178.000
  23903220.912    16035263.06048  12497797.61444                  23903225.122
       189.000         105.000
  23360047.804     7516050.66649   5867994.99345  23360048.855    23360062.227
       222.000         161.000
  21525332.562      807445.66949    767316.82147  21525332.682    21525342.504
       241.000         199.000
  23611534.567    12068812.95849   9412274.60045  23611534.765    23611547.445
       221.000         160.000
  23132504.022    -5787752.27849  -4491128.03946  23132504.191    23132517.209
       229.000         177.000
  20345980.057    -7378067.40149  -5725815.91048  20345979.372    20345987.665
       242.000         216.000
  24328453.314    -4692331.28949  -3274244.39945  24328453.442    24328466.126
       208.000         139.000
 02  6 21 21 46 30.0000000  0  8G25G15G 3G21G18G31G14G11
  22629437.999    -9921608.18849  -7359410.84746  22629437.426    22629451.140
       227.000         177.000
                  16140630.64948  12579901.84744
       187.000         101.000
  23374294.894     7590919.11649   5926333.83045  23374293.943    23374309.908
       219.000         159.000
  21528635.559      824802.92649    780841.94747  21528635.226    21528645.548
       241.000         199.000
  23623673.465    12132602.93049   9461980.97045  23623672.822    23623686.212
       221.000         160.000
  23138587.361    -5755784.37349  -4466218.06746  23138586.410    23138601.069
       228.000         175.000
  20350235.980    -7355701.91149  -5708388.25448  20350235.495    20350243.964
       241.000         216.000
  24309659.577    -4791093.51049  -3351201.84345  24309659.813    24309670.320
       210.000         138.000
 02  6 21 21 47  0.0000000  0  8G25G15G 3G21G18G31G14G11
  22612220.291   -10012087.09649  -7429913.70146  22612219.836    22612232.968
       229.000         177.000
                  16246184.512 8     76495.355 1
       189.000
  23388571.796     7665944.05349   5984794.63945  23388571.679    23388586.929
       220.000         159.000
  21531965.673      842302.28649    794477.79847  21531965.650    21531975.650
       242.000         199.000
  23635828.905    12196480.23649   9511755.41645  23635827.637    23635840.013
       221.000         158.000
  23144755.247    -5723372.19449  -4440961.91646  23144753.950    23144769.081
       225.000         174.000
  20354568.153    -7332936.30449  -5690648.82448  20354567.766    20354575.882
       242.000         216.000
  24290889.605    -4889730.66449  -3428061.83245  24290889.837    24290900.086
       213.000         138.000
 02  6 21 21 47 30.0000000  0  8G25G15G 3G21G18G31G14G11
  22595041.832   -10102359.98649  -7500256.01446  22595041.248    22595054.895
       228.000         178.000
                  16351922.66648   8163901.68543
       184.000          74.000
  23402878.053     7741122.38149   6043374.96345  23402879.484    23402894.093
       221.000         158.000
  21535323.061      859944.93649    808225.30947  21535322.337    21535333.156
       241.000         199.000
  23648000.914    12260444.99149   9561597.99545  23648000.110    23648013.747
       220.000         157.000
  23151007.050    -5690517.79249  -4415361.17546  23151006.722    23151020.731
       227.000         173.000
  20358976.159    -7309772.33749  -5672598.97748  20358976.004    20358983.986
       242.000         216.000
  24272143.900    -4988240.75849  -3504822.83745  24272143.065    24272154.989
       214.000         140.000
 02  6 21 21 48  0.0000000  0  8G25G15G 3G21G18G31G14G11
  22577902.952   -10192424.29549  -7570435.80946  22577902.383    22577915.912
       229.000         178.000
                  16457843.07548   8246359.86543
       188.000          74.000
  23417212.968     7816450.82749   6102072.23745  23417215.499    23417228.192
       223.000         158.000
  21538707.785      877731.94449    822085.30547  21538707.323    21538717.866
       241.000         199.000
  23660189.678    12324497.14749   9611508.66545  23660189.492    23660201.152
       218.000         156.000
  23157342.668    -5657223.82549  -4389417.88546  23157341.606    23157355.320
       226.000         172.000
  20363459.601    -7286212.11949  -5654240.36548  20363459.340    20363467.368
       243.000         216.000
  24253422.528    -5086621.63249  -3581483.13345  24253422.045    24253433.969
       214.000         142.000
 02  6 21 21 48 30.0000000  0  8G25G15G 3G21G18G31G14G11
  22560804.465   -10282276.96549  -7640450.68446  22560804.560    22560817.090
       230.000         179.000
                  16563944.09148   8328958.76743
       179.000          74.000
  23431575.673     7891926.78449   6160884.49145  23431576.817    23431590.620
       221.000         158.000
  21542120.041      895663.85949    836058.21447  21542119.411    21542130.214
       241.000         199.000
  23672395.174    12388637.23949   9661487.86745  23672394.882    23672407.604
       219.000         156.000
  23163761.618    -5623491.89249  -4363133.33146  23163760.402    23163774.568
       223.000         171.000
  20368018.040    -7262257.30249  -5635574.27648  20368017.325    20368025.825
       242.000         216.000
  24234726.365    -5184870.72849  -3658040.75045  24234725.279    24234738.713
       213.000         143.000
 02  6 21 21 49  0.0000000  0  8G25G15G 3G21G18G31G14G11
  22543746.777   -10371915.48849  -7710298.69946  22543746.639    22543759.295
       230.000         180.000
                  16670223.70558   8269985.90743
       174.000          74.000
  23445965.755     7967547.16849   6219809.25745  23445966.435    23445980.379
       216.000         157.000
  21545560.081      913741.06449    850144.34047  21545559.829    21545570.040
       242.000         200.000
  23684617.667    12452865.84549   9711536.03145  23684617.361    23684629.979
       217.000         156.000
  23170263.442    -5589324.24949  -4336509.27746  23170263.500    23170276.714
       223.000         171.000
  20372651.234    -7237909.52549  -5616601.98748  20372650.827    20372659.159
       242.000         216.000
  24216055.478    -5282985.95449  -3734494.06945  24216054.474    24216066.178
       215.000         144.000
 02  6 21 21 49 30.0000000  0  8G25G15G 3G21G18G31G14G11
  22526730.440   -10461337.02449  -7779977.63846  22526729.999    22526742.707
       231.000         180.000
                  16776680.26148   8352904.04943
       169.000          74.000
  23460383.071     8043309.17849   6278844.38645  23460383.365    23460399.216
       214.000         157.000
  21549028.005      931964.73549    864344.60447  21549027.739    21549037.846
       242.000         199.000
  23696856.893    12517183.07349   9761653.24545  23696856.538    23696868.307
       216.000         156.000
  23176847.994    -5554722.80449  -4309547.20346  23176848.052    23176861.350
       223.000         172.000
  20377358.957    -7213170.43249  -5597324.76748  20377358.498    20377366.750
       242.000         216.000
  24197410.458    -5380964.89749  -3810841.18945  24197409.752    24197422.920
       214.000         146.000
 02  6 21 21 50  0.0000000  0  8G25G15G 3G21G18G31G14G11
  22509755.940   -10550538.66349  -7849485.22346  22509755.301    22509767.698
       230.000         180.000
                  16883322.50858   8435966.92143
       169.000          74.000
  23474826.727     8119209.68249   6337987.42545  23474825.956    23474842.611
       214.000         158.000
  21552523.954      950335.74949    878659.67847  21552523.738    21552534.172
       242.000         200.000
  23709112.971    12581588.97949   9811839.55045  23709112.413    23709124.293
       217.000         155.000
  23183514.653    -5519689.92449  -4282248.91846  23183515.286    23183527.880
       226.000         172.000
  20382140.788    -7188041.77949  -5577744.00148  20382140.338    20382148.436
       243.000         216.000
  24178791.936    -5478805.32249  -3887080.38145  24178790.991    24178804.170
       217.000         147.000
 02  6 21 21 50 30.0000000  0  7G25G 3G21G18G31G14G11
  22492823.607   -10639517.22149  -7918818.99646  22492822.483    22492835.820
       229.000         180.000
  23489296.120     8195246.42549   6397236.63945  23489294.660    23489313.073
       212.000         158.000
  21556048.203      968855.56849    893090.70247  21556047.769    21556057.991
       241.000         200.000
  23721385.991    12646084.38149   9862095.61045  23721384.387    23721399.193
       217.000         155.000
  23190263.138    -5484227.02949  -4254615.56646  23190262.745    23190276.368
       225.000         172.000
  20386996.453    -7162524.89649  -5557860.71448  20386996.136    20387004.231
       243.000         217.000
  24160200.387    -5576504.20149  -3963209.30045  24160199.272    24160212.231
       215.000         147.000
 02  6 21 21 51  0.0000000  0  7G25G 3G21G18G31G14G11
  22475934.452   -10728268.53849  -7987975.68946  22475933.075    22475946.581
       228.000         179.000
  23503790.978     8271417.83749   6456590.74645  23503790.375    23503807.594
       211.000         157.000
  21559601.058      987526.10549    907639.15947  21559600.609    21559610.911
       241.000         200.000
  23733676.532    12710671.21449   9912422.89845  23733676.358    23733689.359
       217.000         156.000
  23197093.060    -5448335.20249  -4226647.97346  23197092.347    23197106.391
       225.000         172.000
  20391926.006    -7136620.18049  -5537675.21848  20391925.534    20391933.938
       243.000         217.000
  24141636.273    -5674057.86549  -4039225.05745  24141636.213    24141648.086
       214.000         147.000
 02  6 21 21 51 30.0000000  0  7G25G 3G21G18G31G14G11
  22459088.522   -10816792.99049  -8056955.59046  22459088.367    22459100.583
       228.000         179.000
  23518310.652     8347718.16549   6516045.30645  23518309.773    23518326.427
       212.000         156.000
  21563182.170     1006345.11049    922303.30147  21563181.810    21563192.277
       240.000         200.000
  23745984.063    12775346.71449   9962819.28345  23745983.708    23745996.307
       218.000         156.000
  23204003.872    -5412019.17049  -4198349.83946  23204004.212    23204017.649
       227.000         173.000
  20396928.398    -7110332.13349  -5517191.02848  20396927.931    20396936.328
       243.000         217.000
  24123100.024    -5771466.79849  -4115128.03545  24123098.696    24123109.387
       214.000         147.000
 02  6 21 21 52  0.0000000  0  7G25G 3G21G18G31G14G11
  22442286.527   -10905087.44949  -8125756.26746  22442285.779    22442299.085
       227.000         180.000
  23532854.462     8424144.63649   6575598.13545  23532853.544    23532870.318
       213.000         156.000
  21566791.853     1025314.15949    937084.36047  21566791.311    21566802.149
       240.000         199.000
  23758308.294    12840111.40049  10013285.16745  23758308.176    23758320.257
       220.000         157.000
  23210995.067    -5375281.31449  -4169723.02646  23210994.383    23211008.510
       226.000         174.000
  20402003.435    -7083662.80649  -5496409.73248  20402003.237    20402011.250
       244.000         217.000
  24104591.644    -5868728.90049  -4190916.58245  24104591.668    24104602.640
       217.000         150.000
 02  6 21 21 52 30.0000000  0  7G25G 3G21G18G31G14G11
  22425528.867   -10993148.56749  -8194375.13646  22425528.220    22425541.800
       228.000         181.000
  23547421.671     8500695.04249   6635247.55445  23547422.079    23547438.463
       213.000         156.000
  21570430.313     1044434.16949    951983.04847  21570430.162    21570440.407
       241.000         199.000
  23770649.772    12904966.13049  10063821.20745  23770649.282    23770662.014
       218.000         156.000
  23218066.253    -5338122.85949  -4140768.45746  23218066.337    23218079.908
       228.000         173.000
  20407150.934    -7056613.08849  -5475332.03048  20407150.524    20407158.586
       244.000         217.000
  24086111.861    -5965840.84149  -4266588.12445  24086111.592    24086124.184
       216.000         151.000
 02  6 21 21 53  0.0000000  0  7G25G 3G21G18G31G14G11
  22408816.028   -11080974.43349  -8262810.66646  22408815.150    22408829.127
       229.000         182.000
  23562012.023     8577365.94949   6694990.88445  23562012.318    23562030.207
       217.000         157.000
  21574097.655     1063706.09349    967000.11947  21574097.073    21574107.485
       240.000         199.000
  23783008.299    12969910.71849  10114427.28045  23783008.975    23783020.589
       219.000         157.000
  23225216.935    -5300546.71949  -4111488.42546  23225215.878    23225230.779
       227.000         173.000
  20412370.325    -7029185.21449  -5453959.66248  20412369.671    20412378.023
       243.000         217.000
  24067660.971    -6062800.99649  -4342141.39145  24067659.546    24067671.259
       213.000         151.000
 02  6 21 21 53 30.0000000  0  7G25G 3G21G18G31G14G11
  22392148.608   -11168561.74849  -8331060.33146  22392148.009    22392161.124
       229.000         183.000
  23576624.722     8654154.62949   6754825.99445  23576626.181    23576640.858
       218.000         158.000
  21577794.062     1083130.86349    982136.28947  21577793.095    21577804.404
       239.000         198.000
  23795384.250    13034945.82049  10165103.87945  23795383.988    23795397.032
       219.000         156.000
  23232446.805    -5262554.63849  -4081884.28846  23232447.201    23232459.495
       228.000         172.000
  20417661.312    -7001380.74449  -5432293.84048  20417660.917    20417669.169
       243.000         217.000
  24049239.598    -6159606.28749  -4417573.97345  24049239.038    24049252.537
       215.000         150.000
 02  6 21 21 54  0.0000000  0  7G25G 3G21G18G31G14G11
  22375527.076   -11255908.20049  -8399122.30746  22375526.525    22375539.556
       231.000         184.000
  23591259.062     8731057.63049   6814750.18345  23591260.610    23591273.694
       218.000         157.000
  21581519.689     1102709.49749    997392.34747  21581518.915    21581530.274
       239.000         198.000
  23807777.473    13100071.25549  10215850.85845  23807778.458    23807790.917
       220.000         157.000
  23239755.305    -5224149.33549  -4051958.17346  23239754.433    23239767.942
       227.000         170.000
  20423023.592    -6973201.80449  -5410336.22348  20423023.095    20423031.436
       243.000         217.000
  24030848.080    -6256254.90349  -4492884.49345  24030846.981    24030859.312
       213.000         150.000
 02  6 21 21 54 30.0000000  0  7G25G 3G21G18G31G14G11
  22358951.975   -11343010.37449  -8466993.93946  22358951.900    22358964.036
       230.000         185.000
  23605914.652     8808072.67049   6874761.68445  23605914.975    23605931.169
       216.000         155.000
  21585274.769     1122442.78849   1012768.91447  21585274.206    21585285.301
       238.000         198.000
  23820187.965    13165288.00149  10266668.97845  23820188.067    23820200.615
       219.000         155.000
  23247141.985    -5185332.65149  -4021711.46846  23247140.629    23247156.042
       224.000         169.000
  20428456.870    -6944649.73749  -5388087.86448  20428456.564    20428464.329
       243.000         217.000
  24012486.427    -6352744.15149  -4568070.81445  24012485.742    24012498.321
       211.000         151.000
 02  6 21 21 55  0.0000000  0  7G25G 3G21G18G31G14G11
  22342423.831   -11429866.09149  -8534673.53546  22342423.352    22342436.030
       231.000         185.000
  23620590.962     8885196.77549   6934858.16045  23620590.955    23620605.949
       217.000         154.000
  21589059.329     1142330.89249   1028266.10847  21589058.786    21589069.825
       239.000         198.000
  23832615.778    13230595.99149  10317558.22245  23832615.184    23832627.968
       218.000         154.000
  23254606.236    -5146107.01349  -3991146.14346  23254605.612    23254619.141
       224.000         169.000
  20433960.733    -6915726.53349  -5365550.30748  20433960.004    20433968.540
       242.000         217.000
  23994155.567    -6449071.56949  -4643131.02745  23994154.572    23994167.725
       211.000         151.000
 02  6 21 21 55 30.0000000  0  7G25G 3G21G18G31G14G11
  22325943.200   -11516471.90949  -8602158.39646  22325942.352    22325955.542
       230.000         185.000
  23635287.618     8962427.34349   6995037.59045  23635287.771    23635303.362
       216.000         151.000
  21592873.870     1162376.16349   1043885.77647  21592873.615    21592884.248
       240.000         199.000
  23845060.997    13295995.94349  10368519.09245  23845061.667    23845072.722
       214.000         150.000
  23262147.949    -5106474.17749  -3960263.47246  23262147.221    23262159.828
       224.000         168.000
  20439534.952    -6886433.43049  -5342724.51648  20439534.315    20439542.887
       243.000         217.000
  23975856.350    -6545234.55949  -4718063.12745  23975856.200    23975867.553
       212.000         151.000
 02  6 21 21 56  0.0000000  0  7G25G 3G21G18G31G14G11
  22309510.493   -11602825.20449  -8669446.48646  22309509.468    22309522.139
       230.000         185.000
  23650004.064     9039761.71549   7055297.90845  23650003.173    23650020.248
       215.000         151.000
  21596718.387     1182578.95749   1059628.18147  21596717.883    21596728.634
       239.000         199.000
  23857523.591    13361488.22049  10419551.89445  23857522.661    23857535.555
       213.000         147.000
  23269766.878    -5066436.48549  -3929065.37446  23269766.326    23269779.714
       223.000         167.000
  20445179.237    -6856772.36449  -5319611.99748  20445178.657    20445187.320
       243.000         217.000
  23957588.744    -6641230.72449  -4792865.22345  23957587.267    23957600.680
       209.000         151.000
 02  6 21 21 56 30.0000000  0  7G25G 3G21G18G31G14G11
  22293126.355   -11688923.14649  -8736535.59946  22293125.300    22293138.237
       230.000         185.000
  23664739.537     9117196.96649   7115636.86145  23664739.172    23664756.799
       215.000         147.000
  21600593.024     1202940.18849   1075494.04147  21600592.791    21600603.264
       240.000         199.000
  23870003.964    13427073.41649  10470657.13145  23870003.770    23870018.028
       213.000         146.000
  23277462.454    -5025996.17649  -3897553.52046  23277462.178    23277475.453
       222.000         165.000
  20450893.139    -6826745.18949  -5296214.20148  20450892.492    20450900.963
       243.000         216.000
  23939353.181    -6737057.41349  -4867535.24845  23939352.871    23939365.349
       212.000         151.000
 02  6 21 21 57  0.0000000  0  7G25G 3G21G18G31G14G11
  22276791.153   -11774764.15349  -8803424.51246  22276790.449    22276803.388
       231.000         185.000
  23679493.610     9194729.46649   7176051.56745  23679493.698    23679510.916
       215.000         145.000
  21604497.889     1223459.73349   1091483.26747  21604497.408    21604508.078
       239.000         198.000
  23882502.151    13492750.76849  10521834.15245  23882502.088    23882516.339
       212.000         145.000
  23285234.130    -4985156.31649  -3865730.36146  23285234.568    23285247.781
       223.000         166.000
  20456676.283    -6796354.31649  -5272533.00748  20456675.848    20456684.098
       243.000         216.000
  23921150.348    -6832713.01349  -4942071.97445  23921150.732    23921162.444
       212.000         151.000
 02  6 21 21 57 30.0000000  0  7G25G 3G21G18G31G14G11
  22260505.494   -11860345.15149  -8870110.83746  22260504.823    22260517.466
       231.000         184.000
  23694265.671     9272356.06449   7236539.59845  23694265.701    23694280.485
       216.000         143.000
  21608432.904     1244138.66349   1107596.69247  21608432.094    21608442.558
       239.000         197.000
  23895017.842    13558520.50949  10573083.17945  23895017.014    23895030.681
       211.000         144.000
  23293081.530    -4943919.39049  -3833597.78946  23293081.485    23293095.298
       223.000         166.000
  20462528.369    -6765601.64249  -5248569.88448  20462527.857    20462536.183
       244.000         217.000
  23902980.668    -6928195.37149  -5016473.72845  23902980.491    23902992.925
       215.000         152.000
 02  6 21 21 58  0.0000000  0  7G25G 3G21G18G31G14G11
  22244269.840   -11945663.36649  -8936592.39646  22244269.952    22244282.050
       231.000         184.000
  23709055.065     9350073.81049   7297098.67245  23709055.512    23709071.996
       213.000         141.000
  21612398.573     1264978.71949   1123835.66747  21612398.108    21612408.787
       239.000         197.000
  23907551.283    13624383.35249  10624404.72645  23907552.026    23907563.422
       210.000         141.000
  23301003.847    -4902287.49249  -3801157.43546  23301002.692    23301017.301
       223.000         166.000
  20468448.855    -6734489.06849  -5224326.32248  20468448.218    20468456.888
       243.000         216.000
  23884844.390    -7023501.83949  -5090738.41945  23884845.386    23884855.639
       216.000         152.000
 02  6 21 21 58 30.0000000  0  7G25G 3G21G18G31G14G11
  22228084.861   -12030715.63149  -9002866.72146  22228083.768    22228097.383
       232.000         184.000
  23723861.427     9427880.71549   7357727.16845  23723861.662    23723879.460
       215.000         140.000
  21616395.049     1285980.22649   1140200.43647  21616394.521    21616405.286
       240.000         198.000
  23920102.377    13690339.95549  10675799.35345  23920100.739    23920116.687
       205.000         138.000
  23309000.762    -4860262.51549  -3768410.80346  23308999.565    23309014.978
       221.000         167.000
  20474437.606    -6703017.83949  -5199803.29448  20474437.442    20474445.670
       243.000         217.000
  23866742.248    -7118629.38449  -5164863.70445  23866741.459    23866753.548
       216.000         152.000
 02  6 21 21 59  0.0000000  0  7G25G 3G21G18G31G14G11
  22211950.883   -12115499.74949  -9068932.09346  22211949.837    22211963.422
       231.000         185.000
  23738684.264     9505773.40649   7418422.57145  23738684.840    23738701.957
       211.000         138.000
  21620422.417     1307143.94649   1156691.61347  21620421.813    21620432.531
       240.000         198.000
  23932671.223    13756390.15949  10727266.93145  23932670.737    23932685.154
       206.000         135.000
  23317071.907    -4817847.34649  -3735360.13746  23317071.867    23317086.852
       220.000         166.000
  20480494.268    -6671190.25449  -5175002.58648  20480493.969    20480502.047
       244.000         217.000
  23848674.326    -7213576.29149  -5238848.22945  23848674.346    23848684.790
       218.000         154.000
 02  6 21 21 59 30.0000000  0  7G25G 3G21G18G31G14G11
  22195868.352   -12200012.93549  -9134786.34946  22195867.111    22195880.475
       231.000         185.000
  23753522.835     9583749.24349   7479182.73145  23753521.479    23753538.045
       207.000         135.000
  21624480.810     1328470.75249   1173309.87147  21624480.404    21624490.796
       240.000         197.000
  23945258.335    13822534.32349  10778807.68445  23945259.981    23945270.361
       204.000         134.000
  23325217.117    -4775044.27549  -3702007.20146  23325217.198    23325231.204
       223.000         166.000
  20486618.381    -6639008.03849  -5149925.54448  20486618.039    20486626.222
       244.000         217.000
  23830641.225    -7308339.81549  -5312689.86045  23830640.271    23830651.260
       217.000         154.000
 02  6 21 22  0  0.0000000  0  7G25G 3G21G18G31G14G11
  22179837.740   -12284252.91549  -9200427.72546  22179836.669    22179849.247
       231.000         185.000
  23768376.294     9661804.76049   7540004.97244  23768374.607    23768389.137
       206.000         131.000
  21628570.509     1349961.83749   1190056.14047  21628570.412    21628580.537
       240.000         197.000
  23957863.014    13888772.27149  10830421.52944  23957861.907    23957876.709
       200.000         131.000
  23333435.903    -4731856.00149  -3668354.11146  23333435.829    23333449.243
       224.000         166.000
  20492809.532    -6606473.46049  -5124573.93348  20492809.293    20492817.246
       246.000         216.000
  23812643.464    -7402917.84849  -5386386.96645  23812642.411    23812654.785
       220.000         154.000
 02  6 21 22  0 30.0000000  0  7G25G 3G21G18G31G14G11
  22163859.765   -12368216.77849  -9265853.94046  22163858.840    22163871.839
       231.000         185.000
  23783244.549     9739937.27349   7600887.20644  23783242.544    23783261.924
       200.000         128.000
  21632691.603     1371617.91949   1206930.96947  21632691.150    21632701.851
       239.000         197.000
  23970485.689    13955104.89249  10882109.16744  23970483.889    23970498.251
       201.000         128.000
  23341727.564    -4688284.80149  -3634402.62646  23341727.458    23341741.169
       223.000         167.000
  20499067.461    -6573588.05449  -5098948.95248  20499067.041    20499075.379
       245.000         217.000
  23794681.805    -7497307.89749  -5459937.59945  23794682.294    23794692.421
       221.000         154.000
 02  6 21 22  1  0.0000000  0  7G25G 3G21G18G31G14G11
  22147934.740   -12451902.21449  -9331063.20746  22147933.685    22147946.774
       232.000         186.000
  23798126.910     9818143.26449   7661826.72444  23798125.291    23798145.278
       202.000         126.000
  21636844.078     1393439.48149   1223934.75547  21636843.515    21636853.947
       239.000         196.000
  23983126.475    14021531.66449  10933870.16344  23983126.437    23983137.686
       201.000         126.000
  23350091.266    -4644333.53249  -3600155.00846  23350091.068    23350105.443
       224.000         167.000
  20505391.570    -6540354.41749  -5073052.62148  20505390.953    20505399.721
       245.000         216.000
  23776756.268    -7591508.16749  -5533340.33745  23776756.294    23776767.913
       222.000         154.000
 02  6 21 22  1 30.0000000  0  7G25G 3G21G18G31G14G11
  22132063.260   -12535306.79149  -9396053.62346  22132062.582    22132075.056
       233.000         187.000
  23813022.758     9896420.56449   7722821.77644  23813020.779    23813035.018
       198.000         123.000
  21641028.260     1415427.48149   1241068.23547  21641027.568    21641037.942
       239.000         196.000
  23995785.183    14088053.06849  10985704.92044  23995785.983    23995796.217
       198.000         122.000
  23358526.808    -4600004.62549  -3565613.12246  23358525.639    23358540.762
       223.000         167.000
  20511781.667    -6506774.02749  -5046886.09748  20511781.449    20511789.773
       245.000         216.000
  23758867.194    -7685515.97149  -5606593.10545  23758867.198    23758878.972
       221.000         155.000
 02  6 21 22  2  0.0000000  0  7G25G 3G21G18G31G14G11
  22116245.894   -12618427.31449  -9460822.70247  22116245.502    22116258.012
       234.000         189.000
  23827931.686     9974766.28848   7783870.17944  23827930.957    23827950.090
       192.000         120.000
  21645244.411     1437583.57149   1258332.67047  21645243.730    21645254.717
       238.000         196.000
  24008462.270    14154669.51649  11037613.73944  24008461.688    24008472.144
       196.000         122.000
  23367033.655    -4555300.25949  -3530778.66246  23367032.430    23367048.647
       222.000         166.000
  20518237.509    -6472848.61249  -5020450.71748  20518237.390    20518245.574
       246.000         217.000
  23741015.288    -7779328.65149  -5679693.80545  23741014.588    23741025.432
       220.000         155.000
 02  6 21 22  2 30.0000000  0  7G25G 3G21G18G31G14G11
  22100483.058   -12701261.17449  -9525368.40147  22100482.324    22100494.919
       234.000         190.000
  23842853.144    10053177.61948   7844969.58044  23842851.987    23842869.025
       187.000         119.000
  21649492.604     1459908.07149   1275728.35447  21649492.208    21649502.243
       238.000         195.000
  24021157.424    14221381.67449  11089597.10244  24021157.059    24021168.951
       195.000         119.000
  23375611.667    -4510222.64649  -3495653.34346  23375611.981    23375625.553
       224.000         166.000
  20524758.650    -6438580.02649  -4993747.93148  20524758.176    20524766.249
       246.000         216.000
  23723200.956    -7872943.49249  -5752640.33545  23723199.571    23723212.043
       218.000         155.000
 02  6 21 22  3  0.0000000  0  7G25G 3G21G18G31G14G11
  22084775.273   -12783805.62949  -9589688.60047  22084775.358    22084786.942
       235.000         191.000
  23857786.224    10131651.69948   7906117.95644  23857784.619    23857805.286
       191.000         121.000
  21653773.154     1482402.06849   1293256.11647  21653772.825    21653782.983
       239.000         195.000
  24033870.474    14288189.91948  11141655.35144  24033868.559    24033881.616
       185.000         115.000
  23384260.395    -4464774.08949  -3460238.99346  23384260.663    23384274.354
       223.000         165.000
  20531344.738    -6403969.90849  -4966779.01848  20531344.526    20531352.537
       246.000         216.000
  23705424.614    -7966357.85949  -5825430.64745  23705423.077    23705434.689
       218.000         154.000
 02  6 21 22  3 30.0000000  0  7G25G 3G21G18G31G14G11
  22069123.087   -12866058.00249  -9653781.20347  22069122.984    22069134.835
       236.000         192.000
  23872730.982    10210185.60848   7967312.96244  23872732.331    23872748.861
       194.000         124.000
  21658086.224     1505067.18449   1310917.21847  21658085.819    21658096.608
       237.000         196.000
  24046601.813    14355094.27948  11193788.47844  24046603.713    24046614.468
       191.000         114.000
  23392979.229    -4418957.40049  -3424537.81246  23392979.197    23392993.346
       223.000         165.000
  20537995.502    -6369020.24649  -4939545.52148  20537995.182    20538003.509
       246.000         216.000
  23687687.049    -8059569.63649  -5898063.10245  23687686.246    23687697.206
       218.000         153.000
 02  6 21 22  4  0.0000000  0  7G25G 3G21G18G31G14G11
  22053526.964   -12948016.13849  -9717644.52347  22053526.611    22053538.624
       237.000         192.000
  23887686.836    10288776.15849   8028552.10544  23887685.829    23887703.784
       198.000         127.000
  21662431.664     1527903.11949   1328711.42847  21662431.311    21662442.043
       238.000         196.000
  24059351.528    14422094.59748  11245996.42744  24059349.899    24059364.866
       190.000         112.000
  23401767.510    -4372775.36649  -3388551.94846  23401767.643    23401780.640
       220.000         166.000
  20544710.513    -6333733.19449  -4912049.11448  20544710.263    20544718.234
       246.000         216.000
  23669988.390    -8152577.00549  -5970536.26645  23669988.148    23669998.439
       216.000         153.000
 02  6 21 22  4 30.0000000  0  7G25G 3G21G18G31G14G11
  22037987.328   -13029677.35449  -9781276.48247  22037986.899    22037998.344
       235.000         192.000
  23902652.774    10367420.73749   8089833.34744  23902652.248    23902669.615
       195.000         128.000
  21666809.978     1550910.86349   1346639.50647  21666809.630    21666820.769
       239.000         197.000
  24072119.992    14489191.70148  11298279.77244  24072119.918    24072135.551
       189.000         111.000
  23410624.932    -4326230.26249  -3352283.17946  23410624.802    23410638.748
       221.000         165.000
  20551489.238    -6298110.66249  -4884291.29648  20551488.780    20551496.911
       246.000         216.000
  23652329.193    -8245376.90149  -6042847.73845  23652329.623    23652339.033
       218.000         154.000
 02  6 21 22  5  0.0000000  0  7G25G 3G21G18G31G14G11
  22022504.384   -13111039.61549  -9844675.48147  22022503.128    22022515.894
       234.000         191.000
  23917627.823    10446116.05249   8151154.09944  23917624.363    23917644.346
       198.000         127.000
  21671221.258     1574091.66149   1364702.43147  21671220.596    21671231.970
       238.000         197.000
  24084906.401    14556385.11348  11350638.08244  24084905.167    24084918.309
       192.000         107.000
  23419550.746    -4279325.24749  -3315733.91046  23419550.942    23419563.420
       222.000         164.000
  20558331.322    -6262155.12649  -4856273.99848  20558330.764    20558339.143
       246.000         216.000
  23634710.071    -8337967.38749  -6114996.01145  23634710.520    23634719.371
       218.000         155.000
 02  6 21 22  5 30.0000000  0  7G25G 3G21G18G31G14G11
  22007078.842   -13192099.99049  -9907839.24747  22007077.967    22007090.513
       234.000         191.000
  23932612.294    10524859.39849   8212512.28644  23932612.127    23932628.543
       200.000         128.000
  21675665.401     1597445.86849   1382900.48247  21675664.750    21675675.648
       237.000         196.000
  24097711.845    14623675.45548  11403071.96744                  24097710.112
       190.000         109.000
  23428544.392    -4232062.42949  -3278905.85346  23428543.097    23428557.804
       218.000         163.000
  20565236.569    -6225867.98049  -4827998.30048  20565236.213    20565244.047
       246.000         216.000
  23617131.244    -8430345.86849  -6186979.08045  23617130.781    23617140.615
       220.000         157.000
 02  6 21 22  6  0.0000000  0  7G25G 3G21G18G31G14G11
  21991711.321   -13272856.00349  -9970765.84747  21991710.815    21991723.048
       235.000         191.000
  23947605.832    10603647.72249   8273905.52444  23947606.397    23947620.805
       200.000         130.000
  21680142.675     1620974.55049   1401234.47147  21680141.760    21680153.328
       237.000         195.000
                  14691062.83448  11455581.53044
       194.000         108.000
  23437605.733    -4184444.59749  -3241801.19145  23437605.074    23437619.924
       219.000         162.000
  20572204.445    -6189251.47849  -4799465.96248  20572203.690    20572212.074
       245.000         215.000
  23599592.769    -8522510.08149  -6258795.19845  23599592.022    23599602.692
       219.000         158.000
 02  6 21 22  6 30.0000000  0  7G25G 3G21G18G31G14G11
  21976402.343   -13353304.83649 -10033453.08147  21976401.824    21976413.848
       235.000         192.000
  23962607.186    10682478.28449   8335331.66844  23962607.772    23962623.285
       203.000         130.000
  21684653.437     1644678.85149   1419705.31747  21684653.217    21684664.105
       237.000         195.000
  24123377.959    14758547.68148  11508167.02544                  24123377.114
       182.000         103.000
  23446734.183    -4136474.29249  -3204421.81946  23446733.184    23446748.467
       221.000         163.000
  20579234.552    -6152307.41449  -4770678.38248  20579233.793    20579242.376
       245.000         215.000
  23582095.499    -8614457.54449  -6330442.40845  23582093.916    23582105.988
       220.000         159.000
 02  6 21 22  7  0.0000000  0  7G25G 3G21G18G31G14G11
  21961152.404   -13433443.07949 -10095898.30047  21961151.951    21961164.066
       235.000         192.000
  23977616.089    10761349.06448   8396789.14944  23977618.080    23977634.382
       193.000         128.000
  21689198.002     1668560.58149   1438314.41947  21689197.681    21689208.339
       237.000         195.000
                  14826130.80848  11560829.06344
       187.000         103.000
  23455929.546    -4088153.30649  -3166769.24846  23455929.768    23455943.489
       223.000         164.000
  20586326.851    -6115036.90349  -4741636.43148  20586326.493    20586334.532
       246.000         215.000
  23564639.990    -8706185.08049  -6401918.26045  23564638.320    23564649.739
       221.000         160.000
 02  6 21 22  7 30.0000000  0  7G25G 3G21G18G31G14G11
  21945961.966   -13513268.98849 -10158100.14547  21945961.257    21945973.154
       236.000         192.000
  23992631.472    10840256.90449   8458275.48744  23992630.188    23992645.169
       196.000         125.000
  21693776.351     1692619.93249   1457061.92847  21693776.021    21693786.493
       238.000         194.000
                  14893812.31648   9581022.84243
       182.000          74.000
  23465191.193    -4039484.60049  -3128845.67046  23465191.316    23465204.619
       224.000         164.000
  20593480.898    -6077442.13649  -4712341.81048  20593480.470    20593488.787
       245.000         215.000
  23547226.789    -8797690.49249  -6473221.04045  23547226.045    23547236.629
       222.000         162.000
 02  6 21 22  8  0.0000000  0  7G25G 3G21G18G31G14G11
  21930831.586   -13592778.83949 -10220055.71847  21930830.672    21930842.449
       237.000         191.000
  24007653.421    10919199.80748   8519789.14444  24007651.049    24007671.350
       192.000         122.000
  21698388.928     1716858.60749   1475949.17747  21698388.508    21698399.237
       238.000         195.000
                  14961593.56048   9633844.92143
       182.000          74.000
  23474518.578    -3990469.79649  -3090652.43546  23474518.669    23474532.277
       223.000         163.000
  20600696.468    -6039524.22849  -4682795.39348  20600696.145    20600704.516
       246.000         216.000
  23529856.485    -8888970.31349  -6544348.05146  23529855.560    23529866.832
       224.000         164.000
 02  6 21 22  8 30.0000000  0  7G25G 3G21G18G31G14G11
  21915761.558   -13671971.12049 -10281763.83947  21915760.824    21915772.569
       236.000         191.000
  24022681.467    10998174.06849   8581327.21644  24022683.692    24022700.502
       198.000         123.000
  21703035.554     1741276.80349   1494976.30247  21703034.872    21703046.209
       238.000         195.000
                  15029473.36848   9686745.09043
       178.000          74.000
  23483910.880    -3941112.52149  -3052192.34345  23483911.107    23483923.984
       221.000         161.000
  20607972.982    -6001286.03949  -4652999.41048  20607972.498    20607980.983
       246.000         216.000
  23512529.547    -8980023.28049  -6615298.28846  23512529.115    23512540.718
       225.000         166.000
 02  6 21 22  9  0.0000000  0  7G25G 3G21G18G31G14G11
  21900752.432   -13750843.44549 -10343222.64647  21900752.135    21900763.811
       236.000         191.000
  24037715.189    11077176.74848   8642887.47144  24037712.978    24037731.709
       191.000         124.000
  21707716.536     1765875.48149   1514144.06147  21707716.221    21707727.118
       238.000         196.000
                  15097452.02148   9688620.39843
       173.000          74.000
  23493367.857    -3891415.54549  -3013467.53445  23493367.250    23493382.548
       222.000         161.000
  20615309.989    -5962729.77749  -4622955.57848  20615309.258    20615317.924
       245.000         215.000
  23495246.185    -9070847.06449  -6686069.94646  23495245.810    23495258.737
       224.000         167.000
 02  6 21 22  9 30.0000000  0  7G25G 3G21G18G31G14G11
  21885804.669   -13829393.91649 -10404430.65747  21885804.483    21885816.089
       237.000         192.000
  24052753.640    11156203.97648   8704466.89144  24052755.454    24052775.445
       190.000         122.000
  21712431.753     1790654.00249   1533451.95747  21712431.267    21712442.053
       238.000         196.000
                  15165528.84048   9741570.43143
       172.000          74.000
  23502888.949    -3841382.52849  -2974480.89545  23502889.258    23502902.587
       222.000         162.000
  20622706.862    -5923858.31249  -4592666.13948  20622706.457    20622715.054
       245.000         215.000
  23478006.780    -9161440.05749  -6756661.77746  23478006.904    23478017.036
       225.000         166.000
 02  6 21 22 10  0.0000000  0  7G25G 3G21G18G31G14G11
  21870918.556   -13907620.36049 -10465386.18547  21870918.438    21870930.105
       236.000         192.000
  24067796.195    11235252.90648   8766063.18844  24067796.131    24067818.202
       189.000         118.000
  21717181.466     1815613.59449   1552900.93847  21717181.178    21717192.039
       238.000         196.000
                  15233705.06848   9794563.01743
       181.000          74.000
  23512473.426    -3791016.15149  -2935234.48945  23512473.563    23512488.060
       222.000         162.000
  20630163.413    -5884673.69149  -4562132.69148  20630163.165    20630171.797
       246.000         215.000
  23460811.796    -9251800.01249  -6827072.03746  23460811.528    23460822.048
       225.000         164.000
 02  6 21 22 10 30.0000000  0  7G25G 3G21G18G31G14G11
  21856094.619   -13985520.37549 -10526087.35547  21856094.241    21856106.259
       235.000         193.000
  24082842.634    11314320.80648   8827674.23844  24082842.715    24082858.843
       192.000         113.000
  21721965.912     1840755.89549   1572492.30047  21721965.596    21721976.565
       238.000         196.000
                  15301979.13048   9796143.70343
       181.000          74.000
  23522120.859    -3740318.93349  -2895730.29446  23522119.685    23522134.444
       220.000         163.000
  20637679.361    -5845177.47349  -4531356.44048  20637678.962    20637687.429
       246.000         215.000
  23443661.797    -9341923.97849  -6897298.40246  23443661.331    23443671.841
       225.000         163.000
 02  6 21 22 11  0.0000000  0  7G25G 3G21G18G31G14G11
  21841333.434   -14063090.66849 -10586531.58647  21841332.580    21841344.476
       236.000         194.000
  24097892.422    11393405.31749   8889298.21644  24097893.855    24097903.864
       195.000         113.000
  21726785.423     1866082.05649   1592226.94247  21726784.940    21726795.948
       239.000         196.000
                  15370352.69958   9849444.56843
       173.000          74.000
  23531830.786    -3689292.91149  -2855969.86445  23531829.513    23531846.215
       220.000         160.000
  20645254.261    -5805371.18549  -4500338.57748  20645253.818    20645262.238
       245.000         215.000
  23426557.208    -9431809.34649  -6967338.85945  23426555.653    23426565.937
       223.000         160.000
 02  6 21 22 11 30.0000000  0  6G25G 3G21G31G14G11
  21826635.626   -14140327.86549 -10646716.27847  21826635.345    21826646.759
       237.000         195.000
  24112945.428    11472504.73348   8950933.85044  24112943.107    24112961.712
       193.000         110.000
  21731640.148     1891593.34449   1612105.83947  21731639.749    21731650.376
       239.000         195.000
  23541602.963    -3637940.07749  -2815954.78645  23541603.257    23541618.465
       217.000         158.000
  20652887.883    -5765256.11849  -4469080.11248  20652887.494    20652895.726
       246.000         215.000
  23409498.492    -9521452.90549  -7037190.89045  23409497.882    23409507.489
       222.000         158.000
 02  6 21 22 12  0.0000000  0  6G25G 3G21G31G14G11
  21812002.308   -14217225.69149 -10706636.51947  21812001.635    21812013.615
       237.000         195.000
  24128001.112    11551620.01448   9012581.85544                  24128006.988
       186.000         108.000
  21736531.116     1917295.02249   1632133.09747  21736530.863    21736541.639
       239.000         195.000
  23551437.507    -3586259.03949  -2775683.98445  23551438.099    23551452.392
       219.000         158.000
  20660580.727    -5724829.97149  -4437579.24248  20660580.438    20660588.776
       246.000         215.000
  23392486.883    -9610848.22549  -7106849.49445  23392486.249    23392498.210
       217.000         155.000
 02  6 21 22 12 30.0000000  0  6G25G 3G21G31G14G11
  21797432.999   -14293787.41149 -10766294.85547  21797432.591    21797444.344
       237.000         196.000
  24143057.975    11630742.75648   9074235.57444                  24143057.079
       184.000         105.000
  21741457.326     1943181.94149   1652304.69247  21741456.363    21741467.953
       237.000         195.000
  23561333.150    -3534258.52749  -2735164.21945  23561333.798    23561348.916
       222.000         159.000
  20668331.342    -5684100.54549  -4405842.05348  20668330.912    20668339.259
       246.000         215.000
  23375521.857    -9699998.57049  -7176317.20745  23375521.833    23375532.344
       216.000         155.000
 02  6 21 22 13  0.0000000  0  6G25G 3G21G31G14G11
  21782928.123   -14370010.50849 -10825689.34047  21782927.793    21782939.308
       238.000         197.000
  24158115.554    11709870.45048   9135893.19844                  24158112.417
       186.000         104.000
  21746418.933     1969255.75649   1672621.93547  21746418.468    21746428.980
       237.000         193.000
  23571289.065    -3481940.70949  -2694397.19645  23571288.826    23571303.738
       220.000         159.000
  20676139.282    -5643069.65849  -4373869.95748  20676138.947    20676147.327
       245.000         215.000
  23358604.298    -9788901.03449  -7245591.74745  23358603.855    23358614.738
       214.000         155.000
 02  6 21 22 13 30.0000000  0  6G25G 3G21G31G14G11
  21768488.260   -14445892.06649 -10884817.69147  21768487.989    21768499.211
       239.000         198.000
                  11789000.43048                                  10007755.69243
       184.000          74.000
  21751416.385     1995517.60549   1693085.69447  21751415.948    21751426.750
       237.000         193.000
  23581304.940    -3429308.06349  -2653384.84745  23581305.372    23581319.538
       219.000         158.000
  20684004.300    -5601738.83349  -4341664.14148  20684004.002    20684012.158
       246.000         215.000
  23341734.122    -9877552.92049  -7314671.04245  23341733.304    23341743.465
       216.000         157.000
 02  6 21 22 14  0.0000000  0  6G25G 3G21G31G14G11
  21754114.039   -14521429.20149 -10943677.65947  21754113.211    21754124.767
       239.000         197.000
                  11868130.40448                                  10069397.92243
       184.000          74.000
  21756449.865     2021968.28749   1713696.59747  21756449.553    21756460.456
       238.000         194.000
  23591380.150    -3376362.89849  -2612129.00745  23591378.369    23591394.676
       217.000         156.000
  20691926.124    -5560109.63349  -4309225.82048  20691925.688    20691934.041
       246.000         215.000
  23324912.035    -9965951.46149  -7383552.93845  23324911.380    23324923.176
       219.000         161.000
 02  6 21 22 14 30.0000000  0  6G25G 3G21G31G14G11
  21739805.685   -14596619.72349 -11002267.53947  21739805.226    21739816.355
       238.000         197.000
                  11947257.52148                                  10130985.41143
       186.000          74.000
  21761519.396     2048608.80049   1734455.41247  21761518.474    21761529.914
       237.000         194.000
  23601514.400    -3323108.21549  -2570631.97345  23601514.442    23601529.312
       217.000         156.000
  20699904.261    -5518184.32549  -4276556.77048  20699903.945    20699912.241
       246.000         215.000
  23308138.988   -10054094.32349  -7452235.59746  23308139.251    23308149.494
       224.000         166.000
 02  6 21 22 15  0.0000000  0  6G25G 3G21G31G14G11
  21725563.779   -14671461.30849 -11060585.51447  21725563.196    21725574.462
       238.000         197.000
                  12026378.83848                                  10114407.35643
       182.000          74.000
  21766625.166     2075440.01349   1755362.83647  21766624.929    21766635.592
       238.000         193.000
  23611706.983    -3269546.51649  -2528895.72445  23611706.066    23611721.935
       215.000         157.000
  20707938.471    -5475964.49749  -4243658.21748  20707938.233    20707946.454
       246.000         215.000
  23291415.281   -10141979.02749  -7520717.09346  23291415.389    23291425.332
       225.000         169.000
 02  6 21 22 15 30.0000000  0  6G25G 3G21G31G14G11
  21711388.849   -14745950.52849 -11118628.92347  21711388.289    21711399.180
       237.000         197.000
                  12105492.73448                                  10176050.62043
       172.000          74.000
  21771767.668     2102463.70249   1776420.24947  21771767.479    21771777.885
       238.000         194.000
  23621957.315    -3215679.90549  -2486921.87845  23621956.959    23621970.557
       218.000         157.000
  20716028.501    -5433451.41649  -4210531.15348  20716028.222    20716036.730
       246.000         215.000
  23274741.171   -10229602.20049  -7588994.79246  23274741.112    23274751.821
       227.000         171.000
 02  6 21 22 16  0.0000000  0  6G25G 3G21G31G14G11
  21697281.454   -14820084.67549 -11176395.65047  21697280.565    21697291.933
       238.000         198.000
                  12184596.70558                                  10237668.26643
       175.000          74.000
  21776946.972     2129680.90549   1797628.45647  21776946.274    21776957.635
       237.000         194.000
  23632265.287    -3161510.79249  -2444712.29245  23632264.424    23632279.170
       218.000         156.000
  20724173.962    -5390646.88149  -4177176.98148  20724173.523    20724182.151
       246.000         215.000
  23258117.347   -10316961.33049  -7657066.76046  23258117.111    23258127.713
       228.000         173.000
 02  6 21 22 16 30.0000000  0  6G25G 3G21G31G14G11
  21683241.855   -14893862.42849 -11233884.67447  21683241.224    21683252.153
       238.000         198.000
                  12263686.67648                                  10299275.05543
       177.000          74.000
  21782163.153     2157091.98449   1818987.71647  21782162.812    21782173.938
       237.000         194.000
  23642630.459    -3107042.86349  -2402269.87045  23642630.767    23642643.953
       221.000         157.000
  20732374.331    -5347553.62049  -4143597.82748  20732373.806    20732382.517
       246.000         215.000
  23241544.169   -10404054.62149  -7724931.57846  23241543.834    23241554.414
       227.000         174.000
 02  6 21 22 17  0.0000000  0  6G25G 3G21G31G14G11
  21669270.296   -14967282.80649 -11291095.22347  21669269.847    21669280.579
       238.000         199.000
                  12342758.94648                                  10282697.72443
       178.000          74.000
  21787416.207     2184696.91249   1840498.03247  21787415.476    21787426.476
       237.000         194.000
  23653051.785    -3052280.16049  -2359597.74145  23653050.714    23653066.873
       218.000         156.000
  20740628.982    -5304174.96849  -4109796.28948  20740628.322    20740636.739
       245.000         214.000
  23225021.709   -10490881.19349  -7792588.55546  23225021.552    23225031.930
       228.000         173.000
 02  6 21 22 17 30.0000000  0  6G25G 3G21G31G14G11
  21655367.309   -15040342.76549 -11348024.92747  21655366.941    21655377.932
       239.000         199.000
                  12421811.42957                                  10344300.53443
       159.000          74.000
  21792706.344     2212496.93149   1862160.36747  21792706.183    21792716.777
       237.000         194.000
  23663528.565    -2997224.86349  -2316697.65845  23663528.880    23663544.298
       217.000         156.000
  20748937.702    -5260512.19649  -4075773.35348  20748937.100    20748945.722
       245.000         214.000
  23208550.578   -10577437.83849  -7860035.19446  23208550.085    23208560.284
       225.000         171.000
 02  6 21 22 18  0.0000000  0  5G25G21G31G14G11
  21641534.471   -15113034.72249 -11404667.88147  21641533.888    21641544.709
       240.000         200.000
  21798034.764     2240497.77949   1883979.18547  21798034.245    21798044.970
       236.000         194.000
  23674061.575    -2941874.63549  -2273567.74645  23674061.009    23674076.204
       216.000         156.000
  20757301.102    -5216562.00849  -4041526.45548  20757300.680    20757309.170
       246.000         214.000
  23192132.162   -10663716.91649  -7927265.56046  23192131.262    23192142.549
       221.000         168.000
 02  6 21 22 18 30.0000000  0  5G25G21G31G14G11
  21627771.812   -15185357.35849 -11461023.05847  21627771.196    21627782.092
       239.000         199.000
  21803401.398     2268699.50149   1905954.52447  21803400.920    21803411.256
       237.000         193.000
  23684649.793    -2886233.15349  -2230210.91345  23684648.899    23684664.653
       217.000         156.000
  20765718.699    -5172327.45549  -4007057.97448  20765718.552    20765726.751
       247.000         214.000
  23175766.589   -10749716.98849  -7994278.52046  23175766.281    23175775.944
       221.000         164.000
 02  6 21 22 19  0.0000000  0  5G25G21G31G14G11
  21614078.749   -15257314.04149 -11517093.08047  21614078.025    21614089.254
       239.000         199.000
  21808805.411     2297097.52149   1928082.83747  21808804.829    21808815.277
       236.000         193.000
  23695291.887    -2830308.83349  -2186633.65445  23695290.062    23695305.857
       214.000         155.000
  20774189.019    -5127816.01749  -3972373.73448  20774188.798    20774196.975
       246.000         214.000
  23159453.522   -10835441.29349  -8061076.57945  23159452.535    23159463.933
       218.000         161.000
 02  6 21 22 19 30.0000000  0  5G25G21G31G14G11
  21600456.045   -15328900.95149 -11572874.97147  21600455.756    21600466.807
       239.000         200.000
  21814247.081     2325693.94249   1950365.74647  21814246.901    21814257.558
       237.000         193.000
  23705987.385    -2774103.05249  -2142837.06445  23705986.807    23706002.028
       217.000         156.000
  20782711.909    -5083028.22649  -3937474.15248  20782711.688    20782719.728
       247.000         214.000
  23143193.779   -10920885.84649  -8127656.64245  23143193.680    23143203.367
       219.000         160.000
 02  6 21 22 20  0.0000000  0  5G25G21G31G14G11
  21586904.297   -15400115.50449 -11628366.71047  21586903.907    21586914.963
       239.000         200.000
  21819726.795     2354490.06449   1972804.25347  21819726.148    21819736.900
       236.000         194.000
  23716735.866    -2717618.54649  -2098823.31845  23716735.506    23716750.735
       216.000         154.000
  20791287.034    -5037966.04849  -3902360.76848  20791286.562    20791294.717
       247.000         214.000
  23126987.806   -11006048.12949  -8194016.77545  23126987.260    23126998.623
       222.000         161.000
 02  6 21 22 20 30.0000000  0  5G25G21G31G14G11
  21573423.867   -15470955.14249 -11683566.31247  21573423.110    21573434.501
       239.000         200.000
  21825244.677     2383486.83849   1995399.10747  21825244.158    21825255.057
       237.000         193.000
  23727536.768    -2660857.98649  -2054594.40145  23727535.709    23727551.927
       215.000         154.000
  20799913.990    -4992631.01049  -3867034.76548  20799913.480    20799921.407
       246.000         214.000
  23110836.204   -11090925.22949  -8260154.69345  23110834.802    23110845.575
       224.000         162.000
 02  6 21 22 21  0.0000000  0  5G25G21G31G14G11
  21560015.126   -15541417.80449 -11738472.16847  21560014.772    21560025.679
       239.000         200.000
  21830801.073     2412685.57549   2018151.34147  21830800.931    21830811.441
       237.000         193.000
  23738390.151    -2603823.77349  -2010152.31145  23738390.085    23738405.405
       217.000         156.000
  20808592.523    -4947024.91249  -3831497.55348  20808592.051    20808600.716
       246.000         214.000
  23094739.121   -11175514.83649  -8326068.61746  23094738.255    23094749.371
       226.000         164.000
 02  6 21 22 21 30.0000000  0  5G25G21G31G14G11
  21546678.490   -15611501.68949 -11793082.87647  21546678.295    21546688.897
       241.000         201.000
  21836395.843     2442086.14949   2041060.85747  21836395.478    21836406.272
       237.000         192.000
  23749294.833    -2546519.82249  -1965500.00245  23749296.294    23749309.500
       221.000         159.000
  20817322.057    -4901150.65049  -3795751.38148  20817321.558    20817330.136
       246.000         214.000
  23078697.268   -11259815.03449  -8391757.01446  23078696.511    23078707.432
       228.000         167.000
 02  6 21 22 22  0.0000000  0  5G25G21G31G14G11
  21533414.499   -15681204.56549 -11847396.69147  21533414.218    21533424.756
       240.000         201.000
  21842029.303     2471689.82049   2064128.62247  21842028.968    21842039.731
       237.000         192.000
  23760250.733    -2488948.69349  -1920639.49145  23760250.861    23760265.493
       220.000         160.000
  20826102.410    -4855009.61049  -3759797.33248  20826101.790    20826110.326
       245.000         214.000
  23062711.081   -11343823.51949  -8457218.08746  23062710.887    23062720.636
       229.000         170.000
 02  6 21 22 22 30.0000000  0  5G25G21G31G14G11
  21520223.488   -15750523.37349 -11901411.23547  21520222.930    21520233.555
       240.000         201.000
  21847701.701     2501497.96949   2087355.71547  21847701.011    21847712.268
       237.000         192.000
  23771256.741    -2431112.71849  -1875572.62945  23771256.212    23771269.839
       218.000         159.000
  20834933.080    -4808603.86349  -3723637.01448  20834932.386    20834941.172
       245.000         213.000
  23046780.857   -11427537.36849  -8522449.57246  23046780.936    23046791.380
       228.000         172.000
 02  6 21 22 23  0.0000000  0  5G25G21G31G14G11
  21507105.928   -15819455.95949 -11955124.83047  21507105.631    21507116.200
       241.000         202.000
  21853413.149     2531511.93049   2110743.18347  21853412.447    21853423.875
       235.000         192.000
  23782312.610    -2373014.23049  -1830301.21145  23782312.438    23782326.027
       221.000         160.000
  20843813.957    -4761934.41849  -3687271.22848  20843813.408    20843822.094
       245.000         213.000
  23030907.320   -11510953.67749  -8587449.20746  23030907.225    23030917.337
       228.000         173.000
 02  6 21 22 23 30.0000000  0  5G25G21G31G14G11
  21494062.469   -15887999.65349 -12008535.39847  21494061.931    21494072.701
       241.000         203.000
  21859163.967     2561732.58749   2134291.71147  21859163.486    21859174.668
       236.000         191.000
  23793418.013    -2314655.98549  -1784827.36245  23793418.489    23793432.467
       220.000         160.000
  20852744.678    -4715003.15149  -3650701.41948  20852744.226    20852752.963
       245.000         213.000
  23015090.887   -11594069.56949  -8652214.75746  23015089.035    23015100.524
       225.000         173.000
 02  6 21 22 24  0.0000000  0  5G25G21G31G14G11
  21481093.338   -15956152.61249 -12061641.48647  21481092.729    21481103.772
       241.000         203.000
  21864954.255     2592161.04049   2158002.15247  21864953.138    21864965.022
       235.000         191.000
  23804572.480    -2256040.93849  -1739153.44745  23804572.507    23804586.392
       221.000         160.000
  20861724.814    -4667812.12649  -3613929.20347  20861724.239    20861732.852
       245.000         212.000
  22999331.780   -11676883.03249  -8716744.66246  22999330.775    22999342.042
       225.000         172.000
 02  6 21 22 24 30.0000000  0  5G25G21G31G14G11
  21468199.088   -16023911.78549 -12114440.73747  21468198.326    21468209.449
       241.000         203.000
  21870784.292     2622798.23549   2181875.25347  21870784.101    21870794.573
       237.000         191.000
  23815774.974    -2197171.66349  -1693281.38545  23815774.343    23815788.632
       215.000         157.000
  20870754.071    -4620362.92949  -3576955.81247  20870753.718    20870761.920
       245.000         212.000
  22983630.865   -11759390.99049  -8781036.50146  22983631.333    22983640.995
       224.000         171.000
 02  6 21 22 25  0.0000000  0  5G25G21G31G14G11
  21455380.155   -16091275.05049 -12166931.49847  21455379.560    21455390.459
       241.000         202.000
  21876654.385     2653645.29049   2205911.88947  21876654.038    21876664.525
       237.000         190.000
  23827025.091    -2138050.89949  -1647213.41645  23827023.515    23827040.735
       211.000         155.000
  20879832.149    -4572657.41449  -3539782.69847  20879831.793    20879840.035
       245.000         212.000
  22967988.733   -11841591.09649  -8845088.47646  22967988.642    22967998.519
       226.000         170.000
 02  6 21 22 25 30.0000000  0  5G25G21G31G14G11
  21442636.793   -16158241.47649 -12219113.02547  21442636.162    21442646.969
       241.000         203.000
  21882564.404     2684702.30249   2230112.12647  21882564.116    21882574.457
       236.000         190.000
  23838322.346    -2078682.49849  -1600952.47545  23838322.393    23838337.934
       209.000         152.000
  20888958.453    -4524698.44749  -3502412.09147  20888958.135    20888966.328
       246.000         212.000
  22952405.493   -11923481.99349  -8908899.49546  22952405.340    22952414.310
       227.000         170.000
 02  6 21 22 26  0.0000000  0  5G25G21G31G14G11
  21429969.518   -16224807.90249 -12270982.86547  21429969.001    21429979.888
       240.000         203.000
  21888514.664     2715970.87849   2254477.21047  21888514.427    21888525.424
       236.000         190.000
  23849666.278    -2019068.41649  -1554500.07645  23849666.060    23849681.675
       212.000         152.000
  20898132.820    -4476487.06449  -3464844.79247  20898132.354    20898140.889
       245.000         212.000
  22936881.735   -12005060.19949  -8972466.85946  22936880.858    22936890.999
       226.000         170.000
 02  6 21 22 26 30.0000000  0  5G25G21G31G14G11
  21417378.700   -16290972.17349 -12322539.34047  21417378.168    21417389.293
       241.000         203.000
  21894505.227     2747451.81649   2279007.77047  21894504.400    21894515.629
       235.000         190.000
  23861056.653    -1959211.58149  -1507858.55345  23861056.314    23861073.719
       209.000         153.000
  20907354.807    -4428025.15449  -3427082.28247  20907354.480    20907363.031
       246.000         212.000
  22921417.587   -12086323.38349  -9035788.76146  22921417.053    22921427.814
       226.000         170.000
 02  6 21 22 27  0.0000000  0  5G25G21G31G14G11
  21404864.932   -16356731.99149 -12373780.65647  21404864.471    21404875.374
       240.000         203.000
  21900536.467     2779146.28649   2303704.71147  21900536.494    21900547.032
       236.000         190.000
  23872492.707    -1899114.48349  -1461029.81845  23872493.157    23872511.018
       212.000         151.000
  20916624.255    -4379314.31249  -3389125.79347  20916624.003    20916632.314
       246.000         212.000
  22906014.029   -12167268.75549  -9098863.03746  22906013.447    22906023.614
       226.000         171.000
 02  6 21 22 27 30.0000000  0  5G25G21G31G14G11
  21392428.282   -16422086.60649 -12424706.23247  21392427.850    21392438.807
       241.000         203.000
  21906608.379     2811053.92849   2328567.77947  21906607.951    21906618.669
       235.000         189.000
  23883973.990    -1838781.66149  -1414017.37645  23883975.538    23883991.197
       214.000         151.000
  20925940.325    -4330358.04449  -3350978.07047  20925939.723    20925948.422
       245.000         211.000
  22890671.210   -12247895.53249  -9161689.03246  22890670.668    22890681.568
       227.000         172.000
 02  6 21 22 28  0.0000000  0  5G25G21G31G14G11
  21380069.101   -16487034.47349 -12475314.86247  21380068.906    21380079.271
       241.000         204.000
  21912720.899     2843175.31949   2353597.39147  21912719.700    21912731.498
       234.000         188.000
  23895499.414    -1778216.53249  -1366823.93945  23895498.271    23895515.940
       212.000         152.000
  20935302.568    -4281158.85049  -3312641.05347  20935301.942    20935310.396
       245.000         211.000
  22875389.457   -12328202.11449  -9224265.53146  22875389.827    22875400.547
       229.000         173.000
 02  6 21 22 28 30.0000000  0  5G25G21G31G14G11
  21367787.948   -16551572.16849 -12525603.87447  21367787.429    21367798.156
       241.000         204.000
  21918874.259     2875512.20149   2378794.91647  21918874.199    21918885.502
       235.000         189.000
  23907068.647    -1717420.67449  -1319450.72245  23907069.270    23907084.983
       217.000         153.000
  20944710.952    -4231717.32249  -3274115.19547  20944710.509    20944719.196
       244.000         211.000
  22860169.429   -12408184.25349  -9286589.21146  22860169.784    22860179.270
       229.000         175.000
 02  6 21 22 29  0.0000000  0  5G25G21G31G14G11
  21355585.245   -16615697.33949 -12575571.44047  21355584.856    21355595.522
       241.000         204.000
  21925069.008     2908065.56449   2404161.11947  21925068.451    21925080.494
       235.000         190.000
  23918681.403    -1656396.78549  -1271899.80345  23918682.151    23918698.435
       218.000         156.000
  20954165.181    -4182035.03549  -3235401.74147  20954164.943    20954173.357
       245.000         211.000
  22845011.588   -12487839.54949  -9348658.21546  22845011.258    22845021.697
       231.000         175.000
 02  6 21 22 29 30.0000000  0  5G25G21G31G14G11
  21343461.301   -16679408.28749 -12625216.23347  21343460.860    21343471.477
       241.000         204.000
  21931305.191     2940836.67249   2429696.98347  21931304.914    21931316.287
       235.000         191.000
  23930336.746    -1595148.04749  -1224173.70845  23930335.174    23930353.361
       211.000         156.000
  20963664.888    -4132114.43049  -3196502.57447  20963664.467    20963672.803
       245.000         211.000
  22829916.225   -12567165.96649  -9410470.94546  22829914.369    22829925.114
       228.000         175.000
 02  6 21 22 30  0.0000000  0  5G25G21G31G14G11
  21331416.599   -16742703.23349 -12674536.87147  21331416.308    21331426.559
       242.000         204.000
  21937582.937     2973826.24249   2455403.09847  21937582.358    21937594.521
       234.000         191.000
  23942034.332    -1533677.13049  -1176274.48345  23942034.454    23942051.572
       215.000         155.000
  20973209.531    -4081957.05049  -3157418.90847  20973209.229    20973217.509
       245.000         211.000
  22814883.802   -12646160.82649  -9472025.31346  22814882.386    22814893.936
       226.000         174.000
 02  6 21 22 30 30.0000000  0  5G25G21G31G14G11
  21319451.593   -16805579.46249 -12723531.23847  21319451.621    21319461.488
       243.000         205.000
  21943902.359     3007034.68349   2481279.76447  21943902.163    21943913.441
       234.000         190.000
  23953773.785    -1471986.93249  -1128204.34945  23953772.798    23953789.460
       214.000         154.000
  20982798.947    -4031564.70549  -3118152.14847  20982798.451    20982806.698
       245.000         211.000
  22799914.741   -12724821.81549  -9533319.51046  22799914.138    22799924.861
       225.000         174.000
 02  6 21 22 31  0.0000000  0  5G25G21G31G14G11
  21307566.754   -16868034.69049 -12772197.56147  21307566.679    21307576.453
       243.000         205.000
  21950263.674     3040463.52449   2507328.17247  21950263.279    21950274.544
       235.000         189.000
  23965554.443    -1410079.63849  -1079965.09545  23965555.451    23965570.313
       219.000         153.000
  20992432.860    -3980938.44349  -3078703.12347  20992432.491    20992440.615
       245.000         211.000
  22785009.861   -12803145.72249  -9594351.04746  22785009.446    22785020.192
       227.000         174.000
 02  6 21 22 31 30.0000000  0  5G25G21G31G14G11
  21295762.227   -16930067.61349 -12820534.80947  21295761.961    21295772.007
       242.000         206.000
  21956667.103     3074113.18049   2533548.63247  21956666.876    21956678.024
       235.000         190.000
  23977375.739    -1347959.16249  -1031559.65145  23977375.968    23977390.722
       217.000         152.000
  21002110.626    -3930081.51449  -3039074.36147  21002110.212    21002118.612
       245.000         210.000
  22770169.843   -12881131.30149  -9655118.95946  22770170.499    22770180.384
       228.000         175.000
 02  6 21 22 32  0.0000000  0  5G25G21G31G14G11
  21284038.398   -16991676.49249 -12868541.63347  21284038.157    21284048.499
       243.000         206.000
  21963112.615     3107984.32049   2559941.66947  21963112.024    21963123.395
       233.000         190.000
  23989237.003    -1285628.53649   -982990.53845  23989237.676    23989253.699
       219.000         152.000
  21011831.955    -3878995.73349  -2999267.26647  21011831.492    21011839.892
       245.000         211.000
  22755394.678   -12958776.11049  -9715621.31346  22755394.448    22755404.837
       227.000         175.000
 02  6 21 22 32 30.0000000  0  5G25G21G31G14G11
  21272395.732   -17052859.02449 -12916216.23647  21272395.687    21272405.684
       243.000         207.000
  21969600.415     3142078.04149   2586508.14347  21969600.552    21969611.786
       234.000         190.000
  24001137.812    -1223090.34049   -934259.61745  24001136.829    24001155.724
       214.000         151.000
  21021596.546    -3827682.41849  -2959282.87547  21021595.942    21021604.500
       244.000         210.000
  22740684.547   -13036077.27449  -9775855.90446  22740684.142    22740695.257
       226.000         176.000
 02  6 21 22 33  0.0000000  0  5G25G21G31G14G11
  21260834.539   -17113613.39149 -12963557.20847  21260834.491    21260844.529
       244.000         208.000
  21976130.926     3176395.31349   2613248.82447  21976130.571    21976141.395
       235.000         189.000
  24013077.537    -1160347.41549   -885369.21745  24013078.042    24013094.795
       217.000         151.000
  21031403.972    -3776143.58049  -2919122.74947  21031403.652    21031411.609
       245.000         209.000
  22726040.282   -13113032.54649  -9835820.95346  22726040.090    22726050.367
       228.000         176.000
 02  6 21 22 33 30.0000000  0  5G25G21G31G14G11
  21249355.111   -17173938.15049 -13010563.42847  21249354.538    21249364.583
       243.000         208.000
  21982703.949     3210936.41349   2640163.92147  21982703.491    21982714.072
       236.000         189.000
  24025055.604    -1097403.40149   -836322.10245  24025055.021    24025071.237
       213.000         150.000
  21041253.888    -3724381.72549  -2878788.84147  21041253.184    21041261.716
       243.000         209.000
  22711462.272   -13189640.22749  -9895515.15746  22711462.562    22711472.194
       230.000         177.000
 02  6 21 22 34  0.0000000  0  5G25G21G31G14G11
  21237957.828   -17233830.51249 -13057232.70647  21237957.328    21237967.631
       242.000         207.000
  21989319.894     3245702.70949   2667254.49847  21989319.821    21989330.740
       237.000         190.000
  24037071.293    -1034260.51549   -787120.01845  24037072.261    24037086.404
       215.000         148.000
  21051145.991    -3672398.15549  -2838282.16847  21051145.435    21051154.200
       244.000         209.000
  22696950.976   -13265897.53349  -9954936.35746  22696951.467    22696961.332
       231.000         177.000
 02  6 21 22 34 30.0000000  0  5G25G21G31G14G11
  21226643.112   -17293288.86949 -13103563.79847  21226642.591    21226653.084
       242.000         207.000
  21995978.772     3280694.74249   2694520.96147  21995977.971    21995989.373
       234.000         190.000
  24049124.341     -970922.05849   -737765.57345  24049125.177    24049139.918
       214.000         148.000
  21061079.896    -3620194.82249  -2797604.25347  21061079.418    21061087.897
       243.000         209.000
  22682506.722   -13341802.38149 -10014082.90846  22682506.298    22682517.211
       229.000         177.000
 02  6 21 22 35  0.0000000  0  5G25G21G31G14G11
  21215411.511   -17352310.77849 -13149554.81047  21215411.196    21215421.358
       243.000         207.000
  22002680.824     3315914.95849   2721965.22047  22002680.072    22002692.100
       232.000         189.000
  24061213.990     -907390.24049   -688260.42445  24061212.839    24061229.928
       213.000         148.000
  21071055.485    -3567773.11349  -2756756.17647  21071055.102    21071063.643
       244.000         209.000
  22668130.147   -13417351.34949 -10072952.16746  22668130.380    22668140.227
       230.000         176.000
 02  6 21 22 35 30.0000000  0  5G25G21G31G14G11
  21204263.375   -17410894.35749 -13195204.25647  21204263.114    21204273.340
       243.000         207.000
  22009426.375     3351363.38049   2749587.30847  22009426.301    22009437.695
       234.000         188.000
  24073340.189     -843667.79349   -638606.74745  24073339.204    24073355.604
       218.000         149.000
  21081072.279    -3515134.48549  -2715739.07247  21081071.888    21081080.368
       244.000         209.000
  22653821.796   -13492542.23849 -10131542.38546  22653821.885    22653830.706
       230.000         175.000
 02  6 21 22 36  0.0000000  0  5G25G21G31G14G11
  21193198.794   -17469038.94249 -13240511.62947  21193198.584    21193208.635
       244.000         208.000
  22016215.550     3387039.99249   2777387.21247  22016215.071    22016226.151
       234.000         188.000
  24085502.008     -779758.99649   -588807.84745  24085502.893    24085517.674
       219.000         150.000
  21091129.792    -3462282.33849  -2674555.59247  21091129.535    21091137.862
       244.000         209.000
  22639581.795   -13567373.95649 -10189852.73846  22639581.564    22639591.758
       229.000         175.000
 02  6 21 22 36 30.0000000  0  5G25G21G31G14G11
  21182218.035   -17526742.93549 -13285475.68447  21182217.516    21182227.794
       244.000         208.000
  22023048.153     3422945.22749   2805365.27646  22023047.521    22023058.478
       234.000         187.000
  24097698.596     -715666.86149   -538866.08145  24097697.611    24097714.036
       218.000         151.000
  21101227.602    -3409218.37749  -2633207.05947  21101227.204    21101235.425
       244.000         209.000
  22625410.371   -13641844.24749 -10247881.46246  22625410.164    22625419.985
       231.000         175.000
 02  6 21 22 37  0.0000000  0  5G25G21G31G14G11
  21171321.721   -17584002.97449 -13330093.79747  21171321.289    21171331.408
       243.000         208.000
  22029924.568     3459081.29149   2833523.20646  22029924.281    22029935.591
       232.000         185.000
  24109929.653     -651392.81249   -488782.57745  24109930.313    24109946.032
       219.000         152.000
  21111365.546    -3355943.10449  -2591693.86647  21111365.136    21111373.304
       244.000         209.000
  22611308.640   -13715949.23949 -10305625.53346  22611308.287    22611318.558
       231.000         176.000
 02  6 21 22 37 30.0000000  0  5G25G21G31G14G11
  21160510.124   -17640817.70849 -13374364.91847  21160509.694    21160519.818
       243.000         208.000
  22036844.917     3495448.37549   2861861.13346  22036844.720    22036855.861
       232.000         184.000
  24122194.690     -586940.81449   -438560.42645  24122194.642    24122210.246
       218.000         153.000
  21121543.189    -3302459.13049  -2550018.04847  21121542.790    21121550.853
       244.000         208.000
  22597276.684   -13789687.63949 -10363083.96446  22597276.891    22597286.878
       231.000         176.000
 02  6 21 22 38  0.0000000  0  5G25G21G31G14G11
  21149783.792   -17697184.78249 -13418287.21547  21149783.360    21149793.375
       245.000         208.000
  22043809.585     3532047.44749   2890379.83946  22043809.828    22043820.407
       233.000         185.000
  24134493.114     -522312.97949   -388201.26745  24134492.369    24134510.164
       215.000         153.000
  21131760.352    -3248767.96749  -2508180.78847  21131759.867    21131768.163
       245.000         208.000
  22583314.944   -13863056.32549 -10420254.28646  22583315.016    22583324.846
       230.000         176.000
 02  6 21 22 38 30.0000000  0  5G25G21G31G14G11
  21139142.837   -17753102.91649 -13461859.69447  21139142.646    21139152.519
       244.000         208.000
  22050818.524     3568879.27049   2919079.91746  22050818.016    22050829.645
       233.000         185.000
  24146824.207     -457512.72149   -337707.75545  24146822.862    24146842.009
       211.000         152.000
  21142016.536    -3194871.41749  -2466183.48747  21142016.037    21142024.198
       244.000         208.000
  22569423.997   -13936053.45249 -10477135.10546  22569423.833    22569433.933
       232.000         177.000
 02  6 21 22 39  0.0000000  0  5G25G21G31G14G11
  21128587.748   -17808570.02949 -13505080.72447  21128587.223    21128597.458
       244.000         208.000
  22057871.969     3605945.55349   2947962.68246  22057871.323    22057882.649
       232.000         184.000
  24159187.664     -392542.63749   -287081.90245  24159188.072    24159205.055
       214.000         151.000
  21152311.459    -3140771.11549  -2424027.41847  21152310.640    21152319.363
       243.000         208.000
  22555604.350   -14008676.49649 -10533724.40446  22555604.030    22555614.289
       233.000         178.000
 02  6 21 22 39 30.0000000  0  5G25G21G31G14G11
  21118118.543   -17863585.37349 -13547949.72747  21118118.051    21118128.249
       243.000         208.000
  22064969.972     3643245.83149   2977027.78446  22064969.509    22064980.423
       232.000         183.000
  24171582.910     -327406.38649   -236326.59045  24171582.602    24171599.693
       214.000         152.000
  21162644.590    -3086469.58049  -2381714.54947  21162644.066    21162652.847
       243.000         207.000
  22541856.150   -14080923.79949 -10590020.93146  22541855.938    22541866.319
       232.000         180.000
 02  6 21 22 40  0.0000000  0  5G25G21G31G14G11
  21107735.688   -17918146.94849 -13590465.14147  21107735.369    21107745.328
       244.000         209.000
  22072112.835     3680781.03449   3006275.95246  22072112.574    22072124.145
       233.000         183.000
  24184008.971     -262107.01849   -185444.16845  24184008.669    24184025.872
       214.000         152.000
  21173015.784    -3031968.73649  -2339246.37147  21173015.416    21173023.711
       244.000         207.000
  22528179.748   -14152793.22449 -10646023.00646  22528179.076    22528189.594
       231.000         181.000
 02  6 21 22 40 30.0000000  0  5G25G21G31G14G11
  21097439.706   -17972252.62349 -13632625.31247  21097439.417    21097449.609
       246.000         210.000
  22079300.573     3718552.55949   3035708.26846  22079300.458    22079311.666
       235.000         185.000
  24196465.713     -196646.94049   -134436.51445  24196465.106    24196483.420
       212.000         150.000
  21183424.741    -2977269.78649  -2296623.82147  21183424.211    21183433.065
       243.000         207.000
  22514575.928   -14224281.83849 -10701728.34746  22514575.813    22514586.029
       234.000         182.000
 02  6 21 22 41  0.0000000  0  5G25G21G31G14G11
  21087230.735   -18025901.05449 -13674429.19547  21087230.554    21087240.414
       245.000         210.000
  22086533.548     3756561.37749   3065325.47847  22086533.671    22086544.586
       235.000         188.000
  24208952.270     -131029.06849    -83305.88945  24208951.701    24208970.215
       209.000         147.000
  21193870.956    -2922374.60849  -2253848.37547  21193870.539    21193879.008
       243.000         207.000
  22501044.962   -14295387.52749 -10757135.30646  22501044.711    22501054.490
       233.000         182.000
 02  6 21 22 41 30.0000000  0  5G25G21G31G14G11
  21077108.980   -18079090.82449 -13715875.68447  21077108.721    21077118.331
       245.000         210.000
  22093811.562     3794807.14949   3095127.32646  22093811.373    22093822.681
       234.000         187.000
  24221468.386      -65256.85749    -32055.00145  24221467.827    24221485.363
       210.000         144.000
  21204354.004    -2867285.78749  -2210922.03547  21204353.382    21204362.061
       242.000         207.000
  22487587.256   -14366108.25149 -10812242.29746  22487586.967    22487596.424
       232.000         181.000
 02  6 21 22 42  0.0000000  0  5G25G21G31G14G11
  21067074.999   -18131819.54749 -13756962.91047  21067074.488    21067084.299
       245.000         209.000
  22101134.860     3833291.61249   3125115.16046  22101134.493    22101145.750
       232.000         185.000
  24234013.319         667.60349     19314.52245  24234013.452    24234031.609
       209.000         143.000
  21214873.709    -2812003.85849  -2167845.22847  21214872.949    21214881.615
       242.000         206.000
  22474203.247   -14436441.30649 -10867047.20646  22474203.453    22474212.283
       233.000         180.000
 02  6 21 22 42 30.0000000  0  5G25G21G31G14G11
  21057128.997   -18184085.64349 -13797689.64947  21057128.603    21057138.340
       245.000         209.000
  22108503.700     3872015.72949   3155289.75046  22108503.062    22108514.761
       233.000         184.000
  24246586.825       66740.92349     70800.03345  24246586.837    24246603.634
       210.000         144.000
  21225429.801    -2756530.97849  -2124619.62247  21225429.661    21225437.263
       244.000         206.000
  22460893.517   -14506384.53549 -10921548.35446  22460893.477    22460903.048
       233.000         181.000
 02  6 21 22 43  0.0000000  0  5G25G21G31G14G11
  21047271.374   -18235887.55149 -13838054.68647  21047270.798    21047280.678
       245.000         209.000
  22115918.401     3910979.90349   3185651.39646  22115918.638    22115929.715
       234.000         185.000
  24259188.009      132960.16949    122399.26545  24259189.573    24259204.481
       212.000         143.000
  21236022.039    -2700868.96749  -2081246.63547  21236021.598    21236029.451
       243.000         205.000
  22447658.419   -14575935.94849 -10975744.18146  22447657.940    22447667.367
       233.000         181.000
 02  6 21 22 43 30.0000000  0  5G25G21G31G14G11
  21037502.204   -18287224.27749 -13878057.23747  21037501.791    21037511.421
       245.000         209.000
  22123378.752     3950183.99249   3216199.98746  22123379.003    22123390.307
       234.000         185.000
  24271816.685      199321.73749    174109.37745  24271817.730    24271833.182
       212.000         145.000
  21246649.708    -2645020.30149  -2037728.20747  21246649.451    21246657.313
       243.000         206.000
  22434498.003   -14645093.86249 -11029633.40046  22434497.231    22434507.661
       233.000         183.000
 02  6 21 22 44  0.0000000  0  5G25G21G31G14G11
  21027821.783   -18338094.59949 -13917696.37047  21027821.492    21027831.082
       246.000         210.000
  22130884.970     3989629.03649   3246936.33546  22130884.338    22130895.722
       234.000         186.000
  24284471.732      265822.64549    225928.07845  24284472.839    24284489.513
       215.000         148.000
  21257312.548    -2588986.87849  -1994065.81647  21257311.749    21257320.102
       242.000         205.000
  22421412.930   -14713856.06249 -11083214.26546  22421412.909    22421422.456
       234.000         184.000
 02  6 21 22 44 30.0000000  0  5G25G21G31G14G11
  21018230.630   -18388496.42649 -13956970.43447  21018230.502    21018240.053
       246.000         211.000
  22138437.289     4029316.72349   3277861.74046  22138436.559    22138448.663
       232.000         185.000
  24297152.750      332460.27749    277853.31445  24297152.441    24297170.468
       210.000         148.000
  21268010.175    -2532770.03449  -1950260.49647  21268009.813    21268018.087
       243.000         205.000
  22408403.734   -14782220.01949 -11136484.81146  22408403.325    22408412.099
       233.000         184.000
 02  6 21 22 45  0.0000000  0  5G25G21G31G14G11
  21008728.940   -18438427.74249 -13995877.86047  21008728.640    21008738.494
       246.000         211.000
  22146035.851     4069247.32649   3308976.42746  22146035.639    22146046.840
       233.000         184.000
  24309858.955      399231.96549    329883.00545  24309859.834    24309876.087
       209.000         148.000
  21278742.535    -2476371.22049  -1906313.38047  21278741.904    21278750.598
       243.000         205.000
  22395470.797   -14850183.12049 -11189442.99846  22395470.578    22395479.184
       234.000         184.000
 02  6 21 22 45 30.0000000  0  5G25G21G31G14G11
  20999317.079   -18487886.94449 -14034417.40847  20999316.686    20999326.621
       246.000         211.000
  22153680.798     4109421.60249   3340280.99446  22153680.436    22153691.933
       233.000         184.000
  24322590.481      466135.09649    382015.11745  24322590.551    24322608.002
       209.000         147.000
  21289509.136    -2419792.07449  -1862225.75547  21289508.740    21289517.660
       243.000         205.000
  22382614.401   -14917743.19349 -11242087.14646  22382613.349    22382623.381
       232.000         183.000
